<?xml version="1.0" encoding="UTF-8" standalone="no" ?>
<gpx xmlns="http://www.topografix.com/GPX/1/1" xmlns:xsi="http://www.w3.org/2001/XMLSchema-instance" xsi:schemaLocation="http://www.topografix.com/GPX/1/1 http://www.topografix.com/GPX/1/1/gpx.xsd" version="1.1" creator="VisuGPX - https://www.visugpx.com">
  <metadata>
    <name>Granvoir MARCHE ADEPS 2015 (Janv)</name>
    <desc><![CDATA[MARCHE ADEPS DIFFUCULTE MOYENNE PAS TROP CONSEILLE AVEC DES MOUFLETS]]></desc>
  </metadata>
  <trk>
    <name><![CDATA[solo scooby]]></name>
    <cmt><![CDATA[AVG 17° MAX 22° MIN 08°]]></cmt>
    <trkseg>
      <trkpt lat="49.85871" lon="5.37251">
        <ele>563</ele>
        <time>2015-02-01T10:07:29Z</time>
      </trkpt>
      <trkpt lat="49.8587" lon="5.37252">
        <ele>563</ele>
        <time>2015-02-01T10:07:34Z</time>
      </trkpt>
      <trkpt lat="49.8587" lon="5.37252">
        <ele>564</ele>
        <time>2015-02-01T10:07:39Z</time>
      </trkpt>
      <trkpt lat="49.85869" lon="5.37253">
        <ele>563</ele>
        <time>2015-02-01T10:07:45Z</time>
      </trkpt>
      <trkpt lat="49.85865" lon="5.37255">
        <ele>563</ele>
        <time>2015-02-01T10:07:50Z</time>
      </trkpt>
      <trkpt lat="49.85859" lon="5.37254">
        <ele>563</ele>
        <time>2015-02-01T10:07:55Z</time>
      </trkpt>
      <trkpt lat="49.85852" lon="5.37258">
        <ele>563</ele>
        <time>2015-02-01T10:08:01Z</time>
      </trkpt>
      <trkpt lat="49.85844" lon="5.3726">
        <ele>562</ele>
        <time>2015-02-01T10:08:07Z</time>
      </trkpt>
      <trkpt lat="49.85835" lon="5.37257">
        <ele>561</ele>
        <time>2015-02-01T10:08:13Z</time>
      </trkpt>
      <trkpt lat="49.85833" lon="5.37251">
        <ele>561</ele>
        <time>2015-02-01T10:08:18Z</time>
      </trkpt>
      <trkpt lat="49.85834" lon="5.37246">
        <ele>561</ele>
        <time>2015-02-01T10:08:23Z</time>
      </trkpt>
      <trkpt lat="49.85835" lon="5.37245">
        <ele>562</ele>
        <time>2015-02-01T10:08:28Z</time>
      </trkpt>
      <trkpt lat="49.85835" lon="5.37244">
        <ele>562</ele>
        <time>2015-02-01T10:08:33Z</time>
      </trkpt>
      <trkpt lat="49.85836" lon="5.37242">
        <ele>561</ele>
        <time>2015-02-01T10:08:38Z</time>
      </trkpt>
      <trkpt lat="49.85835" lon="5.37236">
        <ele>562</ele>
        <time>2015-02-01T10:08:44Z</time>
      </trkpt>
      <trkpt lat="49.85835" lon="5.37236">
        <ele>563</ele>
        <time>2015-02-01T10:08:49Z</time>
      </trkpt>
      <trkpt lat="49.85835" lon="5.37234">
        <ele>563</ele>
        <time>2015-02-01T10:08:55Z</time>
      </trkpt>
      <trkpt lat="49.85836" lon="5.37233">
        <ele>562</ele>
        <time>2015-02-01T10:09:02Z</time>
      </trkpt>
      <trkpt lat="49.85836" lon="5.37233">
        <ele>562</ele>
        <time>2015-02-01T10:09:09Z</time>
      </trkpt>
      <trkpt lat="49.85836" lon="5.37233">
        <ele>562</ele>
        <time>2015-02-01T10:09:14Z</time>
      </trkpt>
      <trkpt lat="49.85837" lon="5.37233">
        <ele>562</ele>
        <time>2015-02-01T10:09:20Z</time>
      </trkpt>
      <trkpt lat="49.85837" lon="5.37233">
        <ele>562</ele>
        <time>2015-02-01T10:09:27Z</time>
      </trkpt>
      <trkpt lat="49.85836" lon="5.37231">
        <ele>562</ele>
        <time>2015-02-01T10:09:33Z</time>
      </trkpt>
      <trkpt lat="49.85836" lon="5.37228">
        <ele>563</ele>
        <time>2015-02-01T10:09:38Z</time>
      </trkpt>
      <trkpt lat="49.85835" lon="5.37228">
        <ele>563</ele>
        <time>2015-02-01T10:09:44Z</time>
      </trkpt>
      <trkpt lat="49.85835" lon="5.37227">
        <ele>563</ele>
        <time>2015-02-01T10:09:49Z</time>
      </trkpt>
      <trkpt lat="49.85833" lon="5.37221">
        <ele>563</ele>
        <time>2015-02-01T10:09:55Z</time>
      </trkpt>
      <trkpt lat="49.85832" lon="5.37215">
        <ele>564</ele>
        <time>2015-02-01T10:10:00Z</time>
      </trkpt>
      <trkpt lat="49.85831" lon="5.37208">
        <ele>565</ele>
        <time>2015-02-01T10:10:05Z</time>
      </trkpt>
      <trkpt lat="49.8583" lon="5.37201">
        <ele>565</ele>
        <time>2015-02-01T10:10:10Z</time>
      </trkpt>
      <trkpt lat="49.85828" lon="5.37194">
        <ele>566</ele>
        <time>2015-02-01T10:10:15Z</time>
      </trkpt>
      <trkpt lat="49.85826" lon="5.37186">
        <ele>567</ele>
        <time>2015-02-01T10:10:20Z</time>
      </trkpt>
      <trkpt lat="49.85823" lon="5.37175">
        <ele>568</ele>
        <time>2015-02-01T10:10:25Z</time>
      </trkpt>
      <trkpt lat="49.8582" lon="5.37165">
        <ele>568</ele>
        <time>2015-02-01T10:10:30Z</time>
      </trkpt>
      <trkpt lat="49.85818" lon="5.37155">
        <ele>569</ele>
        <time>2015-02-01T10:10:35Z</time>
      </trkpt>
      <trkpt lat="49.85815" lon="5.37145">
        <ele>570</ele>
        <time>2015-02-01T10:10:40Z</time>
      </trkpt>
      <trkpt lat="49.85813" lon="5.37135">
        <ele>571</ele>
        <time>2015-02-01T10:10:45Z</time>
      </trkpt>
      <trkpt lat="49.8581" lon="5.37125">
        <ele>573</ele>
        <time>2015-02-01T10:10:50Z</time>
      </trkpt>
      <trkpt lat="49.85807" lon="5.37115">
        <ele>574</ele>
        <time>2015-02-01T10:10:56Z</time>
      </trkpt>
      <trkpt lat="49.85804" lon="5.37107">
        <ele>574</ele>
        <time>2015-02-01T10:11:01Z</time>
      </trkpt>
      <trkpt lat="49.85802" lon="5.37101">
        <ele>574</ele>
        <time>2015-02-01T10:11:06Z</time>
      </trkpt>
      <trkpt lat="49.85799" lon="5.37093">
        <ele>575</ele>
        <time>2015-02-01T10:11:12Z</time>
      </trkpt>
      <trkpt lat="49.85797" lon="5.37086">
        <ele>576</ele>
        <time>2015-02-01T10:11:17Z</time>
      </trkpt>
      <trkpt lat="49.85795" lon="5.37078">
        <ele>577</ele>
        <time>2015-02-01T10:11:23Z</time>
      </trkpt>
      <trkpt lat="49.85793" lon="5.3707">
        <ele>578</ele>
        <time>2015-02-01T10:11:28Z</time>
      </trkpt>
      <trkpt lat="49.85792" lon="5.37062">
        <ele>579</ele>
        <time>2015-02-01T10:11:33Z</time>
      </trkpt>
      <trkpt lat="49.85792" lon="5.37053">
        <ele>579</ele>
        <time>2015-02-01T10:11:38Z</time>
      </trkpt>
      <trkpt lat="49.85792" lon="5.37043">
        <ele>580</ele>
        <time>2015-02-01T10:11:44Z</time>
      </trkpt>
      <trkpt lat="49.85792" lon="5.37032">
        <ele>581</ele>
        <time>2015-02-01T10:11:50Z</time>
      </trkpt>
      <trkpt lat="49.85793" lon="5.3702">
        <ele>582</ele>
        <time>2015-02-01T10:11:56Z</time>
      </trkpt>
      <trkpt lat="49.85793" lon="5.3701">
        <ele>583</ele>
        <time>2015-02-01T10:12:01Z</time>
      </trkpt>
      <trkpt lat="49.85794" lon="5.36998">
        <ele>584</ele>
        <time>2015-02-01T10:12:06Z</time>
      </trkpt>
      <trkpt lat="49.85794" lon="5.36984">
        <ele>584</ele>
        <time>2015-02-01T10:12:12Z</time>
      </trkpt>
      <trkpt lat="49.85793" lon="5.36973">
        <ele>585</ele>
        <time>2015-02-01T10:12:17Z</time>
      </trkpt>
      <trkpt lat="49.85792" lon="5.36961">
        <ele>587</ele>
        <time>2015-02-01T10:12:23Z</time>
      </trkpt>
      <trkpt lat="49.8579" lon="5.36949">
        <ele>588</ele>
        <time>2015-02-01T10:12:28Z</time>
      </trkpt>
      <trkpt lat="49.85789" lon="5.36936">
        <ele>588</ele>
        <time>2015-02-01T10:12:34Z</time>
      </trkpt>
      <trkpt lat="49.85789" lon="5.36925">
        <ele>589</ele>
        <time>2015-02-01T10:12:40Z</time>
      </trkpt>
      <trkpt lat="49.85788" lon="5.36913">
        <ele>589</ele>
        <time>2015-02-01T10:12:45Z</time>
      </trkpt>
      <trkpt lat="49.85789" lon="5.36902">
        <ele>589</ele>
        <time>2015-02-01T10:12:50Z</time>
      </trkpt>
      <trkpt lat="49.85789" lon="5.36889">
        <ele>589</ele>
        <time>2015-02-01T10:12:55Z</time>
      </trkpt>
      <trkpt lat="49.85791" lon="5.36874">
        <ele>589</ele>
        <time>2015-02-01T10:13:01Z</time>
      </trkpt>
      <trkpt lat="49.85788" lon="5.36862">
        <ele>589</ele>
        <time>2015-02-01T10:13:06Z</time>
      </trkpt>
      <trkpt lat="49.85787" lon="5.3685">
        <ele>588</ele>
        <time>2015-02-01T10:13:11Z</time>
      </trkpt>
      <trkpt lat="49.85783" lon="5.36836">
        <ele>587</ele>
        <time>2015-02-01T10:13:17Z</time>
      </trkpt>
      <trkpt lat="49.85776" lon="5.36823">
        <ele>586</ele>
        <time>2015-02-01T10:13:23Z</time>
      </trkpt>
      <trkpt lat="49.8577" lon="5.36813">
        <ele>585</ele>
        <time>2015-02-01T10:13:28Z</time>
      </trkpt>
      <trkpt lat="49.85765" lon="5.36803">
        <ele>584</ele>
        <time>2015-02-01T10:13:34Z</time>
      </trkpt>
      <trkpt lat="49.85759" lon="5.36794">
        <ele>583</ele>
        <time>2015-02-01T10:13:40Z</time>
      </trkpt>
      <trkpt lat="49.85752" lon="5.36784">
        <ele>582</ele>
        <time>2015-02-01T10:13:46Z</time>
      </trkpt>
      <trkpt lat="49.85749" lon="5.36778">
        <ele>581</ele>
        <time>2015-02-01T10:13:51Z</time>
      </trkpt>
      <trkpt lat="49.85744" lon="5.36773">
        <ele>581</ele>
        <time>2015-02-01T10:13:56Z</time>
      </trkpt>
      <trkpt lat="49.85743" lon="5.36771">
        <ele>580</ele>
        <time>2015-02-01T10:14:02Z</time>
      </trkpt>
      <trkpt lat="49.85742" lon="5.3677">
        <ele>580</ele>
        <time>2015-02-01T10:14:07Z</time>
      </trkpt>
      <trkpt lat="49.8574" lon="5.36769">
        <ele>580</ele>
        <time>2015-02-01T10:14:13Z</time>
      </trkpt>
      <trkpt lat="49.8574" lon="5.36768">
        <ele>581</ele>
        <time>2015-02-01T10:14:19Z</time>
      </trkpt>
      <trkpt lat="49.85743" lon="5.36769">
        <ele>580</ele>
        <time>2015-02-01T10:14:25Z</time>
      </trkpt>
      <trkpt lat="49.85749" lon="5.36764">
        <ele>580</ele>
        <time>2015-02-01T10:14:30Z</time>
      </trkpt>
      <trkpt lat="49.85754" lon="5.36759">
        <ele>580</ele>
        <time>2015-02-01T10:14:35Z</time>
      </trkpt>
      <trkpt lat="49.8576" lon="5.36752">
        <ele>578</ele>
        <time>2015-02-01T10:14:41Z</time>
      </trkpt>
      <trkpt lat="49.85764" lon="5.36747">
        <ele>577</ele>
        <time>2015-02-01T10:14:46Z</time>
      </trkpt>
      <trkpt lat="49.85769" lon="5.36743">
        <ele>577</ele>
        <time>2015-02-01T10:14:51Z</time>
      </trkpt>
      <trkpt lat="49.85775" lon="5.36741">
        <ele>577</ele>
        <time>2015-02-01T10:14:56Z</time>
      </trkpt>
      <trkpt lat="49.85783" lon="5.36736">
        <ele>576</ele>
        <time>2015-02-01T10:15:02Z</time>
      </trkpt>
      <trkpt lat="49.8579" lon="5.36732">
        <ele>576</ele>
        <time>2015-02-01T10:15:07Z</time>
      </trkpt>
      <trkpt lat="49.85798" lon="5.36727">
        <ele>575</ele>
        <time>2015-02-01T10:15:12Z</time>
      </trkpt>
      <trkpt lat="49.85807" lon="5.36724">
        <ele>575</ele>
        <time>2015-02-01T10:15:18Z</time>
      </trkpt>
      <trkpt lat="49.85817" lon="5.36722">
        <ele>574</ele>
        <time>2015-02-01T10:15:24Z</time>
      </trkpt>
      <trkpt lat="49.85824" lon="5.36719">
        <ele>573</ele>
        <time>2015-02-01T10:15:29Z</time>
      </trkpt>
      <trkpt lat="49.85833" lon="5.36715">
        <ele>574</ele>
        <time>2015-02-01T10:15:35Z</time>
      </trkpt>
      <trkpt lat="49.85843" lon="5.36711">
        <ele>574</ele>
        <time>2015-02-01T10:15:41Z</time>
      </trkpt>
      <trkpt lat="49.85851" lon="5.36708">
        <ele>573</ele>
        <time>2015-02-01T10:15:47Z</time>
      </trkpt>
      <trkpt lat="49.85858" lon="5.36706">
        <ele>573</ele>
        <time>2015-02-01T10:15:52Z</time>
      </trkpt>
      <trkpt lat="49.85867" lon="5.36703">
        <ele>573</ele>
        <time>2015-02-01T10:15:58Z</time>
      </trkpt>
      <trkpt lat="49.85875" lon="5.367">
        <ele>573</ele>
        <time>2015-02-01T10:16:03Z</time>
      </trkpt>
      <trkpt lat="49.85883" lon="5.36693">
        <ele>572</ele>
        <time>2015-02-01T10:16:09Z</time>
      </trkpt>
      <trkpt lat="49.85889" lon="5.36687">
        <ele>572</ele>
        <time>2015-02-01T10:16:14Z</time>
      </trkpt>
      <trkpt lat="49.85896" lon="5.36679">
        <ele>572</ele>
        <time>2015-02-01T10:16:20Z</time>
      </trkpt>
      <trkpt lat="49.85902" lon="5.36676">
        <ele>572</ele>
        <time>2015-02-01T10:16:25Z</time>
      </trkpt>
      <trkpt lat="49.85906" lon="5.36673">
        <ele>571</ele>
        <time>2015-02-01T10:16:30Z</time>
      </trkpt>
      <trkpt lat="49.85912" lon="5.3667">
        <ele>572</ele>
        <time>2015-02-01T10:16:36Z</time>
      </trkpt>
      <trkpt lat="49.85919" lon="5.36668">
        <ele>571</ele>
        <time>2015-02-01T10:16:42Z</time>
      </trkpt>
      <trkpt lat="49.85925" lon="5.36664">
        <ele>570</ele>
        <time>2015-02-01T10:16:47Z</time>
      </trkpt>
      <trkpt lat="49.85931" lon="5.36661">
        <ele>570</ele>
        <time>2015-02-01T10:16:52Z</time>
      </trkpt>
      <trkpt lat="49.85938" lon="5.36657">
        <ele>570</ele>
        <time>2015-02-01T10:16:58Z</time>
      </trkpt>
      <trkpt lat="49.85945" lon="5.36653">
        <ele>569</ele>
        <time>2015-02-01T10:17:03Z</time>
      </trkpt>
      <trkpt lat="49.85952" lon="5.36647">
        <ele>569</ele>
        <time>2015-02-01T10:17:08Z</time>
      </trkpt>
      <trkpt lat="49.8596" lon="5.3664">
        <ele>569</ele>
        <time>2015-02-01T10:17:13Z</time>
      </trkpt>
      <trkpt lat="49.85966" lon="5.36627">
        <ele>569</ele>
        <time>2015-02-01T10:17:19Z</time>
      </trkpt>
      <trkpt lat="49.85972" lon="5.36614">
        <ele>569</ele>
        <time>2015-02-01T10:17:25Z</time>
      </trkpt>
      <trkpt lat="49.85977" lon="5.36602">
        <ele>569</ele>
        <time>2015-02-01T10:17:31Z</time>
      </trkpt>
      <trkpt lat="49.85981" lon="5.36593">
        <ele>569</ele>
        <time>2015-02-01T10:17:36Z</time>
      </trkpt>
      <trkpt lat="49.85985" lon="5.36584">
        <ele>568</ele>
        <time>2015-02-01T10:17:41Z</time>
      </trkpt>
      <trkpt lat="49.85989" lon="5.36577">
        <ele>568</ele>
        <time>2015-02-01T10:17:46Z</time>
      </trkpt>
      <trkpt lat="49.85992" lon="5.36573">
        <ele>568</ele>
        <time>2015-02-01T10:17:51Z</time>
      </trkpt>
      <trkpt lat="49.85994" lon="5.36572">
        <ele>567</ele>
        <time>2015-02-01T10:17:56Z</time>
      </trkpt>
      <trkpt lat="49.86" lon="5.36566">
        <ele>568</ele>
        <time>2015-02-01T10:18:02Z</time>
      </trkpt>
      <trkpt lat="49.86007" lon="5.36561">
        <ele>568</ele>
        <time>2015-02-01T10:18:08Z</time>
      </trkpt>
      <trkpt lat="49.86013" lon="5.36558">
        <ele>568</ele>
        <time>2015-02-01T10:18:14Z</time>
      </trkpt>
      <trkpt lat="49.86018" lon="5.36554">
        <ele>568</ele>
        <time>2015-02-01T10:18:19Z</time>
      </trkpt>
      <trkpt lat="49.86024" lon="5.3655">
        <ele>568</ele>
        <time>2015-02-01T10:18:25Z</time>
      </trkpt>
      <trkpt lat="49.86029" lon="5.36546">
        <ele>568</ele>
        <time>2015-02-01T10:18:30Z</time>
      </trkpt>
      <trkpt lat="49.86036" lon="5.36541">
        <ele>568</ele>
        <time>2015-02-01T10:18:36Z</time>
      </trkpt>
      <trkpt lat="49.86042" lon="5.36537">
        <ele>569</ele>
        <time>2015-02-01T10:18:42Z</time>
      </trkpt>
      <trkpt lat="49.86049" lon="5.36532">
        <ele>569</ele>
        <time>2015-02-01T10:18:48Z</time>
      </trkpt>
      <trkpt lat="49.86053" lon="5.36527">
        <ele>569</ele>
        <time>2015-02-01T10:18:54Z</time>
      </trkpt>
      <trkpt lat="49.8606" lon="5.36523">
        <ele>570</ele>
        <time>2015-02-01T10:19:00Z</time>
      </trkpt>
      <trkpt lat="49.86064" lon="5.3652">
        <ele>570</ele>
        <time>2015-02-01T10:19:05Z</time>
      </trkpt>
      <trkpt lat="49.86069" lon="5.36515">
        <ele>570</ele>
        <time>2015-02-01T10:19:11Z</time>
      </trkpt>
      <trkpt lat="49.86073" lon="5.36513">
        <ele>570</ele>
        <time>2015-02-01T10:19:16Z</time>
      </trkpt>
      <trkpt lat="49.86076" lon="5.36512">
        <ele>571</ele>
        <time>2015-02-01T10:19:22Z</time>
      </trkpt>
      <trkpt lat="49.86078" lon="5.36509">
        <ele>571</ele>
        <time>2015-02-01T10:19:27Z</time>
      </trkpt>
      <trkpt lat="49.86084" lon="5.36503">
        <ele>572</ele>
        <time>2015-02-01T10:19:33Z</time>
      </trkpt>
      <trkpt lat="49.86086" lon="5.365">
        <ele>571</ele>
        <time>2015-02-01T10:19:38Z</time>
      </trkpt>
      <trkpt lat="49.86091" lon="5.36495">
        <ele>572</ele>
        <time>2015-02-01T10:19:44Z</time>
      </trkpt>
      <trkpt lat="49.86094" lon="5.36491">
        <ele>572</ele>
        <time>2015-02-01T10:19:49Z</time>
      </trkpt>
      <trkpt lat="49.86096" lon="5.36489">
        <ele>572</ele>
        <time>2015-02-01T10:19:54Z</time>
      </trkpt>
      <trkpt lat="49.86097" lon="5.36488">
        <ele>572</ele>
        <time>2015-02-01T10:19:59Z</time>
      </trkpt>
      <trkpt lat="49.861" lon="5.36484">
        <ele>573</ele>
        <time>2015-02-01T10:20:05Z</time>
      </trkpt>
      <trkpt lat="49.86102" lon="5.36482">
        <ele>573</ele>
        <time>2015-02-01T10:20:11Z</time>
      </trkpt>
      <trkpt lat="49.86103" lon="5.36482">
        <ele>573</ele>
        <time>2015-02-01T10:20:16Z</time>
      </trkpt>
      <trkpt lat="49.86105" lon="5.36481">
        <ele>572</ele>
        <time>2015-02-01T10:20:21Z</time>
      </trkpt>
      <trkpt lat="49.86109" lon="5.36477">
        <ele>573</ele>
        <time>2015-02-01T10:20:27Z</time>
      </trkpt>
      <trkpt lat="49.86114" lon="5.36473">
        <ele>574</ele>
        <time>2015-02-01T10:20:32Z</time>
      </trkpt>
      <trkpt lat="49.86118" lon="5.3647">
        <ele>573</ele>
        <time>2015-02-01T10:20:37Z</time>
      </trkpt>
      <trkpt lat="49.86121" lon="5.36467">
        <ele>574</ele>
        <time>2015-02-01T10:20:43Z</time>
      </trkpt>
      <trkpt lat="49.86126" lon="5.36465">
        <ele>574</ele>
        <time>2015-02-01T10:20:48Z</time>
      </trkpt>
      <trkpt lat="49.86131" lon="5.3646">
        <ele>575</ele>
        <time>2015-02-01T10:20:53Z</time>
      </trkpt>
      <trkpt lat="49.86137" lon="5.36452">
        <ele>576</ele>
        <time>2015-02-01T10:20:59Z</time>
      </trkpt>
      <trkpt lat="49.86143" lon="5.36447">
        <ele>576</ele>
        <time>2015-02-01T10:21:04Z</time>
      </trkpt>
      <trkpt lat="49.8615" lon="5.36441">
        <ele>576</ele>
        <time>2015-02-01T10:21:10Z</time>
      </trkpt>
      <trkpt lat="49.86155" lon="5.36438">
        <ele>577</ele>
        <time>2015-02-01T10:21:15Z</time>
      </trkpt>
      <trkpt lat="49.86161" lon="5.36432">
        <ele>578</ele>
        <time>2015-02-01T10:21:21Z</time>
      </trkpt>
      <trkpt lat="49.86167" lon="5.36427">
        <ele>578</ele>
        <time>2015-02-01T10:21:26Z</time>
      </trkpt>
      <trkpt lat="49.86172" lon="5.36421">
        <ele>578</ele>
        <time>2015-02-01T10:21:31Z</time>
      </trkpt>
      <trkpt lat="49.86179" lon="5.36415">
        <ele>578</ele>
        <time>2015-02-01T10:21:37Z</time>
      </trkpt>
      <trkpt lat="49.86181" lon="5.36415">
        <ele>579</ele>
        <time>2015-02-01T10:21:42Z</time>
      </trkpt>
      <trkpt lat="49.86181" lon="5.36415">
        <ele>579</ele>
        <time>2015-02-01T10:21:48Z</time>
      </trkpt>
      <trkpt lat="49.8618" lon="5.36415">
        <ele>578</ele>
        <time>2015-02-01T10:21:53Z</time>
      </trkpt>
      <trkpt lat="49.8618" lon="5.36415">
        <ele>578</ele>
        <time>2015-02-01T10:22:01Z</time>
      </trkpt>
      <trkpt lat="49.8618" lon="5.36415">
        <ele>578</ele>
        <time>2015-02-01T10:22:06Z</time>
      </trkpt>
      <trkpt lat="49.86179" lon="5.36416">
        <ele>579</ele>
        <time>2015-02-01T10:22:12Z</time>
      </trkpt>
      <trkpt lat="49.86179" lon="5.36416">
        <ele>578</ele>
        <time>2015-02-01T10:22:17Z</time>
      </trkpt>
      <trkpt lat="49.86179" lon="5.36415">
        <ele>578</ele>
        <time>2015-02-01T10:22:23Z</time>
      </trkpt>
      <trkpt lat="49.86179" lon="5.36415">
        <ele>579</ele>
        <time>2015-02-01T10:22:28Z</time>
      </trkpt>
      <trkpt lat="49.86179" lon="5.36414">
        <ele>578</ele>
        <time>2015-02-01T10:22:34Z</time>
      </trkpt>
      <trkpt lat="49.86179" lon="5.36414">
        <ele>578</ele>
        <time>2015-02-01T10:22:41Z</time>
      </trkpt>
      <trkpt lat="49.86179" lon="5.36414">
        <ele>578</ele>
        <time>2015-02-01T10:22:49Z</time>
      </trkpt>
      <trkpt lat="49.86179" lon="5.36414">
        <ele>578</ele>
        <time>2015-02-01T10:22:54Z</time>
      </trkpt>
      <trkpt lat="49.86178" lon="5.36414">
        <ele>579</ele>
        <time>2015-02-01T10:23:09Z</time>
      </trkpt>
      <trkpt lat="49.86178" lon="5.36414">
        <ele>579</ele>
        <time>2015-02-01T10:23:17Z</time>
      </trkpt>
      <trkpt lat="49.86178" lon="5.36415">
        <ele>579</ele>
        <time>2015-02-01T10:23:22Z</time>
      </trkpt>
      <trkpt lat="49.86178" lon="5.36414">
        <ele>578</ele>
        <time>2015-02-01T10:23:29Z</time>
      </trkpt>
      <trkpt lat="49.86178" lon="5.36414">
        <ele>578</ele>
        <time>2015-02-01T10:23:35Z</time>
      </trkpt>
      <trkpt lat="49.86178" lon="5.36414">
        <ele>578</ele>
        <time>2015-02-01T10:23:41Z</time>
      </trkpt>
      <trkpt lat="49.86178" lon="5.36414">
        <ele>578</ele>
        <time>2015-02-01T10:23:47Z</time>
      </trkpt>
      <trkpt lat="49.86178" lon="5.36414">
        <ele>578</ele>
        <time>2015-02-01T10:23:53Z</time>
      </trkpt>
      <trkpt lat="49.8618" lon="5.36412">
        <ele>579</ele>
        <time>2015-02-01T10:23:58Z</time>
      </trkpt>
      <trkpt lat="49.86185" lon="5.36406">
        <ele>579</ele>
        <time>2015-02-01T10:24:04Z</time>
      </trkpt>
      <trkpt lat="49.86188" lon="5.36401">
        <ele>579</ele>
        <time>2015-02-01T10:24:09Z</time>
      </trkpt>
      <trkpt lat="49.86192" lon="5.36396">
        <ele>579</ele>
        <time>2015-02-01T10:24:14Z</time>
      </trkpt>
      <trkpt lat="49.86197" lon="5.3639">
        <ele>579</ele>
        <time>2015-02-01T10:24:19Z</time>
      </trkpt>
      <trkpt lat="49.86203" lon="5.36384">
        <ele>579</ele>
        <time>2015-02-01T10:24:24Z</time>
      </trkpt>
      <trkpt lat="49.86209" lon="5.36378">
        <ele>579</ele>
        <time>2015-02-01T10:24:29Z</time>
      </trkpt>
      <trkpt lat="49.86215" lon="5.36373">
        <ele>579</ele>
        <time>2015-02-01T10:24:34Z</time>
      </trkpt>
      <trkpt lat="49.86222" lon="5.36366">
        <ele>580</ele>
        <time>2015-02-01T10:24:40Z</time>
      </trkpt>
      <trkpt lat="49.86228" lon="5.36362">
        <ele>580</ele>
        <time>2015-02-01T10:24:45Z</time>
      </trkpt>
      <trkpt lat="49.86234" lon="5.36355">
        <ele>580</ele>
        <time>2015-02-01T10:24:51Z</time>
      </trkpt>
      <trkpt lat="49.8624" lon="5.36349">
        <ele>581</ele>
        <time>2015-02-01T10:24:56Z</time>
      </trkpt>
      <trkpt lat="49.86247" lon="5.36342">
        <ele>581</ele>
        <time>2015-02-01T10:25:02Z</time>
      </trkpt>
      <trkpt lat="49.86253" lon="5.36335">
        <ele>581</ele>
        <time>2015-02-01T10:25:08Z</time>
      </trkpt>
      <trkpt lat="49.8626" lon="5.36328">
        <ele>581</ele>
        <time>2015-02-01T10:25:14Z</time>
      </trkpt>
      <trkpt lat="49.86265" lon="5.36322">
        <ele>581</ele>
        <time>2015-02-01T10:25:19Z</time>
      </trkpt>
      <trkpt lat="49.86269" lon="5.36318">
        <ele>581</ele>
        <time>2015-02-01T10:25:24Z</time>
      </trkpt>
      <trkpt lat="49.86269" lon="5.36318">
        <ele>581</ele>
        <time>2015-02-01T10:25:30Z</time>
      </trkpt>
      <trkpt lat="49.86274" lon="5.36314">
        <ele>581</ele>
        <time>2015-02-01T10:25:36Z</time>
      </trkpt>
      <trkpt lat="49.86279" lon="5.36308">
        <ele>582</ele>
        <time>2015-02-01T10:25:41Z</time>
      </trkpt>
      <trkpt lat="49.86285" lon="5.36302">
        <ele>582</ele>
        <time>2015-02-01T10:25:47Z</time>
      </trkpt>
      <trkpt lat="49.8629" lon="5.36296">
        <ele>581</ele>
        <time>2015-02-01T10:25:52Z</time>
      </trkpt>
      <trkpt lat="49.86296" lon="5.36289">
        <ele>581</ele>
        <time>2015-02-01T10:25:58Z</time>
      </trkpt>
      <trkpt lat="49.86301" lon="5.36283">
        <ele>582</ele>
        <time>2015-02-01T10:26:03Z</time>
      </trkpt>
      <trkpt lat="49.86306" lon="5.36277">
        <ele>582</ele>
        <time>2015-02-01T10:26:08Z</time>
      </trkpt>
      <trkpt lat="49.86311" lon="5.36272">
        <ele>582</ele>
        <time>2015-02-01T10:26:16Z</time>
      </trkpt>
      <trkpt lat="49.86312" lon="5.36271">
        <ele>582</ele>
        <time>2015-02-01T10:26:22Z</time>
      </trkpt>
      <trkpt lat="49.86315" lon="5.36267">
        <ele>582</ele>
        <time>2015-02-01T10:26:27Z</time>
      </trkpt>
      <trkpt lat="49.86318" lon="5.36264">
        <ele>582</ele>
        <time>2015-02-01T10:26:33Z</time>
      </trkpt>
      <trkpt lat="49.86319" lon="5.36263">
        <ele>582</ele>
        <time>2015-02-01T10:26:39Z</time>
      </trkpt>
      <trkpt lat="49.8632" lon="5.36263">
        <ele>582</ele>
        <time>2015-02-01T10:26:44Z</time>
      </trkpt>
      <trkpt lat="49.86319" lon="5.36264">
        <ele>582</ele>
        <time>2015-02-01T10:26:49Z</time>
      </trkpt>
      <trkpt lat="49.86319" lon="5.36263">
        <ele>583</ele>
        <time>2015-02-01T10:26:59Z</time>
      </trkpt>
      <trkpt lat="49.86319" lon="5.36263">
        <ele>583</ele>
        <time>2015-02-01T10:27:04Z</time>
      </trkpt>
      <trkpt lat="49.86319" lon="5.36263">
        <ele>582</ele>
        <time>2015-02-01T10:27:10Z</time>
      </trkpt>
      <trkpt lat="49.86319" lon="5.36263">
        <ele>582</ele>
        <time>2015-02-01T10:27:16Z</time>
      </trkpt>
      <trkpt lat="49.86319" lon="5.36263">
        <ele>582</ele>
        <time>2015-02-01T10:27:22Z</time>
      </trkpt>
      <trkpt lat="49.86319" lon="5.36264">
        <ele>582</ele>
        <time>2015-02-01T10:27:28Z</time>
      </trkpt>
      <trkpt lat="49.86319" lon="5.36263">
        <ele>582</ele>
        <time>2015-02-01T10:27:34Z</time>
      </trkpt>
      <trkpt lat="49.86325" lon="5.36256">
        <ele>582</ele>
        <time>2015-02-01T10:27:40Z</time>
      </trkpt>
      <trkpt lat="49.86329" lon="5.36252">
        <ele>582</ele>
        <time>2015-02-01T10:27:45Z</time>
      </trkpt>
      <trkpt lat="49.86334" lon="5.36247">
        <ele>582</ele>
        <time>2015-02-01T10:27:51Z</time>
      </trkpt>
      <trkpt lat="49.86338" lon="5.36244">
        <ele>583</ele>
        <time>2015-02-01T10:27:57Z</time>
      </trkpt>
      <trkpt lat="49.86344" lon="5.36238">
        <ele>583</ele>
        <time>2015-02-01T10:28:03Z</time>
      </trkpt>
      <trkpt lat="49.86348" lon="5.36234">
        <ele>583</ele>
        <time>2015-02-01T10:28:08Z</time>
      </trkpt>
      <trkpt lat="49.86353" lon="5.36229">
        <ele>583</ele>
        <time>2015-02-01T10:28:14Z</time>
      </trkpt>
      <trkpt lat="49.86358" lon="5.36224">
        <ele>583</ele>
        <time>2015-02-01T10:28:19Z</time>
      </trkpt>
      <trkpt lat="49.86364" lon="5.36218">
        <ele>583</ele>
        <time>2015-02-01T10:28:25Z</time>
      </trkpt>
      <trkpt lat="49.86368" lon="5.36213">
        <ele>584</ele>
        <time>2015-02-01T10:28:30Z</time>
      </trkpt>
      <trkpt lat="49.86373" lon="5.36207">
        <ele>584</ele>
        <time>2015-02-01T10:28:36Z</time>
      </trkpt>
      <trkpt lat="49.86378" lon="5.36203">
        <ele>584</ele>
        <time>2015-02-01T10:28:42Z</time>
      </trkpt>
      <trkpt lat="49.86382" lon="5.362">
        <ele>585</ele>
        <time>2015-02-01T10:28:48Z</time>
      </trkpt>
      <trkpt lat="49.86387" lon="5.36195">
        <ele>585</ele>
        <time>2015-02-01T10:28:54Z</time>
      </trkpt>
      <trkpt lat="49.86393" lon="5.36188">
        <ele>585</ele>
        <time>2015-02-01T10:29:00Z</time>
      </trkpt>
      <trkpt lat="49.86396" lon="5.36183">
        <ele>586</ele>
        <time>2015-02-01T10:29:05Z</time>
      </trkpt>
      <trkpt lat="49.86401" lon="5.36177">
        <ele>586</ele>
        <time>2015-02-01T10:29:10Z</time>
      </trkpt>
      <trkpt lat="49.86405" lon="5.36171">
        <ele>585</ele>
        <time>2015-02-01T10:29:15Z</time>
      </trkpt>
      <trkpt lat="49.86409" lon="5.36166">
        <ele>585</ele>
        <time>2015-02-01T10:29:20Z</time>
      </trkpt>
      <trkpt lat="49.86413" lon="5.36161">
        <ele>585</ele>
        <time>2015-02-01T10:29:25Z</time>
      </trkpt>
      <trkpt lat="49.86419" lon="5.36154">
        <ele>585</ele>
        <time>2015-02-01T10:29:31Z</time>
      </trkpt>
      <trkpt lat="49.86424" lon="5.36146">
        <ele>584</ele>
        <time>2015-02-01T10:29:37Z</time>
      </trkpt>
      <trkpt lat="49.86429" lon="5.36139">
        <ele>584</ele>
        <time>2015-02-01T10:29:43Z</time>
      </trkpt>
      <trkpt lat="49.86433" lon="5.36132">
        <ele>584</ele>
        <time>2015-02-01T10:29:48Z</time>
      </trkpt>
      <trkpt lat="49.86438" lon="5.36126">
        <ele>584</ele>
        <time>2015-02-01T10:29:53Z</time>
      </trkpt>
      <trkpt lat="49.86442" lon="5.36122">
        <ele>584</ele>
        <time>2015-02-01T10:29:59Z</time>
      </trkpt>
      <trkpt lat="49.86443" lon="5.36121">
        <ele>584</ele>
        <time>2015-02-01T10:30:04Z</time>
      </trkpt>
      <trkpt lat="49.86443" lon="5.3612">
        <ele>584</ele>
        <time>2015-02-01T10:30:10Z</time>
      </trkpt>
      <trkpt lat="49.86447" lon="5.36115">
        <ele>584</ele>
        <time>2015-02-01T10:30:15Z</time>
      </trkpt>
      <trkpt lat="49.8645" lon="5.36112">
        <ele>584</ele>
        <time>2015-02-01T10:30:20Z</time>
      </trkpt>
      <trkpt lat="49.86451" lon="5.36112">
        <ele>584</ele>
        <time>2015-02-01T10:30:26Z</time>
      </trkpt>
      <trkpt lat="49.86451" lon="5.36112">
        <ele>583</ele>
        <time>2015-02-01T10:30:32Z</time>
      </trkpt>
      <trkpt lat="49.86451" lon="5.36109">
        <ele>584</ele>
        <time>2015-02-01T10:30:37Z</time>
      </trkpt>
      <trkpt lat="49.86456" lon="5.36103">
        <ele>584</ele>
        <time>2015-02-01T10:30:43Z</time>
      </trkpt>
      <trkpt lat="49.8646" lon="5.36097">
        <ele>583</ele>
        <time>2015-02-01T10:30:48Z</time>
      </trkpt>
      <trkpt lat="49.86465" lon="5.36091">
        <ele>584</ele>
        <time>2015-02-01T10:30:54Z</time>
      </trkpt>
      <trkpt lat="49.8647" lon="5.36085">
        <ele>584</ele>
        <time>2015-02-01T10:30:59Z</time>
      </trkpt>
      <trkpt lat="49.86475" lon="5.36078">
        <ele>584</ele>
        <time>2015-02-01T10:31:05Z</time>
      </trkpt>
      <trkpt lat="49.8648" lon="5.36072">
        <ele>583</ele>
        <time>2015-02-01T10:31:10Z</time>
      </trkpt>
      <trkpt lat="49.86485" lon="5.36066">
        <ele>583</ele>
        <time>2015-02-01T10:31:15Z</time>
      </trkpt>
      <trkpt lat="49.8649" lon="5.36061">
        <ele>583</ele>
        <time>2015-02-01T10:31:20Z</time>
      </trkpt>
      <trkpt lat="49.86495" lon="5.36056">
        <ele>583</ele>
        <time>2015-02-01T10:31:25Z</time>
      </trkpt>
      <trkpt lat="49.865" lon="5.36052">
        <ele>583</ele>
        <time>2015-02-01T10:31:30Z</time>
      </trkpt>
      <trkpt lat="49.86506" lon="5.36046">
        <ele>583</ele>
        <time>2015-02-01T10:31:35Z</time>
      </trkpt>
      <trkpt lat="49.8651" lon="5.36042">
        <ele>583</ele>
        <time>2015-02-01T10:31:40Z</time>
      </trkpt>
      <trkpt lat="49.86515" lon="5.36037">
        <ele>583</ele>
        <time>2015-02-01T10:31:45Z</time>
      </trkpt>
      <trkpt lat="49.86521" lon="5.36032">
        <ele>583</ele>
        <time>2015-02-01T10:31:50Z</time>
      </trkpt>
      <trkpt lat="49.86526" lon="5.36028">
        <ele>583</ele>
        <time>2015-02-01T10:31:55Z</time>
      </trkpt>
      <trkpt lat="49.86531" lon="5.36024">
        <ele>583</ele>
        <time>2015-02-01T10:32:00Z</time>
      </trkpt>
      <trkpt lat="49.86536" lon="5.3602">
        <ele>583</ele>
        <time>2015-02-01T10:32:05Z</time>
      </trkpt>
      <trkpt lat="49.86543" lon="5.36015">
        <ele>583</ele>
        <time>2015-02-01T10:32:11Z</time>
      </trkpt>
      <trkpt lat="49.86548" lon="5.36011">
        <ele>583</ele>
        <time>2015-02-01T10:32:16Z</time>
      </trkpt>
      <trkpt lat="49.86554" lon="5.36005">
        <ele>584</ele>
        <time>2015-02-01T10:32:22Z</time>
      </trkpt>
      <trkpt lat="49.8656" lon="5.36">
        <ele>583</ele>
        <time>2015-02-01T10:32:27Z</time>
      </trkpt>
      <trkpt lat="49.86566" lon="5.35995">
        <ele>583</ele>
        <time>2015-02-01T10:32:33Z</time>
      </trkpt>
      <trkpt lat="49.86571" lon="5.35991">
        <ele>583</ele>
        <time>2015-02-01T10:32:38Z</time>
      </trkpt>
      <trkpt lat="49.86577" lon="5.35985">
        <ele>583</ele>
        <time>2015-02-01T10:32:44Z</time>
      </trkpt>
      <trkpt lat="49.86583" lon="5.35981">
        <ele>584</ele>
        <time>2015-02-01T10:32:49Z</time>
      </trkpt>
      <trkpt lat="49.86588" lon="5.35976">
        <ele>584</ele>
        <time>2015-02-01T10:32:54Z</time>
      </trkpt>
      <trkpt lat="49.86592" lon="5.35969">
        <ele>583</ele>
        <time>2015-02-01T10:32:59Z</time>
      </trkpt>
      <trkpt lat="49.86597" lon="5.35962">
        <ele>583</ele>
        <time>2015-02-01T10:33:05Z</time>
      </trkpt>
      <trkpt lat="49.86598" lon="5.35961">
        <ele>583</ele>
        <time>2015-02-01T10:33:10Z</time>
      </trkpt>
      <trkpt lat="49.86598" lon="5.35961">
        <ele>583</ele>
        <time>2015-02-01T10:33:15Z</time>
      </trkpt>
      <trkpt lat="49.86598" lon="5.3596">
        <ele>583</ele>
        <time>2015-02-01T10:33:24Z</time>
      </trkpt>
      <trkpt lat="49.86598" lon="5.3596">
        <ele>583</ele>
        <time>2015-02-01T10:33:31Z</time>
      </trkpt>
      <trkpt lat="49.86597" lon="5.3596">
        <ele>583</ele>
        <time>2015-02-01T10:33:36Z</time>
      </trkpt>
      <trkpt lat="49.86597" lon="5.3596">
        <ele>583</ele>
        <time>2015-02-01T10:33:42Z</time>
      </trkpt>
      <trkpt lat="49.86597" lon="5.3596">
        <ele>583</ele>
        <time>2015-02-01T10:33:47Z</time>
      </trkpt>
      <trkpt lat="49.86596" lon="5.35961">
        <ele>583</ele>
        <time>2015-02-01T10:33:52Z</time>
      </trkpt>
      <trkpt lat="49.86596" lon="5.35962">
        <ele>583</ele>
        <time>2015-02-01T10:33:58Z</time>
      </trkpt>
      <trkpt lat="49.866" lon="5.35957">
        <ele>583</ele>
        <time>2015-02-01T10:34:03Z</time>
      </trkpt>
      <trkpt lat="49.86606" lon="5.3595">
        <ele>583</ele>
        <time>2015-02-01T10:34:09Z</time>
      </trkpt>
      <trkpt lat="49.86613" lon="5.35942">
        <ele>583</ele>
        <time>2015-02-01T10:34:15Z</time>
      </trkpt>
      <trkpt lat="49.86618" lon="5.35936">
        <ele>583</ele>
        <time>2015-02-01T10:34:20Z</time>
      </trkpt>
      <trkpt lat="49.86623" lon="5.35929">
        <ele>582</ele>
        <time>2015-02-01T10:34:25Z</time>
      </trkpt>
      <trkpt lat="49.86628" lon="5.35923">
        <ele>583</ele>
        <time>2015-02-01T10:34:30Z</time>
      </trkpt>
      <trkpt lat="49.86634" lon="5.35916">
        <ele>583</ele>
        <time>2015-02-01T10:34:35Z</time>
      </trkpt>
      <trkpt lat="49.86639" lon="5.35911">
        <ele>583</ele>
        <time>2015-02-01T10:34:40Z</time>
      </trkpt>
      <trkpt lat="49.86644" lon="5.35904">
        <ele>583</ele>
        <time>2015-02-01T10:34:46Z</time>
      </trkpt>
      <trkpt lat="49.8665" lon="5.35897">
        <ele>583</ele>
        <time>2015-02-01T10:34:51Z</time>
      </trkpt>
      <trkpt lat="49.86655" lon="5.3589">
        <ele>583</ele>
        <time>2015-02-01T10:34:56Z</time>
      </trkpt>
      <trkpt lat="49.8666" lon="5.35884">
        <ele>583</ele>
        <time>2015-02-01T10:35:01Z</time>
      </trkpt>
      <trkpt lat="49.86666" lon="5.35876">
        <ele>583</ele>
        <time>2015-02-01T10:35:07Z</time>
      </trkpt>
      <trkpt lat="49.86671" lon="5.35868">
        <ele>583</ele>
        <time>2015-02-01T10:35:13Z</time>
      </trkpt>
      <trkpt lat="49.86674" lon="5.3586">
        <ele>583</ele>
        <time>2015-02-01T10:35:18Z</time>
      </trkpt>
      <trkpt lat="49.86677" lon="5.35854">
        <ele>583</ele>
        <time>2015-02-01T10:35:24Z</time>
      </trkpt>
      <trkpt lat="49.86679" lon="5.35848">
        <ele>584</ele>
        <time>2015-02-01T10:35:29Z</time>
      </trkpt>
      <trkpt lat="49.86684" lon="5.35839">
        <ele>584</ele>
        <time>2015-02-01T10:35:35Z</time>
      </trkpt>
      <trkpt lat="49.86687" lon="5.35831">
        <ele>584</ele>
        <time>2015-02-01T10:35:40Z</time>
      </trkpt>
      <trkpt lat="49.8669" lon="5.35823">
        <ele>584</ele>
        <time>2015-02-01T10:35:45Z</time>
      </trkpt>
      <trkpt lat="49.86694" lon="5.35816">
        <ele>584</ele>
        <time>2015-02-01T10:35:50Z</time>
      </trkpt>
      <trkpt lat="49.86698" lon="5.35808">
        <ele>584</ele>
        <time>2015-02-01T10:35:55Z</time>
      </trkpt>
      <trkpt lat="49.86702" lon="5.35799">
        <ele>584</ele>
        <time>2015-02-01T10:36:01Z</time>
      </trkpt>
      <trkpt lat="49.86707" lon="5.35791">
        <ele>584</ele>
        <time>2015-02-01T10:36:06Z</time>
      </trkpt>
      <trkpt lat="49.86711" lon="5.3578">
        <ele>584</ele>
        <time>2015-02-01T10:36:12Z</time>
      </trkpt>
      <trkpt lat="49.86715" lon="5.35772">
        <ele>585</ele>
        <time>2015-02-01T10:36:17Z</time>
      </trkpt>
      <trkpt lat="49.86718" lon="5.35761">
        <ele>584</ele>
        <time>2015-02-01T10:36:23Z</time>
      </trkpt>
      <trkpt lat="49.86721" lon="5.35753">
        <ele>584</ele>
        <time>2015-02-01T10:36:28Z</time>
      </trkpt>
      <trkpt lat="49.86726" lon="5.35743">
        <ele>584</ele>
        <time>2015-02-01T10:36:34Z</time>
      </trkpt>
      <trkpt lat="49.86729" lon="5.35736">
        <ele>583</ele>
        <time>2015-02-01T10:36:39Z</time>
      </trkpt>
      <trkpt lat="49.86733" lon="5.35729">
        <ele>583</ele>
        <time>2015-02-01T10:36:44Z</time>
      </trkpt>
      <trkpt lat="49.86737" lon="5.35721">
        <ele>583</ele>
        <time>2015-02-01T10:36:50Z</time>
      </trkpt>
      <trkpt lat="49.86741" lon="5.35715">
        <ele>583</ele>
        <time>2015-02-01T10:36:56Z</time>
      </trkpt>
      <trkpt lat="49.86742" lon="5.35712">
        <ele>582</ele>
        <time>2015-02-01T10:37:02Z</time>
      </trkpt>
      <trkpt lat="49.86745" lon="5.35704">
        <ele>582</ele>
        <time>2015-02-01T10:37:08Z</time>
      </trkpt>
      <trkpt lat="49.8675" lon="5.35696">
        <ele>583</ele>
        <time>2015-02-01T10:37:14Z</time>
      </trkpt>
      <trkpt lat="49.86752" lon="5.3569">
        <ele>583</ele>
        <time>2015-02-01T10:37:19Z</time>
      </trkpt>
      <trkpt lat="49.86755" lon="5.35683">
        <ele>583</ele>
        <time>2015-02-01T10:37:24Z</time>
      </trkpt>
      <trkpt lat="49.86758" lon="5.35677">
        <ele>583</ele>
        <time>2015-02-01T10:37:29Z</time>
      </trkpt>
      <trkpt lat="49.86762" lon="5.3567">
        <ele>582</ele>
        <time>2015-02-01T10:37:34Z</time>
      </trkpt>
      <trkpt lat="49.86765" lon="5.35663">
        <ele>583</ele>
        <time>2015-02-01T10:37:39Z</time>
      </trkpt>
      <trkpt lat="49.8677" lon="5.35655">
        <ele>583</ele>
        <time>2015-02-01T10:37:45Z</time>
      </trkpt>
      <trkpt lat="49.86773" lon="5.35649">
        <ele>584</ele>
        <time>2015-02-01T10:37:50Z</time>
      </trkpt>
      <trkpt lat="49.86777" lon="5.35641">
        <ele>585</ele>
        <time>2015-02-01T10:37:55Z</time>
      </trkpt>
      <trkpt lat="49.86782" lon="5.35634">
        <ele>584</ele>
        <time>2015-02-01T10:38:01Z</time>
      </trkpt>
      <trkpt lat="49.86786" lon="5.35625">
        <ele>584</ele>
        <time>2015-02-01T10:38:07Z</time>
      </trkpt>
      <trkpt lat="49.8679" lon="5.35617">
        <ele>584</ele>
        <time>2015-02-01T10:38:13Z</time>
      </trkpt>
      <trkpt lat="49.86794" lon="5.3561">
        <ele>585</ele>
        <time>2015-02-01T10:38:18Z</time>
      </trkpt>
      <trkpt lat="49.86797" lon="5.35603">
        <ele>585</ele>
        <time>2015-02-01T10:38:23Z</time>
      </trkpt>
      <trkpt lat="49.86799" lon="5.35596">
        <ele>586</ele>
        <time>2015-02-01T10:38:28Z</time>
      </trkpt>
      <trkpt lat="49.86802" lon="5.35589">
        <ele>586</ele>
        <time>2015-02-01T10:38:33Z</time>
      </trkpt>
      <trkpt lat="49.86806" lon="5.35581">
        <ele>587</ele>
        <time>2015-02-01T10:38:38Z</time>
      </trkpt>
      <trkpt lat="49.8681" lon="5.35574">
        <ele>587</ele>
        <time>2015-02-01T10:38:44Z</time>
      </trkpt>
      <trkpt lat="49.86815" lon="5.35565">
        <ele>586</ele>
        <time>2015-02-01T10:38:50Z</time>
      </trkpt>
      <trkpt lat="49.86819" lon="5.35558">
        <ele>586</ele>
        <time>2015-02-01T10:38:55Z</time>
      </trkpt>
      <trkpt lat="49.86821" lon="5.35552">
        <ele>587</ele>
        <time>2015-02-01T10:39:00Z</time>
      </trkpt>
      <trkpt lat="49.86822" lon="5.35551">
        <ele>587</ele>
        <time>2015-02-01T10:39:05Z</time>
      </trkpt>
      <trkpt lat="49.86825" lon="5.35544">
        <ele>586</ele>
        <time>2015-02-01T10:39:11Z</time>
      </trkpt>
      <trkpt lat="49.86829" lon="5.35536">
        <ele>586</ele>
        <time>2015-02-01T10:39:17Z</time>
      </trkpt>
      <trkpt lat="49.86832" lon="5.35527">
        <ele>586</ele>
        <time>2015-02-01T10:39:23Z</time>
      </trkpt>
      <trkpt lat="49.86836" lon="5.35518">
        <ele>586</ele>
        <time>2015-02-01T10:39:28Z</time>
      </trkpt>
      <trkpt lat="49.8684" lon="5.35508">
        <ele>585</ele>
        <time>2015-02-01T10:39:34Z</time>
      </trkpt>
      <trkpt lat="49.86843" lon="5.35497">
        <ele>585</ele>
        <time>2015-02-01T10:39:40Z</time>
      </trkpt>
      <trkpt lat="49.86845" lon="5.35487">
        <ele>584</ele>
        <time>2015-02-01T10:39:46Z</time>
      </trkpt>
      <trkpt lat="49.86847" lon="5.35484">
        <ele>584</ele>
        <time>2015-02-01T10:39:51Z</time>
      </trkpt>
      <trkpt lat="49.86848" lon="5.35482">
        <ele>585</ele>
        <time>2015-02-01T10:39:58Z</time>
      </trkpt>
      <trkpt lat="49.86849" lon="5.35477">
        <ele>585</ele>
        <time>2015-02-01T10:40:03Z</time>
      </trkpt>
      <trkpt lat="49.8685" lon="5.35469">
        <ele>585</ele>
        <time>2015-02-01T10:40:09Z</time>
      </trkpt>
      <trkpt lat="49.86852" lon="5.35462">
        <ele>585</ele>
        <time>2015-02-01T10:40:14Z</time>
      </trkpt>
      <trkpt lat="49.86853" lon="5.35455">
        <ele>585</ele>
        <time>2015-02-01T10:40:21Z</time>
      </trkpt>
      <trkpt lat="49.86853" lon="5.35454">
        <ele>584</ele>
        <time>2015-02-01T10:40:26Z</time>
      </trkpt>
      <trkpt lat="49.86853" lon="5.35455">
        <ele>584</ele>
        <time>2015-02-01T10:40:31Z</time>
      </trkpt>
      <trkpt lat="49.86853" lon="5.35457">
        <ele>583</ele>
        <time>2015-02-01T10:40:37Z</time>
      </trkpt>
      <trkpt lat="49.86852" lon="5.35458">
        <ele>584</ele>
        <time>2015-02-01T10:40:43Z</time>
      </trkpt>
      <trkpt lat="49.86852" lon="5.35459">
        <ele>584</ele>
        <time>2015-02-01T10:40:49Z</time>
      </trkpt>
      <trkpt lat="49.86852" lon="5.35461">
        <ele>583</ele>
        <time>2015-02-01T10:40:54Z</time>
      </trkpt>
      <trkpt lat="49.86852" lon="5.35463">
        <ele>584</ele>
        <time>2015-02-01T10:41:00Z</time>
      </trkpt>
      <trkpt lat="49.86852" lon="5.35464">
        <ele>585</ele>
        <time>2015-02-01T10:41:06Z</time>
      </trkpt>
      <trkpt lat="49.86852" lon="5.35463">
        <ele>585</ele>
        <time>2015-02-01T10:41:11Z</time>
      </trkpt>
      <trkpt lat="49.86852" lon="5.35461">
        <ele>585</ele>
        <time>2015-02-01T10:41:16Z</time>
      </trkpt>
      <trkpt lat="49.86853" lon="5.3546">
        <ele>585</ele>
        <time>2015-02-01T10:41:21Z</time>
      </trkpt>
      <trkpt lat="49.86853" lon="5.35458">
        <ele>584</ele>
        <time>2015-02-01T10:41:27Z</time>
      </trkpt>
      <trkpt lat="49.86853" lon="5.35456">
        <ele>584</ele>
        <time>2015-02-01T10:41:32Z</time>
      </trkpt>
      <trkpt lat="49.86853" lon="5.35455">
        <ele>584</ele>
        <time>2015-02-01T10:41:38Z</time>
      </trkpt>
      <trkpt lat="49.86853" lon="5.35454">
        <ele>584</ele>
        <time>2015-02-01T10:41:44Z</time>
      </trkpt>
      <trkpt lat="49.86853" lon="5.35455">
        <ele>584</ele>
        <time>2015-02-01T10:41:49Z</time>
      </trkpt>
      <trkpt lat="49.86853" lon="5.35454">
        <ele>584</ele>
        <time>2015-02-01T10:41:54Z</time>
      </trkpt>
      <trkpt lat="49.86852" lon="5.35452">
        <ele>584</ele>
        <time>2015-02-01T10:42:00Z</time>
      </trkpt>
      <trkpt lat="49.86852" lon="5.35449">
        <ele>584</ele>
        <time>2015-02-01T10:42:05Z</time>
      </trkpt>
      <trkpt lat="49.86853" lon="5.3544">
        <ele>584</ele>
        <time>2015-02-01T10:42:11Z</time>
      </trkpt>
      <trkpt lat="49.86855" lon="5.35431">
        <ele>584</ele>
        <time>2015-02-01T10:42:17Z</time>
      </trkpt>
      <trkpt lat="49.86858" lon="5.35423">
        <ele>584</ele>
        <time>2015-02-01T10:42:23Z</time>
      </trkpt>
      <trkpt lat="49.8686" lon="5.35417">
        <ele>585</ele>
        <time>2015-02-01T10:42:28Z</time>
      </trkpt>
      <trkpt lat="49.86861" lon="5.35415">
        <ele>585</ele>
        <time>2015-02-01T10:42:34Z</time>
      </trkpt>
      <trkpt lat="49.86862" lon="5.35416">
        <ele>584</ele>
        <time>2015-02-01T10:42:39Z</time>
      </trkpt>
      <trkpt lat="49.86863" lon="5.35415">
        <ele>585</ele>
        <time>2015-02-01T10:42:44Z</time>
      </trkpt>
      <trkpt lat="49.86867" lon="5.35411">
        <ele>585</ele>
        <time>2015-02-01T10:42:50Z</time>
      </trkpt>
      <trkpt lat="49.8687" lon="5.35407">
        <ele>585</ele>
        <time>2015-02-01T10:42:55Z</time>
      </trkpt>
      <trkpt lat="49.86873" lon="5.35402">
        <ele>584</ele>
        <time>2015-02-01T10:43:00Z</time>
      </trkpt>
      <trkpt lat="49.86876" lon="5.35397">
        <ele>584</ele>
        <time>2015-02-01T10:43:05Z</time>
      </trkpt>
      <trkpt lat="49.8688" lon="5.3539">
        <ele>585</ele>
        <time>2015-02-01T10:43:11Z</time>
      </trkpt>
      <trkpt lat="49.86883" lon="5.35384">
        <ele>585</ele>
        <time>2015-02-01T10:43:16Z</time>
      </trkpt>
      <trkpt lat="49.86887" lon="5.35376">
        <ele>586</ele>
        <time>2015-02-01T10:43:22Z</time>
      </trkpt>
      <trkpt lat="49.8689" lon="5.3537">
        <ele>586</ele>
        <time>2015-02-01T10:43:27Z</time>
      </trkpt>
      <trkpt lat="49.86894" lon="5.35364">
        <ele>586</ele>
        <time>2015-02-01T10:43:32Z</time>
      </trkpt>
      <trkpt lat="49.86897" lon="5.35358">
        <ele>586</ele>
        <time>2015-02-01T10:43:37Z</time>
      </trkpt>
      <trkpt lat="49.86902" lon="5.35349">
        <ele>587</ele>
        <time>2015-02-01T10:43:43Z</time>
      </trkpt>
      <trkpt lat="49.86906" lon="5.35341">
        <ele>586</ele>
        <time>2015-02-01T10:43:49Z</time>
      </trkpt>
      <trkpt lat="49.86909" lon="5.35335">
        <ele>586</ele>
        <time>2015-02-01T10:43:54Z</time>
      </trkpt>
      <trkpt lat="49.86914" lon="5.35328">
        <ele>586</ele>
        <time>2015-02-01T10:43:59Z</time>
      </trkpt>
      <trkpt lat="49.86917" lon="5.35323">
        <ele>586</ele>
        <time>2015-02-01T10:44:04Z</time>
      </trkpt>
      <trkpt lat="49.86921" lon="5.35316">
        <ele>587</ele>
        <time>2015-02-01T10:44:10Z</time>
      </trkpt>
      <trkpt lat="49.86925" lon="5.3531">
        <ele>587</ele>
        <time>2015-02-01T10:44:15Z</time>
      </trkpt>
      <trkpt lat="49.86929" lon="5.35303">
        <ele>587</ele>
        <time>2015-02-01T10:44:21Z</time>
      </trkpt>
      <trkpt lat="49.86933" lon="5.35297">
        <ele>587</ele>
        <time>2015-02-01T10:44:26Z</time>
      </trkpt>
      <trkpt lat="49.86937" lon="5.35291">
        <ele>587</ele>
        <time>2015-02-01T10:44:31Z</time>
      </trkpt>
      <trkpt lat="49.86941" lon="5.35285">
        <ele>586</ele>
        <time>2015-02-01T10:44:36Z</time>
      </trkpt>
      <trkpt lat="49.86944" lon="5.35279">
        <ele>586</ele>
        <time>2015-02-01T10:44:41Z</time>
      </trkpt>
      <trkpt lat="49.86948" lon="5.35275">
        <ele>586</ele>
        <time>2015-02-01T10:44:46Z</time>
      </trkpt>
      <trkpt lat="49.86953" lon="5.35268">
        <ele>586</ele>
        <time>2015-02-01T10:44:52Z</time>
      </trkpt>
      <trkpt lat="49.86956" lon="5.35262">
        <ele>586</ele>
        <time>2015-02-01T10:44:57Z</time>
      </trkpt>
      <trkpt lat="49.86959" lon="5.35257">
        <ele>586</ele>
        <time>2015-02-01T10:45:02Z</time>
      </trkpt>
      <trkpt lat="49.86963" lon="5.35251">
        <ele>587</ele>
        <time>2015-02-01T10:45:08Z</time>
      </trkpt>
      <trkpt lat="49.86965" lon="5.35247">
        <ele>587</ele>
        <time>2015-02-01T10:45:13Z</time>
      </trkpt>
      <trkpt lat="49.86968" lon="5.35242">
        <ele>587</ele>
        <time>2015-02-01T10:45:19Z</time>
      </trkpt>
      <trkpt lat="49.86969" lon="5.35237">
        <ele>587</ele>
        <time>2015-02-01T10:45:24Z</time>
      </trkpt>
      <trkpt lat="49.86971" lon="5.3523">
        <ele>586</ele>
        <time>2015-02-01T10:45:29Z</time>
      </trkpt>
      <trkpt lat="49.86972" lon="5.35221">
        <ele>586</ele>
        <time>2015-02-01T10:45:35Z</time>
      </trkpt>
      <trkpt lat="49.86974" lon="5.35216">
        <ele>587</ele>
        <time>2015-02-01T10:45:41Z</time>
      </trkpt>
      <trkpt lat="49.86975" lon="5.35212">
        <ele>587</ele>
        <time>2015-02-01T10:45:46Z</time>
      </trkpt>
      <trkpt lat="49.86976" lon="5.35204">
        <ele>587</ele>
        <time>2015-02-01T10:45:52Z</time>
      </trkpt>
      <trkpt lat="49.86977" lon="5.35202">
        <ele>587</ele>
        <time>2015-02-01T10:45:58Z</time>
      </trkpt>
      <trkpt lat="49.86977" lon="5.352">
        <ele>587</ele>
        <time>2015-02-01T10:46:03Z</time>
      </trkpt>
      <trkpt lat="49.86979" lon="5.35195">
        <ele>587</ele>
        <time>2015-02-01T10:46:08Z</time>
      </trkpt>
      <trkpt lat="49.8698" lon="5.3519">
        <ele>587</ele>
        <time>2015-02-01T10:46:13Z</time>
      </trkpt>
      <trkpt lat="49.86982" lon="5.35184">
        <ele>588</ele>
        <time>2015-02-01T10:46:18Z</time>
      </trkpt>
      <trkpt lat="49.86984" lon="5.35177">
        <ele>588</ele>
        <time>2015-02-01T10:46:23Z</time>
      </trkpt>
      <trkpt lat="49.86985" lon="5.35169">
        <ele>588</ele>
        <time>2015-02-01T10:46:28Z</time>
      </trkpt>
      <trkpt lat="49.86988" lon="5.35161">
        <ele>588</ele>
        <time>2015-02-01T10:46:33Z</time>
      </trkpt>
      <trkpt lat="49.86991" lon="5.35154">
        <ele>588</ele>
        <time>2015-02-01T10:46:39Z</time>
      </trkpt>
      <trkpt lat="49.86993" lon="5.35147">
        <ele>588</ele>
        <time>2015-02-01T10:46:44Z</time>
      </trkpt>
      <trkpt lat="49.86995" lon="5.35138">
        <ele>588</ele>
        <time>2015-02-01T10:46:50Z</time>
      </trkpt>
      <trkpt lat="49.86998" lon="5.35127">
        <ele>588</ele>
        <time>2015-02-01T10:46:56Z</time>
      </trkpt>
      <trkpt lat="49.87" lon="5.35119">
        <ele>589</ele>
        <time>2015-02-01T10:47:01Z</time>
      </trkpt>
      <trkpt lat="49.87002" lon="5.35111">
        <ele>589</ele>
        <time>2015-02-01T10:47:06Z</time>
      </trkpt>
      <trkpt lat="49.87003" lon="5.35103">
        <ele>589</ele>
        <time>2015-02-01T10:47:11Z</time>
      </trkpt>
      <trkpt lat="49.87006" lon="5.35094">
        <ele>590</ele>
        <time>2015-02-01T10:47:17Z</time>
      </trkpt>
      <trkpt lat="49.87009" lon="5.35085">
        <ele>589</ele>
        <time>2015-02-01T10:47:23Z</time>
      </trkpt>
      <trkpt lat="49.87011" lon="5.35077">
        <ele>589</ele>
        <time>2015-02-01T10:47:28Z</time>
      </trkpt>
      <trkpt lat="49.87013" lon="5.35068">
        <ele>589</ele>
        <time>2015-02-01T10:47:34Z</time>
      </trkpt>
      <trkpt lat="49.87015" lon="5.35058">
        <ele>589</ele>
        <time>2015-02-01T10:47:40Z</time>
      </trkpt>
      <trkpt lat="49.87017" lon="5.35048">
        <ele>589</ele>
        <time>2015-02-01T10:47:46Z</time>
      </trkpt>
      <trkpt lat="49.87019" lon="5.3504">
        <ele>589</ele>
        <time>2015-02-01T10:47:51Z</time>
      </trkpt>
      <trkpt lat="49.8702" lon="5.35032">
        <ele>589</ele>
        <time>2015-02-01T10:47:56Z</time>
      </trkpt>
      <trkpt lat="49.87022" lon="5.35022">
        <ele>590</ele>
        <time>2015-02-01T10:48:02Z</time>
      </trkpt>
      <trkpt lat="49.87024" lon="5.35014">
        <ele>590</ele>
        <time>2015-02-01T10:48:07Z</time>
      </trkpt>
      <trkpt lat="49.87027" lon="5.35004">
        <ele>590</ele>
        <time>2015-02-01T10:48:13Z</time>
      </trkpt>
      <trkpt lat="49.87029" lon="5.34997">
        <ele>590</ele>
        <time>2015-02-01T10:48:18Z</time>
      </trkpt>
      <trkpt lat="49.87033" lon="5.34988">
        <ele>590</ele>
        <time>2015-02-01T10:48:24Z</time>
      </trkpt>
      <trkpt lat="49.87037" lon="5.34979">
        <ele>590</ele>
        <time>2015-02-01T10:48:29Z</time>
      </trkpt>
      <trkpt lat="49.8704" lon="5.3497">
        <ele>590</ele>
        <time>2015-02-01T10:48:35Z</time>
      </trkpt>
      <trkpt lat="49.87045" lon="5.34963">
        <ele>590</ele>
        <time>2015-02-01T10:48:40Z</time>
      </trkpt>
      <trkpt lat="49.8705" lon="5.34955">
        <ele>590</ele>
        <time>2015-02-01T10:48:46Z</time>
      </trkpt>
      <trkpt lat="49.87055" lon="5.34949">
        <ele>590</ele>
        <time>2015-02-01T10:48:51Z</time>
      </trkpt>
      <trkpt lat="49.8706" lon="5.34944">
        <ele>590</ele>
        <time>2015-02-01T10:48:57Z</time>
      </trkpt>
      <trkpt lat="49.87061" lon="5.34942">
        <ele>589</ele>
        <time>2015-02-01T10:49:02Z</time>
      </trkpt>
      <trkpt lat="49.87063" lon="5.34939">
        <ele>590</ele>
        <time>2015-02-01T10:49:07Z</time>
      </trkpt>
      <trkpt lat="49.87068" lon="5.34932">
        <ele>589</ele>
        <time>2015-02-01T10:49:13Z</time>
      </trkpt>
      <trkpt lat="49.87072" lon="5.34926">
        <ele>590</ele>
        <time>2015-02-01T10:49:18Z</time>
      </trkpt>
      <trkpt lat="49.87076" lon="5.34921">
        <ele>590</ele>
        <time>2015-02-01T10:49:23Z</time>
      </trkpt>
      <trkpt lat="49.87079" lon="5.34919">
        <ele>589</ele>
        <time>2015-02-01T10:49:28Z</time>
      </trkpt>
      <trkpt lat="49.8708" lon="5.34919">
        <ele>589</ele>
        <time>2015-02-01T10:49:33Z</time>
      </trkpt>
      <trkpt lat="49.8708" lon="5.34919">
        <ele>589</ele>
        <time>2015-02-01T10:49:38Z</time>
      </trkpt>
      <trkpt lat="49.87082" lon="5.34919">
        <ele>590</ele>
        <time>2015-02-01T10:49:43Z</time>
      </trkpt>
      <trkpt lat="49.87084" lon="5.34919">
        <ele>590</ele>
        <time>2015-02-01T10:49:49Z</time>
      </trkpt>
      <trkpt lat="49.87087" lon="5.34914">
        <ele>589</ele>
        <time>2015-02-01T10:49:55Z</time>
      </trkpt>
      <trkpt lat="49.87091" lon="5.34907">
        <ele>589</ele>
        <time>2015-02-01T10:50:01Z</time>
      </trkpt>
      <trkpt lat="49.87097" lon="5.34899">
        <ele>590</ele>
        <time>2015-02-01T10:50:07Z</time>
      </trkpt>
      <trkpt lat="49.87102" lon="5.34892">
        <ele>590</ele>
        <time>2015-02-01T10:50:13Z</time>
      </trkpt>
      <trkpt lat="49.87106" lon="5.34885">
        <ele>590</ele>
        <time>2015-02-01T10:50:18Z</time>
      </trkpt>
      <trkpt lat="49.87107" lon="5.34882">
        <ele>590</ele>
        <time>2015-02-01T10:50:24Z</time>
      </trkpt>
      <trkpt lat="49.87108" lon="5.34879">
        <ele>590</ele>
        <time>2015-02-01T10:50:30Z</time>
      </trkpt>
      <trkpt lat="49.87112" lon="5.34873">
        <ele>590</ele>
        <time>2015-02-01T10:50:36Z</time>
      </trkpt>
      <trkpt lat="49.87117" lon="5.34868">
        <ele>590</ele>
        <time>2015-02-01T10:50:41Z</time>
      </trkpt>
      <trkpt lat="49.87123" lon="5.34863">
        <ele>591</ele>
        <time>2015-02-01T10:50:47Z</time>
      </trkpt>
      <trkpt lat="49.87125" lon="5.34858">
        <ele>591</ele>
        <time>2015-02-01T10:50:52Z</time>
      </trkpt>
      <trkpt lat="49.87127" lon="5.34857">
        <ele>591</ele>
        <time>2015-02-01T10:50:58Z</time>
      </trkpt>
      <trkpt lat="49.8713" lon="5.34853">
        <ele>591</ele>
        <time>2015-02-01T10:51:05Z</time>
      </trkpt>
      <trkpt lat="49.87131" lon="5.34852">
        <ele>592</ele>
        <time>2015-02-01T10:51:10Z</time>
      </trkpt>
      <trkpt lat="49.87135" lon="5.34847">
        <ele>591</ele>
        <time>2015-02-01T10:51:15Z</time>
      </trkpt>
      <trkpt lat="49.87138" lon="5.34842">
        <ele>591</ele>
        <time>2015-02-01T10:51:20Z</time>
      </trkpt>
      <trkpt lat="49.87143" lon="5.34835">
        <ele>592</ele>
        <time>2015-02-01T10:51:26Z</time>
      </trkpt>
      <trkpt lat="49.87148" lon="5.34829">
        <ele>592</ele>
        <time>2015-02-01T10:51:32Z</time>
      </trkpt>
      <trkpt lat="49.87152" lon="5.34823">
        <ele>592</ele>
        <time>2015-02-01T10:51:37Z</time>
      </trkpt>
      <trkpt lat="49.87158" lon="5.34814">
        <ele>593</ele>
        <time>2015-02-01T10:51:43Z</time>
      </trkpt>
      <trkpt lat="49.87162" lon="5.34809">
        <ele>593</ele>
        <time>2015-02-01T10:51:48Z</time>
      </trkpt>
      <trkpt lat="49.87162" lon="5.3481">
        <ele>593</ele>
        <time>2015-02-01T10:51:53Z</time>
      </trkpt>
      <trkpt lat="49.87165" lon="5.34806">
        <ele>593</ele>
        <time>2015-02-01T10:51:58Z</time>
      </trkpt>
      <trkpt lat="49.8717" lon="5.348">
        <ele>593</ele>
        <time>2015-02-01T10:52:04Z</time>
      </trkpt>
      <trkpt lat="49.87173" lon="5.34795">
        <ele>593</ele>
        <time>2015-02-01T10:52:09Z</time>
      </trkpt>
      <trkpt lat="49.87177" lon="5.3479">
        <ele>594</ele>
        <time>2015-02-01T10:52:14Z</time>
      </trkpt>
      <trkpt lat="49.87181" lon="5.34784">
        <ele>594</ele>
        <time>2015-02-01T10:52:19Z</time>
      </trkpt>
      <trkpt lat="49.87185" lon="5.34777">
        <ele>594</ele>
        <time>2015-02-01T10:52:24Z</time>
      </trkpt>
      <trkpt lat="49.8719" lon="5.34769">
        <ele>595</ele>
        <time>2015-02-01T10:52:30Z</time>
      </trkpt>
      <trkpt lat="49.87194" lon="5.34762">
        <ele>596</ele>
        <time>2015-02-01T10:52:35Z</time>
      </trkpt>
      <trkpt lat="49.87197" lon="5.34755">
        <ele>596</ele>
        <time>2015-02-01T10:52:41Z</time>
      </trkpt>
      <trkpt lat="49.87198" lon="5.34753">
        <ele>596</ele>
        <time>2015-02-01T10:52:46Z</time>
      </trkpt>
      <trkpt lat="49.87198" lon="5.3475">
        <ele>597</ele>
        <time>2015-02-01T10:52:51Z</time>
      </trkpt>
      <trkpt lat="49.87198" lon="5.3475">
        <ele>596</ele>
        <time>2015-02-01T10:52:57Z</time>
      </trkpt>
      <trkpt lat="49.87201" lon="5.34747">
        <ele>596</ele>
        <time>2015-02-01T10:53:02Z</time>
      </trkpt>
      <trkpt lat="49.87203" lon="5.3474">
        <ele>596</ele>
        <time>2015-02-01T10:53:08Z</time>
      </trkpt>
      <trkpt lat="49.87205" lon="5.34735">
        <ele>596</ele>
        <time>2015-02-01T10:53:13Z</time>
      </trkpt>
      <trkpt lat="49.87207" lon="5.34729">
        <ele>596</ele>
        <time>2015-02-01T10:53:18Z</time>
      </trkpt>
      <trkpt lat="49.8721" lon="5.3472">
        <ele>596</ele>
        <time>2015-02-01T10:53:23Z</time>
      </trkpt>
      <trkpt lat="49.87214" lon="5.34712">
        <ele>596</ele>
        <time>2015-02-01T10:53:28Z</time>
      </trkpt>
      <trkpt lat="49.87217" lon="5.34703">
        <ele>596</ele>
        <time>2015-02-01T10:53:34Z</time>
      </trkpt>
      <trkpt lat="49.87215" lon="5.347">
        <ele>596</ele>
        <time>2015-02-01T10:53:40Z</time>
      </trkpt>
      <trkpt lat="49.87214" lon="5.34696">
        <ele>596</ele>
        <time>2015-02-01T10:53:46Z</time>
      </trkpt>
      <trkpt lat="49.87216" lon="5.34693">
        <ele>596</ele>
        <time>2015-02-01T10:53:52Z</time>
      </trkpt>
      <trkpt lat="49.87218" lon="5.34687">
        <ele>596</ele>
        <time>2015-02-01T10:53:58Z</time>
      </trkpt>
      <trkpt lat="49.87219" lon="5.34682">
        <ele>596</ele>
        <time>2015-02-01T10:54:03Z</time>
      </trkpt>
      <trkpt lat="49.87222" lon="5.34673">
        <ele>596</ele>
        <time>2015-02-01T10:54:09Z</time>
      </trkpt>
      <trkpt lat="49.87224" lon="5.34666">
        <ele>596</ele>
        <time>2015-02-01T10:54:14Z</time>
      </trkpt>
      <trkpt lat="49.87227" lon="5.34656">
        <ele>596</ele>
        <time>2015-02-01T10:54:20Z</time>
      </trkpt>
      <trkpt lat="49.87229" lon="5.34649">
        <ele>596</ele>
        <time>2015-02-01T10:54:25Z</time>
      </trkpt>
      <trkpt lat="49.87231" lon="5.34642">
        <ele>596</ele>
        <time>2015-02-01T10:54:30Z</time>
      </trkpt>
      <trkpt lat="49.87233" lon="5.34635">
        <ele>596</ele>
        <time>2015-02-01T10:54:35Z</time>
      </trkpt>
      <trkpt lat="49.87236" lon="5.34627">
        <ele>596</ele>
        <time>2015-02-01T10:54:40Z</time>
      </trkpt>
      <trkpt lat="49.87238" lon="5.3462">
        <ele>596</ele>
        <time>2015-02-01T10:54:45Z</time>
      </trkpt>
      <trkpt lat="49.87241" lon="5.34611">
        <ele>596</ele>
        <time>2015-02-01T10:54:51Z</time>
      </trkpt>
      <trkpt lat="49.87244" lon="5.34604">
        <ele>595</ele>
        <time>2015-02-01T10:54:56Z</time>
      </trkpt>
      <trkpt lat="49.87247" lon="5.34593">
        <ele>596</ele>
        <time>2015-02-01T10:55:02Z</time>
      </trkpt>
      <trkpt lat="49.8725" lon="5.34585">
        <ele>596</ele>
        <time>2015-02-01T10:55:07Z</time>
      </trkpt>
      <trkpt lat="49.87254" lon="5.34576">
        <ele>596</ele>
        <time>2015-02-01T10:55:13Z</time>
      </trkpt>
      <trkpt lat="49.87256" lon="5.34569">
        <ele>596</ele>
        <time>2015-02-01T10:55:18Z</time>
      </trkpt>
      <trkpt lat="49.87257" lon="5.34566">
        <ele>596</ele>
        <time>2015-02-01T10:55:24Z</time>
      </trkpt>
      <trkpt lat="49.87256" lon="5.34561">
        <ele>596</ele>
        <time>2015-02-01T10:55:29Z</time>
      </trkpt>
      <trkpt lat="49.87257" lon="5.34558">
        <ele>596</ele>
        <time>2015-02-01T10:55:34Z</time>
      </trkpt>
      <trkpt lat="49.87258" lon="5.34555">
        <ele>596</ele>
        <time>2015-02-01T10:55:39Z</time>
      </trkpt>
      <trkpt lat="49.87261" lon="5.3455">
        <ele>596</ele>
        <time>2015-02-01T10:55:45Z</time>
      </trkpt>
      <trkpt lat="49.87265" lon="5.34543">
        <ele>596</ele>
        <time>2015-02-01T10:55:51Z</time>
      </trkpt>
      <trkpt lat="49.8727" lon="5.34536">
        <ele>597</ele>
        <time>2015-02-01T10:55:56Z</time>
      </trkpt>
      <trkpt lat="49.87274" lon="5.34529">
        <ele>597</ele>
        <time>2015-02-01T10:56:01Z</time>
      </trkpt>
      <trkpt lat="49.87279" lon="5.34523">
        <ele>598</ele>
        <time>2015-02-01T10:56:06Z</time>
      </trkpt>
      <trkpt lat="49.87283" lon="5.34517">
        <ele>598</ele>
        <time>2015-02-01T10:56:12Z</time>
      </trkpt>
      <trkpt lat="49.87288" lon="5.3451">
        <ele>598</ele>
        <time>2015-02-01T10:56:18Z</time>
      </trkpt>
      <trkpt lat="49.8729" lon="5.34506">
        <ele>598</ele>
        <time>2015-02-01T10:56:23Z</time>
      </trkpt>
      <trkpt lat="49.87292" lon="5.34504">
        <ele>599</ele>
        <time>2015-02-01T10:56:28Z</time>
      </trkpt>
      <trkpt lat="49.87296" lon="5.34499">
        <ele>599</ele>
        <time>2015-02-01T10:56:33Z</time>
      </trkpt>
      <trkpt lat="49.87302" lon="5.34493">
        <ele>599</ele>
        <time>2015-02-01T10:56:39Z</time>
      </trkpt>
      <trkpt lat="49.87307" lon="5.34488">
        <ele>600</ele>
        <time>2015-02-01T10:56:44Z</time>
      </trkpt>
      <trkpt lat="49.87313" lon="5.34482">
        <ele>600</ele>
        <time>2015-02-01T10:56:50Z</time>
      </trkpt>
      <trkpt lat="49.87318" lon="5.34477">
        <ele>600</ele>
        <time>2015-02-01T10:56:55Z</time>
      </trkpt>
      <trkpt lat="49.87322" lon="5.34472">
        <ele>600</ele>
        <time>2015-02-01T10:57:00Z</time>
      </trkpt>
      <trkpt lat="49.87327" lon="5.34467">
        <ele>599</ele>
        <time>2015-02-01T10:57:05Z</time>
      </trkpt>
      <trkpt lat="49.87331" lon="5.34463">
        <ele>600</ele>
        <time>2015-02-01T10:57:11Z</time>
      </trkpt>
      <trkpt lat="49.87337" lon="5.34458">
        <ele>600</ele>
        <time>2015-02-01T10:57:17Z</time>
      </trkpt>
      <trkpt lat="49.87342" lon="5.34454">
        <ele>599</ele>
        <time>2015-02-01T10:57:22Z</time>
      </trkpt>
      <trkpt lat="49.87347" lon="5.3445">
        <ele>599</ele>
        <time>2015-02-01T10:57:27Z</time>
      </trkpt>
      <trkpt lat="49.87353" lon="5.34445">
        <ele>599</ele>
        <time>2015-02-01T10:57:33Z</time>
      </trkpt>
      <trkpt lat="49.87356" lon="5.34441">
        <ele>599</ele>
        <time>2015-02-01T10:57:38Z</time>
      </trkpt>
      <trkpt lat="49.87356" lon="5.34441">
        <ele>600</ele>
        <time>2015-02-01T10:57:43Z</time>
      </trkpt>
      <trkpt lat="49.87355" lon="5.34442">
        <ele>600</ele>
        <time>2015-02-01T10:57:49Z</time>
      </trkpt>
      <trkpt lat="49.87353" lon="5.34443">
        <ele>600</ele>
        <time>2015-02-01T10:57:54Z</time>
      </trkpt>
      <trkpt lat="49.87352" lon="5.34443">
        <ele>600</ele>
        <time>2015-02-01T10:57:59Z</time>
      </trkpt>
      <trkpt lat="49.87356" lon="5.3444">
        <ele>600</ele>
        <time>2015-02-01T10:58:05Z</time>
      </trkpt>
      <trkpt lat="49.87359" lon="5.34436">
        <ele>600</ele>
        <time>2015-02-01T10:58:10Z</time>
      </trkpt>
      <trkpt lat="49.8736" lon="5.34436">
        <ele>600</ele>
        <time>2015-02-01T10:58:16Z</time>
      </trkpt>
      <trkpt lat="49.8736" lon="5.34435">
        <ele>599</ele>
        <time>2015-02-01T10:58:21Z</time>
      </trkpt>
      <trkpt lat="49.87363" lon="5.34433">
        <ele>600</ele>
        <time>2015-02-01T10:58:26Z</time>
      </trkpt>
      <trkpt lat="49.87363" lon="5.34432">
        <ele>600</ele>
        <time>2015-02-01T10:58:31Z</time>
      </trkpt>
      <trkpt lat="49.87366" lon="5.3443">
        <ele>599</ele>
        <time>2015-02-01T10:58:36Z</time>
      </trkpt>
      <trkpt lat="49.87371" lon="5.34428">
        <ele>599</ele>
        <time>2015-02-01T10:58:42Z</time>
      </trkpt>
      <trkpt lat="49.87373" lon="5.34427">
        <ele>600</ele>
        <time>2015-02-01T10:58:47Z</time>
      </trkpt>
      <trkpt lat="49.87374" lon="5.34427">
        <ele>600</ele>
        <time>2015-02-01T10:58:53Z</time>
      </trkpt>
      <trkpt lat="49.87376" lon="5.34427">
        <ele>600</ele>
        <time>2015-02-01T10:58:58Z</time>
      </trkpt>
      <trkpt lat="49.87376" lon="5.34427">
        <ele>600</ele>
        <time>2015-02-01T10:59:04Z</time>
      </trkpt>
      <trkpt lat="49.87376" lon="5.34427">
        <ele>600</ele>
        <time>2015-02-01T10:59:11Z</time>
      </trkpt>
      <trkpt lat="49.87376" lon="5.34427">
        <ele>601</ele>
        <time>2015-02-01T10:59:16Z</time>
      </trkpt>
      <trkpt lat="49.87376" lon="5.34426">
        <ele>600</ele>
        <time>2015-02-01T10:59:22Z</time>
      </trkpt>
      <trkpt lat="49.87376" lon="5.34426">
        <ele>600</ele>
        <time>2015-02-01T10:59:27Z</time>
      </trkpt>
      <trkpt lat="49.87376" lon="5.34426">
        <ele>600</ele>
        <time>2015-02-01T10:59:32Z</time>
      </trkpt>
      <trkpt lat="49.87376" lon="5.34426">
        <ele>600</ele>
        <time>2015-02-01T10:59:37Z</time>
      </trkpt>
      <trkpt lat="49.87375" lon="5.34426">
        <ele>600</ele>
        <time>2015-02-01T10:59:43Z</time>
      </trkpt>
      <trkpt lat="49.87375" lon="5.34426">
        <ele>599</ele>
        <time>2015-02-01T10:59:50Z</time>
      </trkpt>
      <trkpt lat="49.87375" lon="5.34425">
        <ele>599</ele>
        <time>2015-02-01T10:59:56Z</time>
      </trkpt>
      <trkpt lat="49.87375" lon="5.34423">
        <ele>600</ele>
        <time>2015-02-01T11:00:02Z</time>
      </trkpt>
      <trkpt lat="49.87375" lon="5.34423">
        <ele>600</ele>
        <time>2015-02-01T11:00:08Z</time>
      </trkpt>
      <trkpt lat="49.87375" lon="5.34423">
        <ele>600</ele>
        <time>2015-02-01T11:00:14Z</time>
      </trkpt>
      <trkpt lat="49.87375" lon="5.34423">
        <ele>600</ele>
        <time>2015-02-01T11:00:19Z</time>
      </trkpt>
      <trkpt lat="49.87376" lon="5.34423">
        <ele>599</ele>
        <time>2015-02-01T11:00:26Z</time>
      </trkpt>
      <trkpt lat="49.87376" lon="5.34423">
        <ele>600</ele>
        <time>2015-02-01T11:00:32Z</time>
      </trkpt>
      <trkpt lat="49.87376" lon="5.34422">
        <ele>599</ele>
        <time>2015-02-01T11:00:37Z</time>
      </trkpt>
      <trkpt lat="49.87376" lon="5.34422">
        <ele>600</ele>
        <time>2015-02-01T11:00:43Z</time>
      </trkpt>
      <trkpt lat="49.87376" lon="5.34422">
        <ele>599</ele>
        <time>2015-02-01T11:00:48Z</time>
      </trkpt>
      <trkpt lat="49.87376" lon="5.34422">
        <ele>599</ele>
        <time>2015-02-01T11:00:54Z</time>
      </trkpt>
      <trkpt lat="49.87377" lon="5.34423">
        <ele>600</ele>
        <time>2015-02-01T11:01:01Z</time>
      </trkpt>
      <trkpt lat="49.87379" lon="5.3442">
        <ele>599</ele>
        <time>2015-02-01T11:01:06Z</time>
      </trkpt>
      <trkpt lat="49.87381" lon="5.3442">
        <ele>599</ele>
        <time>2015-02-01T11:01:14Z</time>
      </trkpt>
      <trkpt lat="49.87385" lon="5.34416">
        <ele>600</ele>
        <time>2015-02-01T11:01:19Z</time>
      </trkpt>
      <trkpt lat="49.87392" lon="5.34411">
        <ele>600</ele>
        <time>2015-02-01T11:01:25Z</time>
      </trkpt>
      <trkpt lat="49.87397" lon="5.34407">
        <ele>600</ele>
        <time>2015-02-01T11:01:30Z</time>
      </trkpt>
      <trkpt lat="49.87403" lon="5.34402">
        <ele>600</ele>
        <time>2015-02-01T11:01:35Z</time>
      </trkpt>
      <trkpt lat="49.87408" lon="5.34398">
        <ele>601</ele>
        <time>2015-02-01T11:01:40Z</time>
      </trkpt>
      <trkpt lat="49.87415" lon="5.34393">
        <ele>600</ele>
        <time>2015-02-01T11:01:46Z</time>
      </trkpt>
      <trkpt lat="49.87419" lon="5.34388">
        <ele>600</ele>
        <time>2015-02-01T11:01:51Z</time>
      </trkpt>
      <trkpt lat="49.87426" lon="5.34383">
        <ele>599</ele>
        <time>2015-02-01T11:01:57Z</time>
      </trkpt>
      <trkpt lat="49.87431" lon="5.34378">
        <ele>600</ele>
        <time>2015-02-01T11:02:03Z</time>
      </trkpt>
      <trkpt lat="49.87436" lon="5.34374">
        <ele>600</ele>
        <time>2015-02-01T11:02:09Z</time>
      </trkpt>
      <trkpt lat="49.8744" lon="5.34369">
        <ele>600</ele>
        <time>2015-02-01T11:02:14Z</time>
      </trkpt>
      <trkpt lat="49.87446" lon="5.34364">
        <ele>600</ele>
        <time>2015-02-01T11:02:20Z</time>
      </trkpt>
      <trkpt lat="49.87452" lon="5.3436">
        <ele>600</ele>
        <time>2015-02-01T11:02:25Z</time>
      </trkpt>
      <trkpt lat="49.87457" lon="5.34355">
        <ele>601</ele>
        <time>2015-02-01T11:02:30Z</time>
      </trkpt>
      <trkpt lat="49.8746" lon="5.34352">
        <ele>600</ele>
        <time>2015-02-01T11:02:35Z</time>
      </trkpt>
      <trkpt lat="49.87461" lon="5.34351">
        <ele>600</ele>
        <time>2015-02-01T11:02:40Z</time>
      </trkpt>
      <trkpt lat="49.87467" lon="5.34347">
        <ele>600</ele>
        <time>2015-02-01T11:02:45Z</time>
      </trkpt>
      <trkpt lat="49.87472" lon="5.34342">
        <ele>600</ele>
        <time>2015-02-01T11:02:50Z</time>
      </trkpt>
      <trkpt lat="49.87478" lon="5.34338">
        <ele>600</ele>
        <time>2015-02-01T11:02:55Z</time>
      </trkpt>
      <trkpt lat="49.87484" lon="5.34333">
        <ele>600</ele>
        <time>2015-02-01T11:03:00Z</time>
      </trkpt>
      <trkpt lat="49.87489" lon="5.34328">
        <ele>600</ele>
        <time>2015-02-01T11:03:05Z</time>
      </trkpt>
      <trkpt lat="49.87495" lon="5.34324">
        <ele>601</ele>
        <time>2015-02-01T11:03:10Z</time>
      </trkpt>
      <trkpt lat="49.87501" lon="5.34318">
        <ele>600</ele>
        <time>2015-02-01T11:03:16Z</time>
      </trkpt>
      <trkpt lat="49.87507" lon="5.34314">
        <ele>600</ele>
        <time>2015-02-01T11:03:21Z</time>
      </trkpt>
      <trkpt lat="49.87513" lon="5.34309">
        <ele>600</ele>
        <time>2015-02-01T11:03:27Z</time>
      </trkpt>
      <trkpt lat="49.87518" lon="5.34306">
        <ele>600</ele>
        <time>2015-02-01T11:03:32Z</time>
      </trkpt>
      <trkpt lat="49.87524" lon="5.34303">
        <ele>600</ele>
        <time>2015-02-01T11:03:38Z</time>
      </trkpt>
      <trkpt lat="49.87529" lon="5.343">
        <ele>600</ele>
        <time>2015-02-01T11:03:43Z</time>
      </trkpt>
      <trkpt lat="49.87534" lon="5.34299">
        <ele>600</ele>
        <time>2015-02-01T11:03:49Z</time>
      </trkpt>
      <trkpt lat="49.87535" lon="5.343">
        <ele>599</ele>
        <time>2015-02-01T11:03:55Z</time>
      </trkpt>
      <trkpt lat="49.87538" lon="5.34302">
        <ele>599</ele>
        <time>2015-02-01T11:04:00Z</time>
      </trkpt>
      <trkpt lat="49.8754" lon="5.34306">
        <ele>599</ele>
        <time>2015-02-01T11:04:05Z</time>
      </trkpt>
      <trkpt lat="49.87544" lon="5.34312">
        <ele>599</ele>
        <time>2015-02-01T11:04:11Z</time>
      </trkpt>
      <trkpt lat="49.87547" lon="5.34319">
        <ele>599</ele>
        <time>2015-02-01T11:04:16Z</time>
      </trkpt>
      <trkpt lat="49.8755" lon="5.34328">
        <ele>598</ele>
        <time>2015-02-01T11:04:22Z</time>
      </trkpt>
      <trkpt lat="49.87553" lon="5.34338">
        <ele>598</ele>
        <time>2015-02-01T11:04:28Z</time>
      </trkpt>
      <trkpt lat="49.87555" lon="5.34346">
        <ele>599</ele>
        <time>2015-02-01T11:04:33Z</time>
      </trkpt>
      <trkpt lat="49.87558" lon="5.34355">
        <ele>598</ele>
        <time>2015-02-01T11:04:39Z</time>
      </trkpt>
      <trkpt lat="49.8756" lon="5.34362">
        <ele>597</ele>
        <time>2015-02-01T11:04:45Z</time>
      </trkpt>
      <trkpt lat="49.8756" lon="5.34364">
        <ele>598</ele>
        <time>2015-02-01T11:04:50Z</time>
      </trkpt>
      <trkpt lat="49.87563" lon="5.34373">
        <ele>598</ele>
        <time>2015-02-01T11:04:56Z</time>
      </trkpt>
      <trkpt lat="49.87565" lon="5.34381">
        <ele>597</ele>
        <time>2015-02-01T11:05:01Z</time>
      </trkpt>
      <trkpt lat="49.87568" lon="5.34389">
        <ele>597</ele>
        <time>2015-02-01T11:05:06Z</time>
      </trkpt>
      <trkpt lat="49.8757" lon="5.34396">
        <ele>597</ele>
        <time>2015-02-01T11:05:11Z</time>
      </trkpt>
      <trkpt lat="49.87571" lon="5.34398">
        <ele>597</ele>
        <time>2015-02-01T11:05:17Z</time>
      </trkpt>
      <trkpt lat="49.87571" lon="5.34398">
        <ele>597</ele>
        <time>2015-02-01T11:05:23Z</time>
      </trkpt>
      <trkpt lat="49.87571" lon="5.34399">
        <ele>598</ele>
        <time>2015-02-01T11:05:29Z</time>
      </trkpt>
      <trkpt lat="49.87571" lon="5.34405">
        <ele>598</ele>
        <time>2015-02-01T11:05:34Z</time>
      </trkpt>
      <trkpt lat="49.87573" lon="5.34415">
        <ele>598</ele>
        <time>2015-02-01T11:05:40Z</time>
      </trkpt>
      <trkpt lat="49.87576" lon="5.34423">
        <ele>598</ele>
        <time>2015-02-01T11:05:46Z</time>
      </trkpt>
      <trkpt lat="49.87579" lon="5.3443">
        <ele>599</ele>
        <time>2015-02-01T11:05:51Z</time>
      </trkpt>
      <trkpt lat="49.87581" lon="5.3444">
        <ele>599</ele>
        <time>2015-02-01T11:05:57Z</time>
      </trkpt>
      <trkpt lat="49.87582" lon="5.34447">
        <ele>599</ele>
        <time>2015-02-01T11:06:02Z</time>
      </trkpt>
      <trkpt lat="49.87583" lon="5.34454">
        <ele>600</ele>
        <time>2015-02-01T11:06:07Z</time>
      </trkpt>
      <trkpt lat="49.87584" lon="5.34462">
        <ele>600</ele>
        <time>2015-02-01T11:06:12Z</time>
      </trkpt>
      <trkpt lat="49.87585" lon="5.34469">
        <ele>600</ele>
        <time>2015-02-01T11:06:17Z</time>
      </trkpt>
      <trkpt lat="49.87586" lon="5.34476">
        <ele>601</ele>
        <time>2015-02-01T11:06:22Z</time>
      </trkpt>
      <trkpt lat="49.87587" lon="5.34483">
        <ele>601</ele>
        <time>2015-02-01T11:06:27Z</time>
      </trkpt>
      <trkpt lat="49.87589" lon="5.34491">
        <ele>602</ele>
        <time>2015-02-01T11:06:33Z</time>
      </trkpt>
      <trkpt lat="49.87588" lon="5.34498">
        <ele>602</ele>
        <time>2015-02-01T11:06:38Z</time>
      </trkpt>
      <trkpt lat="49.87587" lon="5.34502">
        <ele>602</ele>
        <time>2015-02-01T11:06:43Z</time>
      </trkpt>
      <trkpt lat="49.87587" lon="5.34509">
        <ele>602</ele>
        <time>2015-02-01T11:06:49Z</time>
      </trkpt>
      <trkpt lat="49.87587" lon="5.34516">
        <ele>603</ele>
        <time>2015-02-01T11:06:54Z</time>
      </trkpt>
      <trkpt lat="49.87589" lon="5.34524">
        <ele>604</ele>
        <time>2015-02-01T11:07:00Z</time>
      </trkpt>
      <trkpt lat="49.8759" lon="5.34531">
        <ele>605</ele>
        <time>2015-02-01T11:07:05Z</time>
      </trkpt>
      <trkpt lat="49.8759" lon="5.34538">
        <ele>605</ele>
        <time>2015-02-01T11:07:10Z</time>
      </trkpt>
      <trkpt lat="49.8759" lon="5.34547">
        <ele>606</ele>
        <time>2015-02-01T11:07:16Z</time>
      </trkpt>
      <trkpt lat="49.87588" lon="5.34554">
        <ele>608</ele>
        <time>2015-02-01T11:07:21Z</time>
      </trkpt>
      <trkpt lat="49.87587" lon="5.34561">
        <ele>608</ele>
        <time>2015-02-01T11:07:26Z</time>
      </trkpt>
      <trkpt lat="49.87586" lon="5.34568">
        <ele>608</ele>
        <time>2015-02-01T11:07:31Z</time>
      </trkpt>
      <trkpt lat="49.87585" lon="5.34574">
        <ele>609</ele>
        <time>2015-02-01T11:07:36Z</time>
      </trkpt>
      <trkpt lat="49.87583" lon="5.34581">
        <ele>609</ele>
        <time>2015-02-01T11:07:42Z</time>
      </trkpt>
      <trkpt lat="49.87582" lon="5.34589">
        <ele>609</ele>
        <time>2015-02-01T11:07:48Z</time>
      </trkpt>
      <trkpt lat="49.87581" lon="5.34597">
        <ele>609</ele>
        <time>2015-02-01T11:07:53Z</time>
      </trkpt>
      <trkpt lat="49.87579" lon="5.34607">
        <ele>610</ele>
        <time>2015-02-01T11:07:59Z</time>
      </trkpt>
      <trkpt lat="49.87577" lon="5.34617">
        <ele>610</ele>
        <time>2015-02-01T11:08:05Z</time>
      </trkpt>
      <trkpt lat="49.87576" lon="5.34624">
        <ele>610</ele>
        <time>2015-02-01T11:08:10Z</time>
      </trkpt>
      <trkpt lat="49.87575" lon="5.34631">
        <ele>611</ele>
        <time>2015-02-01T11:08:15Z</time>
      </trkpt>
      <trkpt lat="49.87574" lon="5.34642">
        <ele>612</ele>
        <time>2015-02-01T11:08:21Z</time>
      </trkpt>
      <trkpt lat="49.87572" lon="5.34652">
        <ele>612</ele>
        <time>2015-02-01T11:08:26Z</time>
      </trkpt>
      <trkpt lat="49.8757" lon="5.34662">
        <ele>613</ele>
        <time>2015-02-01T11:08:32Z</time>
      </trkpt>
      <trkpt lat="49.8757" lon="5.34666">
        <ele>613</ele>
        <time>2015-02-01T11:08:38Z</time>
      </trkpt>
      <trkpt lat="49.87571" lon="5.34671">
        <ele>612</ele>
        <time>2015-02-01T11:08:43Z</time>
      </trkpt>
      <trkpt lat="49.87571" lon="5.34676">
        <ele>612</ele>
        <time>2015-02-01T11:08:49Z</time>
      </trkpt>
      <trkpt lat="49.87571" lon="5.34684">
        <ele>613</ele>
        <time>2015-02-01T11:08:55Z</time>
      </trkpt>
      <trkpt lat="49.87571" lon="5.3469">
        <ele>614</ele>
        <time>2015-02-01T11:09:00Z</time>
      </trkpt>
      <trkpt lat="49.8757" lon="5.34693">
        <ele>614</ele>
        <time>2015-02-01T11:09:06Z</time>
      </trkpt>
      <trkpt lat="49.87569" lon="5.34698">
        <ele>613</ele>
        <time>2015-02-01T11:09:12Z</time>
      </trkpt>
      <trkpt lat="49.87568" lon="5.34701">
        <ele>614</ele>
        <time>2015-02-01T11:09:17Z</time>
      </trkpt>
      <trkpt lat="49.87568" lon="5.34705">
        <ele>614</ele>
        <time>2015-02-01T11:09:23Z</time>
      </trkpt>
      <trkpt lat="49.87568" lon="5.34707">
        <ele>614</ele>
        <time>2015-02-01T11:09:28Z</time>
      </trkpt>
      <trkpt lat="49.87568" lon="5.34708">
        <ele>614</ele>
        <time>2015-02-01T11:09:34Z</time>
      </trkpt>
      <trkpt lat="49.87571" lon="5.34711">
        <ele>614</ele>
        <time>2015-02-01T11:09:39Z</time>
      </trkpt>
      <trkpt lat="49.87572" lon="5.34712">
        <ele>614</ele>
        <time>2015-02-01T11:09:46Z</time>
      </trkpt>
      <trkpt lat="49.87572" lon="5.34712">
        <ele>614</ele>
        <time>2015-02-01T11:09:52Z</time>
      </trkpt>
      <trkpt lat="49.87572" lon="5.34711">
        <ele>614</ele>
        <time>2015-02-01T11:09:58Z</time>
      </trkpt>
      <trkpt lat="49.87573" lon="5.34712">
        <ele>614</ele>
        <time>2015-02-01T11:10:03Z</time>
      </trkpt>
      <trkpt lat="49.87574" lon="5.34713">
        <ele>613</ele>
        <time>2015-02-01T11:10:08Z</time>
      </trkpt>
      <trkpt lat="49.87573" lon="5.34715">
        <ele>614</ele>
        <time>2015-02-01T11:10:14Z</time>
      </trkpt>
      <trkpt lat="49.87572" lon="5.34715">
        <ele>614</ele>
        <time>2015-02-01T11:10:19Z</time>
      </trkpt>
      <trkpt lat="49.87571" lon="5.34718">
        <ele>614</ele>
        <time>2015-02-01T11:10:25Z</time>
      </trkpt>
      <trkpt lat="49.8757" lon="5.34717">
        <ele>614</ele>
        <time>2015-02-01T11:10:32Z</time>
      </trkpt>
      <trkpt lat="49.87569" lon="5.34717">
        <ele>614</ele>
        <time>2015-02-01T11:10:39Z</time>
      </trkpt>
      <trkpt lat="49.87571" lon="5.34719">
        <ele>614</ele>
        <time>2015-02-01T11:10:44Z</time>
      </trkpt>
      <trkpt lat="49.87571" lon="5.34721">
        <ele>615</ele>
        <time>2015-02-01T11:10:50Z</time>
      </trkpt>
      <trkpt lat="49.87569" lon="5.34721">
        <ele>614</ele>
        <time>2015-02-01T11:10:56Z</time>
      </trkpt>
      <trkpt lat="49.87568" lon="5.34721">
        <ele>615</ele>
        <time>2015-02-01T11:11:02Z</time>
      </trkpt>
      <trkpt lat="49.87567" lon="5.34722">
        <ele>615</ele>
        <time>2015-02-01T11:11:07Z</time>
      </trkpt>
      <trkpt lat="49.87566" lon="5.34722">
        <ele>614</ele>
        <time>2015-02-01T11:11:12Z</time>
      </trkpt>
      <trkpt lat="49.87565" lon="5.34726">
        <ele>614</ele>
        <time>2015-02-01T11:11:17Z</time>
      </trkpt>
      <trkpt lat="49.87564" lon="5.34731">
        <ele>615</ele>
        <time>2015-02-01T11:11:22Z</time>
      </trkpt>
      <trkpt lat="49.87565" lon="5.34735">
        <ele>615</ele>
        <time>2015-02-01T11:11:27Z</time>
      </trkpt>
      <trkpt lat="49.87565" lon="5.3474">
        <ele>615</ele>
        <time>2015-02-01T11:11:32Z</time>
      </trkpt>
      <trkpt lat="49.87566" lon="5.34746">
        <ele>616</ele>
        <time>2015-02-01T11:11:38Z</time>
      </trkpt>
      <trkpt lat="49.87567" lon="5.3475">
        <ele>616</ele>
        <time>2015-02-01T11:11:43Z</time>
      </trkpt>
      <trkpt lat="49.87567" lon="5.3475">
        <ele>616</ele>
        <time>2015-02-01T11:11:49Z</time>
      </trkpt>
      <trkpt lat="49.87565" lon="5.34753">
        <ele>616</ele>
        <time>2015-02-01T11:11:54Z</time>
      </trkpt>
      <trkpt lat="49.87564" lon="5.34759">
        <ele>616</ele>
        <time>2015-02-01T11:11:59Z</time>
      </trkpt>
      <trkpt lat="49.87564" lon="5.3476">
        <ele>617</ele>
        <time>2015-02-01T11:12:05Z</time>
      </trkpt>
      <trkpt lat="49.87563" lon="5.34763">
        <ele>617</ele>
        <time>2015-02-01T11:12:11Z</time>
      </trkpt>
      <trkpt lat="49.87562" lon="5.34768">
        <ele>617</ele>
        <time>2015-02-01T11:12:17Z</time>
      </trkpt>
      <trkpt lat="49.87562" lon="5.34769">
        <ele>617</ele>
        <time>2015-02-01T11:12:22Z</time>
      </trkpt>
      <trkpt lat="49.87562" lon="5.3477">
        <ele>617</ele>
        <time>2015-02-01T11:12:29Z</time>
      </trkpt>
      <trkpt lat="49.87562" lon="5.34773">
        <ele>616</ele>
        <time>2015-02-01T11:12:35Z</time>
      </trkpt>
      <trkpt lat="49.87562" lon="5.34773">
        <ele>617</ele>
        <time>2015-02-01T11:12:40Z</time>
      </trkpt>
      <trkpt lat="49.87561" lon="5.34771">
        <ele>617</ele>
        <time>2015-02-01T11:12:45Z</time>
      </trkpt>
      <trkpt lat="49.87562" lon="5.34769">
        <ele>617</ele>
        <time>2015-02-01T11:12:51Z</time>
      </trkpt>
      <trkpt lat="49.87563" lon="5.34768">
        <ele>617</ele>
        <time>2015-02-01T11:12:56Z</time>
      </trkpt>
      <trkpt lat="49.87563" lon="5.34767">
        <ele>616</ele>
        <time>2015-02-01T11:13:02Z</time>
      </trkpt>
      <trkpt lat="49.87562" lon="5.3477">
        <ele>617</ele>
        <time>2015-02-01T11:13:07Z</time>
      </trkpt>
      <trkpt lat="49.87561" lon="5.34777">
        <ele>617</ele>
        <time>2015-02-01T11:13:12Z</time>
      </trkpt>
      <trkpt lat="49.87561" lon="5.34785">
        <ele>617</ele>
        <time>2015-02-01T11:13:18Z</time>
      </trkpt>
      <trkpt lat="49.8756" lon="5.34793">
        <ele>618</ele>
        <time>2015-02-01T11:13:23Z</time>
      </trkpt>
      <trkpt lat="49.87559" lon="5.34801">
        <ele>618</ele>
        <time>2015-02-01T11:13:28Z</time>
      </trkpt>
      <trkpt lat="49.87558" lon="5.34811">
        <ele>618</ele>
        <time>2015-02-01T11:13:34Z</time>
      </trkpt>
      <trkpt lat="49.87557" lon="5.34821">
        <ele>618</ele>
        <time>2015-02-01T11:13:40Z</time>
      </trkpt>
      <trkpt lat="49.87556" lon="5.3483">
        <ele>618</ele>
        <time>2015-02-01T11:13:45Z</time>
      </trkpt>
      <trkpt lat="49.87555" lon="5.3484">
        <ele>618</ele>
        <time>2015-02-01T11:13:50Z</time>
      </trkpt>
      <trkpt lat="49.87555" lon="5.34849">
        <ele>617</ele>
        <time>2015-02-01T11:13:55Z</time>
      </trkpt>
      <trkpt lat="49.87553" lon="5.34859">
        <ele>617</ele>
        <time>2015-02-01T11:14:00Z</time>
      </trkpt>
      <trkpt lat="49.87552" lon="5.34868">
        <ele>617</ele>
        <time>2015-02-01T11:14:05Z</time>
      </trkpt>
      <trkpt lat="49.8755" lon="5.34878">
        <ele>617</ele>
        <time>2015-02-01T11:14:10Z</time>
      </trkpt>
      <trkpt lat="49.87549" lon="5.34887">
        <ele>617</ele>
        <time>2015-02-01T11:14:15Z</time>
      </trkpt>
      <trkpt lat="49.87548" lon="5.34898">
        <ele>616</ele>
        <time>2015-02-01T11:14:21Z</time>
      </trkpt>
      <trkpt lat="49.87547" lon="5.34908">
        <ele>615</ele>
        <time>2015-02-01T11:14:26Z</time>
      </trkpt>
      <trkpt lat="49.87546" lon="5.34917">
        <ele>615</ele>
        <time>2015-02-01T11:14:31Z</time>
      </trkpt>
      <trkpt lat="49.87545" lon="5.34929">
        <ele>615</ele>
        <time>2015-02-01T11:14:37Z</time>
      </trkpt>
      <trkpt lat="49.87544" lon="5.34941">
        <ele>615</ele>
        <time>2015-02-01T11:14:43Z</time>
      </trkpt>
      <trkpt lat="49.87543" lon="5.34952">
        <ele>615</ele>
        <time>2015-02-01T11:14:49Z</time>
      </trkpt>
      <trkpt lat="49.87542" lon="5.34964">
        <ele>616</ele>
        <time>2015-02-01T11:14:55Z</time>
      </trkpt>
      <trkpt lat="49.87541" lon="5.34973">
        <ele>615</ele>
        <time>2015-02-01T11:15:00Z</time>
      </trkpt>
      <trkpt lat="49.8754" lon="5.34983">
        <ele>615</ele>
        <time>2015-02-01T11:15:05Z</time>
      </trkpt>
      <trkpt lat="49.8754" lon="5.34991">
        <ele>615</ele>
        <time>2015-02-01T11:15:10Z</time>
      </trkpt>
      <trkpt lat="49.8754" lon="5.35002">
        <ele>615</ele>
        <time>2015-02-01T11:15:16Z</time>
      </trkpt>
      <trkpt lat="49.87539" lon="5.35013">
        <ele>617</ele>
        <time>2015-02-01T11:15:22Z</time>
      </trkpt>
      <trkpt lat="49.87538" lon="5.35024">
        <ele>617</ele>
        <time>2015-02-01T11:15:28Z</time>
      </trkpt>
      <trkpt lat="49.87538" lon="5.35033">
        <ele>616</ele>
        <time>2015-02-01T11:15:33Z</time>
      </trkpt>
      <trkpt lat="49.87536" lon="5.35043">
        <ele>618</ele>
        <time>2015-02-01T11:15:39Z</time>
      </trkpt>
      <trkpt lat="49.87535" lon="5.35052">
        <ele>618</ele>
        <time>2015-02-01T11:15:44Z</time>
      </trkpt>
      <trkpt lat="49.87534" lon="5.3506">
        <ele>618</ele>
        <time>2015-02-01T11:15:49Z</time>
      </trkpt>
      <trkpt lat="49.87533" lon="5.3507">
        <ele>618</ele>
        <time>2015-02-01T11:15:55Z</time>
      </trkpt>
      <trkpt lat="49.87533" lon="5.35077">
        <ele>619</ele>
        <time>2015-02-01T11:16:01Z</time>
      </trkpt>
      <trkpt lat="49.87534" lon="5.35077">
        <ele>620</ele>
        <time>2015-02-01T11:16:06Z</time>
      </trkpt>
      <trkpt lat="49.87534" lon="5.35077">
        <ele>620</ele>
        <time>2015-02-01T11:16:11Z</time>
      </trkpt>
      <trkpt lat="49.87533" lon="5.3508">
        <ele>620</ele>
        <time>2015-02-01T11:16:17Z</time>
      </trkpt>
      <trkpt lat="49.87532" lon="5.35083">
        <ele>620</ele>
        <time>2015-02-01T11:16:22Z</time>
      </trkpt>
      <trkpt lat="49.87532" lon="5.35084">
        <ele>621</ele>
        <time>2015-02-01T11:16:28Z</time>
      </trkpt>
      <trkpt lat="49.87532" lon="5.35083">
        <ele>620</ele>
        <time>2015-02-01T11:16:33Z</time>
      </trkpt>
      <trkpt lat="49.87531" lon="5.35081">
        <ele>621</ele>
        <time>2015-02-01T11:16:38Z</time>
      </trkpt>
      <trkpt lat="49.87532" lon="5.3508">
        <ele>620</ele>
        <time>2015-02-01T11:16:43Z</time>
      </trkpt>
      <trkpt lat="49.87533" lon="5.35079">
        <ele>620</ele>
        <time>2015-02-01T11:16:49Z</time>
      </trkpt>
      <trkpt lat="49.87533" lon="5.35079">
        <ele>620</ele>
        <time>2015-02-01T11:16:57Z</time>
      </trkpt>
      <trkpt lat="49.87533" lon="5.35079">
        <ele>620</ele>
        <time>2015-02-01T11:17:02Z</time>
      </trkpt>
      <trkpt lat="49.87532" lon="5.35078">
        <ele>620</ele>
        <time>2015-02-01T11:17:07Z</time>
      </trkpt>
      <trkpt lat="49.87532" lon="5.35078">
        <ele>620</ele>
        <time>2015-02-01T11:17:13Z</time>
      </trkpt>
      <trkpt lat="49.87532" lon="5.35078">
        <ele>620</ele>
        <time>2015-02-01T11:17:18Z</time>
      </trkpt>
      <trkpt lat="49.87537" lon="5.35074">
        <ele>620</ele>
        <time>2015-02-01T11:17:24Z</time>
      </trkpt>
      <trkpt lat="49.87538" lon="5.35075">
        <ele>620</ele>
        <time>2015-02-01T11:17:29Z</time>
      </trkpt>
      <trkpt lat="49.87538" lon="5.35076">
        <ele>620</ele>
        <time>2015-02-01T11:17:34Z</time>
      </trkpt>
      <trkpt lat="49.87534" lon="5.35078">
        <ele>621</ele>
        <time>2015-02-01T11:17:40Z</time>
      </trkpt>
      <trkpt lat="49.87533" lon="5.3508">
        <ele>621</ele>
        <time>2015-02-01T11:17:45Z</time>
      </trkpt>
      <trkpt lat="49.87533" lon="5.35079">
        <ele>620</ele>
        <time>2015-02-01T11:17:51Z</time>
      </trkpt>
      <trkpt lat="49.87533" lon="5.35079">
        <ele>620</ele>
        <time>2015-02-01T11:17:56Z</time>
      </trkpt>
      <trkpt lat="49.87537" lon="5.35077">
        <ele>620</ele>
        <time>2015-02-01T11:18:02Z</time>
      </trkpt>
      <trkpt lat="49.87535" lon="5.35078">
        <ele>619</ele>
        <time>2015-02-01T11:18:08Z</time>
      </trkpt>
      <trkpt lat="49.87535" lon="5.35079">
        <ele>619</ele>
        <time>2015-02-01T11:18:14Z</time>
      </trkpt>
      <trkpt lat="49.87537" lon="5.35079">
        <ele>619</ele>
        <time>2015-02-01T11:18:20Z</time>
      </trkpt>
      <trkpt lat="49.8754" lon="5.35079">
        <ele>620</ele>
        <time>2015-02-01T11:18:26Z</time>
      </trkpt>
      <trkpt lat="49.87542" lon="5.35079">
        <ele>620</ele>
        <time>2015-02-01T11:18:31Z</time>
      </trkpt>
      <trkpt lat="49.87544" lon="5.35079">
        <ele>620</ele>
        <time>2015-02-01T11:18:37Z</time>
      </trkpt>
      <trkpt lat="49.87545" lon="5.3508">
        <ele>619</ele>
        <time>2015-02-01T11:18:42Z</time>
      </trkpt>
      <trkpt lat="49.87546" lon="5.35078">
        <ele>620</ele>
        <time>2015-02-01T11:18:49Z</time>
      </trkpt>
      <trkpt lat="49.87545" lon="5.35078">
        <ele>621</ele>
        <time>2015-02-01T11:18:54Z</time>
      </trkpt>
      <trkpt lat="49.87545" lon="5.35079">
        <ele>621</ele>
        <time>2015-02-01T11:19:00Z</time>
      </trkpt>
      <trkpt lat="49.87544" lon="5.35079">
        <ele>621</ele>
        <time>2015-02-01T11:19:05Z</time>
      </trkpt>
      <trkpt lat="49.87542" lon="5.35078">
        <ele>621</ele>
        <time>2015-02-01T11:19:11Z</time>
      </trkpt>
      <trkpt lat="49.87542" lon="5.35078">
        <ele>621</ele>
        <time>2015-02-01T11:19:16Z</time>
      </trkpt>
      <trkpt lat="49.87542" lon="5.35084">
        <ele>621</ele>
        <time>2015-02-01T11:19:21Z</time>
      </trkpt>
      <trkpt lat="49.8754" lon="5.35092">
        <ele>620</ele>
        <time>2015-02-01T11:19:26Z</time>
      </trkpt>
      <trkpt lat="49.87538" lon="5.35102">
        <ele>621</ele>
        <time>2015-02-01T11:19:32Z</time>
      </trkpt>
      <trkpt lat="49.87537" lon="5.35112">
        <ele>622</ele>
        <time>2015-02-01T11:19:38Z</time>
      </trkpt>
      <trkpt lat="49.87535" lon="5.35122">
        <ele>623</ele>
        <time>2015-02-01T11:19:44Z</time>
      </trkpt>
      <trkpt lat="49.87534" lon="5.35131">
        <ele>623</ele>
        <time>2015-02-01T11:19:49Z</time>
      </trkpt>
      <trkpt lat="49.87532" lon="5.35141">
        <ele>624</ele>
        <time>2015-02-01T11:19:55Z</time>
      </trkpt>
      <trkpt lat="49.87529" lon="5.35149">
        <ele>625</ele>
        <time>2015-02-01T11:20:00Z</time>
      </trkpt>
      <trkpt lat="49.87527" lon="5.35159">
        <ele>626</ele>
        <time>2015-02-01T11:20:06Z</time>
      </trkpt>
      <trkpt lat="49.87526" lon="5.35166">
        <ele>626</ele>
        <time>2015-02-01T11:20:11Z</time>
      </trkpt>
      <trkpt lat="49.87526" lon="5.35168">
        <ele>625</ele>
        <time>2015-02-01T11:20:17Z</time>
      </trkpt>
      <trkpt lat="49.87526" lon="5.35172">
        <ele>626</ele>
        <time>2015-02-01T11:20:23Z</time>
      </trkpt>
      <trkpt lat="49.87524" lon="5.35181">
        <ele>627</ele>
        <time>2015-02-01T11:20:28Z</time>
      </trkpt>
      <trkpt lat="49.87523" lon="5.35191">
        <ele>627</ele>
        <time>2015-02-01T11:20:34Z</time>
      </trkpt>
      <trkpt lat="49.87521" lon="5.352">
        <ele>628</ele>
        <time>2015-02-01T11:20:39Z</time>
      </trkpt>
      <trkpt lat="49.87521" lon="5.3521">
        <ele>628</ele>
        <time>2015-02-01T11:20:45Z</time>
      </trkpt>
      <trkpt lat="49.87519" lon="5.35221">
        <ele>628</ele>
        <time>2015-02-01T11:20:51Z</time>
      </trkpt>
      <trkpt lat="49.87518" lon="5.35232">
        <ele>629</ele>
        <time>2015-02-01T11:20:57Z</time>
      </trkpt>
      <trkpt lat="49.87516" lon="5.35241">
        <ele>629</ele>
        <time>2015-02-01T11:21:03Z</time>
      </trkpt>
      <trkpt lat="49.87515" lon="5.3525">
        <ele>629</ele>
        <time>2015-02-01T11:21:08Z</time>
      </trkpt>
      <trkpt lat="49.87515" lon="5.35261">
        <ele>629</ele>
        <time>2015-02-01T11:21:14Z</time>
      </trkpt>
      <trkpt lat="49.87514" lon="5.3527">
        <ele>630</ele>
        <time>2015-02-01T11:21:19Z</time>
      </trkpt>
      <trkpt lat="49.87513" lon="5.3528">
        <ele>631</ele>
        <time>2015-02-01T11:21:25Z</time>
      </trkpt>
      <trkpt lat="49.87512" lon="5.35291">
        <ele>631</ele>
        <time>2015-02-01T11:21:31Z</time>
      </trkpt>
      <trkpt lat="49.87511" lon="5.35302">
        <ele>631</ele>
        <time>2015-02-01T11:21:37Z</time>
      </trkpt>
      <trkpt lat="49.8751" lon="5.35314">
        <ele>632</ele>
        <time>2015-02-01T11:21:43Z</time>
      </trkpt>
      <trkpt lat="49.87509" lon="5.35326">
        <ele>632</ele>
        <time>2015-02-01T11:21:49Z</time>
      </trkpt>
      <trkpt lat="49.87508" lon="5.35336">
        <ele>632</ele>
        <time>2015-02-01T11:21:55Z</time>
      </trkpt>
      <trkpt lat="49.87507" lon="5.35344">
        <ele>632</ele>
        <time>2015-02-01T11:22:00Z</time>
      </trkpt>
      <trkpt lat="49.87506" lon="5.35353">
        <ele>632</ele>
        <time>2015-02-01T11:22:05Z</time>
      </trkpt>
      <trkpt lat="49.87505" lon="5.35362">
        <ele>632</ele>
        <time>2015-02-01T11:22:10Z</time>
      </trkpt>
      <trkpt lat="49.87504" lon="5.35371">
        <ele>632</ele>
        <time>2015-02-01T11:22:15Z</time>
      </trkpt>
      <trkpt lat="49.87503" lon="5.35381">
        <ele>632</ele>
        <time>2015-02-01T11:22:21Z</time>
      </trkpt>
      <trkpt lat="49.87501" lon="5.35392">
        <ele>633</ele>
        <time>2015-02-01T11:22:27Z</time>
      </trkpt>
      <trkpt lat="49.87499" lon="5.35401">
        <ele>633</ele>
        <time>2015-02-01T11:22:32Z</time>
      </trkpt>
      <trkpt lat="49.87498" lon="5.35412">
        <ele>633</ele>
        <time>2015-02-01T11:22:38Z</time>
      </trkpt>
      <trkpt lat="49.87496" lon="5.35423">
        <ele>632</ele>
        <time>2015-02-01T11:22:44Z</time>
      </trkpt>
      <trkpt lat="49.87496" lon="5.35433">
        <ele>632</ele>
        <time>2015-02-01T11:22:50Z</time>
      </trkpt>
      <trkpt lat="49.87494" lon="5.35445">
        <ele>632</ele>
        <time>2015-02-01T11:22:56Z</time>
      </trkpt>
      <trkpt lat="49.87492" lon="5.35455">
        <ele>632</ele>
        <time>2015-02-01T11:23:01Z</time>
      </trkpt>
      <trkpt lat="49.87491" lon="5.35465">
        <ele>632</ele>
        <time>2015-02-01T11:23:07Z</time>
      </trkpt>
      <trkpt lat="49.8749" lon="5.35474">
        <ele>632</ele>
        <time>2015-02-01T11:23:12Z</time>
      </trkpt>
      <trkpt lat="49.87489" lon="5.35483">
        <ele>632</ele>
        <time>2015-02-01T11:23:17Z</time>
      </trkpt>
      <trkpt lat="49.87489" lon="5.35494">
        <ele>631</ele>
        <time>2015-02-01T11:23:23Z</time>
      </trkpt>
      <trkpt lat="49.87489" lon="5.35503">
        <ele>632</ele>
        <time>2015-02-01T11:23:28Z</time>
      </trkpt>
      <trkpt lat="49.87489" lon="5.35513">
        <ele>632</ele>
        <time>2015-02-01T11:23:34Z</time>
      </trkpt>
      <trkpt lat="49.8749" lon="5.35515">
        <ele>633</ele>
        <time>2015-02-01T11:23:40Z</time>
      </trkpt>
      <trkpt lat="49.8749" lon="5.35524">
        <ele>633</ele>
        <time>2015-02-01T11:23:46Z</time>
      </trkpt>
      <trkpt lat="49.87489" lon="5.35534">
        <ele>633</ele>
        <time>2015-02-01T11:23:52Z</time>
      </trkpt>
      <trkpt lat="49.87488" lon="5.35542">
        <ele>633</ele>
        <time>2015-02-01T11:23:57Z</time>
      </trkpt>
      <trkpt lat="49.87486" lon="5.35552">
        <ele>633</ele>
        <time>2015-02-01T11:24:03Z</time>
      </trkpt>
      <trkpt lat="49.87484" lon="5.35561">
        <ele>633</ele>
        <time>2015-02-01T11:24:09Z</time>
      </trkpt>
      <trkpt lat="49.87484" lon="5.35569">
        <ele>633</ele>
        <time>2015-02-01T11:24:14Z</time>
      </trkpt>
      <trkpt lat="49.87483" lon="5.35578">
        <ele>633</ele>
        <time>2015-02-01T11:24:19Z</time>
      </trkpt>
      <trkpt lat="49.87482" lon="5.3559">
        <ele>633</ele>
        <time>2015-02-01T11:24:25Z</time>
      </trkpt>
      <trkpt lat="49.87481" lon="5.35599">
        <ele>633</ele>
        <time>2015-02-01T11:24:30Z</time>
      </trkpt>
      <trkpt lat="49.8748" lon="5.35611">
        <ele>633</ele>
        <time>2015-02-01T11:24:36Z</time>
      </trkpt>
      <trkpt lat="49.87479" lon="5.35621">
        <ele>632</ele>
        <time>2015-02-01T11:24:41Z</time>
      </trkpt>
      <trkpt lat="49.87478" lon="5.35632">
        <ele>633</ele>
        <time>2015-02-01T11:24:47Z</time>
      </trkpt>
      <trkpt lat="49.87477" lon="5.35641">
        <ele>634</ele>
        <time>2015-02-01T11:24:52Z</time>
      </trkpt>
      <trkpt lat="49.87477" lon="5.35647">
        <ele>634</ele>
        <time>2015-02-01T11:24:58Z</time>
      </trkpt>
      <trkpt lat="49.87477" lon="5.3565">
        <ele>634</ele>
        <time>2015-02-01T11:25:03Z</time>
      </trkpt>
      <trkpt lat="49.87476" lon="5.35653">
        <ele>634</ele>
        <time>2015-02-01T11:25:08Z</time>
      </trkpt>
      <trkpt lat="49.87475" lon="5.35661">
        <ele>634</ele>
        <time>2015-02-01T11:25:14Z</time>
      </trkpt>
      <trkpt lat="49.87474" lon="5.35669">
        <ele>634</ele>
        <time>2015-02-01T11:25:19Z</time>
      </trkpt>
      <trkpt lat="49.87474" lon="5.35677">
        <ele>634</ele>
        <time>2015-02-01T11:25:24Z</time>
      </trkpt>
      <trkpt lat="49.87473" lon="5.35686">
        <ele>634</ele>
        <time>2015-02-01T11:25:30Z</time>
      </trkpt>
      <trkpt lat="49.87472" lon="5.35695">
        <ele>633</ele>
        <time>2015-02-01T11:25:35Z</time>
      </trkpt>
      <trkpt lat="49.87473" lon="5.35696">
        <ele>633</ele>
        <time>2015-02-01T11:25:40Z</time>
      </trkpt>
      <trkpt lat="49.87472" lon="5.35703">
        <ele>633</ele>
        <time>2015-02-01T11:25:46Z</time>
      </trkpt>
      <trkpt lat="49.87473" lon="5.35704">
        <ele>633</ele>
        <time>2015-02-01T11:25:51Z</time>
      </trkpt>
      <trkpt lat="49.87473" lon="5.35705">
        <ele>634</ele>
        <time>2015-02-01T11:25:57Z</time>
      </trkpt>
      <trkpt lat="49.87474" lon="5.35707">
        <ele>633</ele>
        <time>2015-02-01T11:26:02Z</time>
      </trkpt>
      <trkpt lat="49.87476" lon="5.35707">
        <ele>633</ele>
        <time>2015-02-01T11:26:08Z</time>
      </trkpt>
      <trkpt lat="49.87476" lon="5.35708">
        <ele>633</ele>
        <time>2015-02-01T11:26:14Z</time>
      </trkpt>
      <trkpt lat="49.87477" lon="5.35706">
        <ele>633</ele>
        <time>2015-02-01T11:26:19Z</time>
      </trkpt>
      <trkpt lat="49.87477" lon="5.35705">
        <ele>633</ele>
        <time>2015-02-01T11:26:25Z</time>
      </trkpt>
      <trkpt lat="49.87477" lon="5.35708">
        <ele>633</ele>
        <time>2015-02-01T11:26:31Z</time>
      </trkpt>
      <trkpt lat="49.87476" lon="5.35715">
        <ele>633</ele>
        <time>2015-02-01T11:26:36Z</time>
      </trkpt>
      <trkpt lat="49.87476" lon="5.35715">
        <ele>633</ele>
        <time>2015-02-01T11:26:42Z</time>
      </trkpt>
      <trkpt lat="49.87476" lon="5.35715">
        <ele>633</ele>
        <time>2015-02-01T11:26:50Z</time>
      </trkpt>
      <trkpt lat="49.87476" lon="5.35716">
        <ele>633</ele>
        <time>2015-02-01T11:26:55Z</time>
      </trkpt>
      <trkpt lat="49.87477" lon="5.35717">
        <ele>633</ele>
        <time>2015-02-01T11:27:03Z</time>
      </trkpt>
      <trkpt lat="49.87477" lon="5.35718">
        <ele>633</ele>
        <time>2015-02-01T11:27:09Z</time>
      </trkpt>
      <trkpt lat="49.87477" lon="5.35718">
        <ele>634</ele>
        <time>2015-02-01T11:27:15Z</time>
      </trkpt>
      <trkpt lat="49.87477" lon="5.35719">
        <ele>634</ele>
        <time>2015-02-01T11:27:20Z</time>
      </trkpt>
      <trkpt lat="49.87478" lon="5.35719">
        <ele>633</ele>
        <time>2015-02-01T11:27:25Z</time>
      </trkpt>
      <trkpt lat="49.87477" lon="5.35714">
        <ele>633</ele>
        <time>2015-02-01T11:27:31Z</time>
      </trkpt>
      <trkpt lat="49.87479" lon="5.35709">
        <ele>633</ele>
        <time>2015-02-01T11:27:37Z</time>
      </trkpt>
      <trkpt lat="49.87479" lon="5.35708">
        <ele>632</ele>
        <time>2015-02-01T11:27:42Z</time>
      </trkpt>
      <trkpt lat="49.8748" lon="5.35708">
        <ele>633</ele>
        <time>2015-02-01T11:27:48Z</time>
      </trkpt>
      <trkpt lat="49.8748" lon="5.35707">
        <ele>633</ele>
        <time>2015-02-01T11:27:54Z</time>
      </trkpt>
      <trkpt lat="49.8748" lon="5.35705">
        <ele>633</ele>
        <time>2015-02-01T11:28:00Z</time>
      </trkpt>
      <trkpt lat="49.8748" lon="5.35705">
        <ele>633</ele>
        <time>2015-02-01T11:28:05Z</time>
      </trkpt>
      <trkpt lat="49.87479" lon="5.35704">
        <ele>633</ele>
        <time>2015-02-01T11:28:11Z</time>
      </trkpt>
      <trkpt lat="49.8748" lon="5.35701">
        <ele>633</ele>
        <time>2015-02-01T11:28:17Z</time>
      </trkpt>
      <trkpt lat="49.8748" lon="5.35699">
        <ele>633</ele>
        <time>2015-02-01T11:28:23Z</time>
      </trkpt>
      <trkpt lat="49.87479" lon="5.35701">
        <ele>633</ele>
        <time>2015-02-01T11:28:30Z</time>
      </trkpt>
      <trkpt lat="49.87479" lon="5.35701">
        <ele>633</ele>
        <time>2015-02-01T11:28:36Z</time>
      </trkpt>
      <trkpt lat="49.8748" lon="5.35702">
        <ele>633</ele>
        <time>2015-02-01T11:28:41Z</time>
      </trkpt>
      <trkpt lat="49.87481" lon="5.35702">
        <ele>633</ele>
        <time>2015-02-01T11:28:46Z</time>
      </trkpt>
      <trkpt lat="49.87481" lon="5.35703">
        <ele>633</ele>
        <time>2015-02-01T11:28:52Z</time>
      </trkpt>
      <trkpt lat="49.87482" lon="5.35703">
        <ele>633</ele>
        <time>2015-02-01T11:28:57Z</time>
      </trkpt>
      <trkpt lat="49.87482" lon="5.35703">
        <ele>633</ele>
        <time>2015-02-01T11:29:03Z</time>
      </trkpt>
      <trkpt lat="49.87483" lon="5.35704">
        <ele>633</ele>
        <time>2015-02-01T11:29:09Z</time>
      </trkpt>
      <trkpt lat="49.87481" lon="5.35704">
        <ele>633</ele>
        <time>2015-02-01T11:29:14Z</time>
      </trkpt>
      <trkpt lat="49.87481" lon="5.35705">
        <ele>633</ele>
        <time>2015-02-01T11:29:20Z</time>
      </trkpt>
      <trkpt lat="49.87481" lon="5.35705">
        <ele>633</ele>
        <time>2015-02-01T11:29:25Z</time>
      </trkpt>
      <trkpt lat="49.87481" lon="5.35705">
        <ele>633</ele>
        <time>2015-02-01T11:29:30Z</time>
      </trkpt>
      <trkpt lat="49.87478" lon="5.35709">
        <ele>633</ele>
        <time>2015-02-01T11:29:36Z</time>
      </trkpt>
      <trkpt lat="49.87477" lon="5.35712">
        <ele>633</ele>
        <time>2015-02-01T11:29:41Z</time>
      </trkpt>
      <trkpt lat="49.87476" lon="5.35713">
        <ele>633</ele>
        <time>2015-02-01T11:29:47Z</time>
      </trkpt>
      <trkpt lat="49.87476" lon="5.35719">
        <ele>633</ele>
        <time>2015-02-01T11:29:53Z</time>
      </trkpt>
      <trkpt lat="49.87474" lon="5.35725">
        <ele>633</ele>
        <time>2015-02-01T11:29:59Z</time>
      </trkpt>
      <trkpt lat="49.87474" lon="5.3573">
        <ele>633</ele>
        <time>2015-02-01T11:30:05Z</time>
      </trkpt>
      <trkpt lat="49.87472" lon="5.35737">
        <ele>632</ele>
        <time>2015-02-01T11:30:10Z</time>
      </trkpt>
      <trkpt lat="49.87471" lon="5.35747">
        <ele>633</ele>
        <time>2015-02-01T11:30:16Z</time>
      </trkpt>
      <trkpt lat="49.87471" lon="5.35753">
        <ele>632</ele>
        <time>2015-02-01T11:30:21Z</time>
      </trkpt>
      <trkpt lat="49.8747" lon="5.3576">
        <ele>632</ele>
        <time>2015-02-01T11:30:26Z</time>
      </trkpt>
      <trkpt lat="49.8747" lon="5.3577">
        <ele>632</ele>
        <time>2015-02-01T11:30:32Z</time>
      </trkpt>
      <trkpt lat="49.87469" lon="5.35779">
        <ele>632</ele>
        <time>2015-02-01T11:30:38Z</time>
      </trkpt>
      <trkpt lat="49.87468" lon="5.35786">
        <ele>632</ele>
        <time>2015-02-01T11:30:43Z</time>
      </trkpt>
      <trkpt lat="49.87467" lon="5.35797">
        <ele>632</ele>
        <time>2015-02-01T11:30:49Z</time>
      </trkpt>
      <trkpt lat="49.87467" lon="5.35805">
        <ele>631</ele>
        <time>2015-02-01T11:30:54Z</time>
      </trkpt>
      <trkpt lat="49.87466" lon="5.35816">
        <ele>631</ele>
        <time>2015-02-01T11:31:00Z</time>
      </trkpt>
      <trkpt lat="49.87465" lon="5.35826">
        <ele>631</ele>
        <time>2015-02-01T11:31:06Z</time>
      </trkpt>
      <trkpt lat="49.87463" lon="5.35835">
        <ele>631</ele>
        <time>2015-02-01T11:31:11Z</time>
      </trkpt>
      <trkpt lat="49.87462" lon="5.35845">
        <ele>631</ele>
        <time>2015-02-01T11:31:17Z</time>
      </trkpt>
      <trkpt lat="49.8746" lon="5.35854">
        <ele>631</ele>
        <time>2015-02-01T11:31:23Z</time>
      </trkpt>
      <trkpt lat="49.87459" lon="5.35864">
        <ele>631</ele>
        <time>2015-02-01T11:31:29Z</time>
      </trkpt>
      <trkpt lat="49.87457" lon="5.35874">
        <ele>630</ele>
        <time>2015-02-01T11:31:35Z</time>
      </trkpt>
      <trkpt lat="49.87455" lon="5.35884">
        <ele>630</ele>
        <time>2015-02-01T11:31:41Z</time>
      </trkpt>
      <trkpt lat="49.87453" lon="5.35894">
        <ele>630</ele>
        <time>2015-02-01T11:31:47Z</time>
      </trkpt>
      <trkpt lat="49.87452" lon="5.35903">
        <ele>630</ele>
        <time>2015-02-01T11:31:53Z</time>
      </trkpt>
      <trkpt lat="49.87451" lon="5.35912">
        <ele>630</ele>
        <time>2015-02-01T11:31:58Z</time>
      </trkpt>
      <trkpt lat="49.8745" lon="5.35922">
        <ele>630</ele>
        <time>2015-02-01T11:32:04Z</time>
      </trkpt>
      <trkpt lat="49.87449" lon="5.35932">
        <ele>629</ele>
        <time>2015-02-01T11:32:10Z</time>
      </trkpt>
      <trkpt lat="49.87448" lon="5.35933">
        <ele>629</ele>
        <time>2015-02-01T11:32:16Z</time>
      </trkpt>
      <trkpt lat="49.87446" lon="5.35934">
        <ele>628</ele>
        <time>2015-02-01T11:32:21Z</time>
      </trkpt>
      <trkpt lat="49.87445" lon="5.35932">
        <ele>628</ele>
        <time>2015-02-01T11:32:27Z</time>
      </trkpt>
      <trkpt lat="49.87445" lon="5.35933">
        <ele>628</ele>
        <time>2015-02-01T11:32:33Z</time>
      </trkpt>
      <trkpt lat="49.87446" lon="5.35935">
        <ele>628</ele>
        <time>2015-02-01T11:32:38Z</time>
      </trkpt>
      <trkpt lat="49.87447" lon="5.35941">
        <ele>628</ele>
        <time>2015-02-01T11:32:44Z</time>
      </trkpt>
      <trkpt lat="49.87445" lon="5.35949">
        <ele>628</ele>
        <time>2015-02-01T11:32:49Z</time>
      </trkpt>
      <trkpt lat="49.87444" lon="5.35959">
        <ele>627</ele>
        <time>2015-02-01T11:32:55Z</time>
      </trkpt>
      <trkpt lat="49.87443" lon="5.35967">
        <ele>627</ele>
        <time>2015-02-01T11:33:00Z</time>
      </trkpt>
      <trkpt lat="49.87442" lon="5.35977">
        <ele>627</ele>
        <time>2015-02-01T11:33:06Z</time>
      </trkpt>
      <trkpt lat="49.87441" lon="5.35988">
        <ele>627</ele>
        <time>2015-02-01T11:33:12Z</time>
      </trkpt>
      <trkpt lat="49.8744" lon="5.35996">
        <ele>626</ele>
        <time>2015-02-01T11:33:17Z</time>
      </trkpt>
      <trkpt lat="49.87439" lon="5.36007">
        <ele>626</ele>
        <time>2015-02-01T11:33:23Z</time>
      </trkpt>
      <trkpt lat="49.87437" lon="5.36019">
        <ele>626</ele>
        <time>2015-02-01T11:33:29Z</time>
      </trkpt>
      <trkpt lat="49.87436" lon="5.36029">
        <ele>626</ele>
        <time>2015-02-01T11:33:35Z</time>
      </trkpt>
      <trkpt lat="49.87434" lon="5.36037">
        <ele>626</ele>
        <time>2015-02-01T11:33:40Z</time>
      </trkpt>
      <trkpt lat="49.87432" lon="5.36046">
        <ele>625</ele>
        <time>2015-02-01T11:33:45Z</time>
      </trkpt>
      <trkpt lat="49.87431" lon="5.36056">
        <ele>626</ele>
        <time>2015-02-01T11:33:51Z</time>
      </trkpt>
      <trkpt lat="49.87431" lon="5.36066">
        <ele>626</ele>
        <time>2015-02-01T11:33:56Z</time>
      </trkpt>
      <trkpt lat="49.87432" lon="5.36069">
        <ele>625</ele>
        <time>2015-02-01T11:34:01Z</time>
      </trkpt>
      <trkpt lat="49.87433" lon="5.36073">
        <ele>625</ele>
        <time>2015-02-01T11:34:06Z</time>
      </trkpt>
      <trkpt lat="49.87434" lon="5.36074">
        <ele>625</ele>
        <time>2015-02-01T11:34:11Z</time>
      </trkpt>
      <trkpt lat="49.87434" lon="5.36077">
        <ele>625</ele>
        <time>2015-02-01T11:34:17Z</time>
      </trkpt>
      <trkpt lat="49.87435" lon="5.36079">
        <ele>626</ele>
        <time>2015-02-01T11:34:22Z</time>
      </trkpt>
      <trkpt lat="49.87434" lon="5.36081">
        <ele>626</ele>
        <time>2015-02-01T11:34:27Z</time>
      </trkpt>
      <trkpt lat="49.87435" lon="5.36084">
        <ele>625</ele>
        <time>2015-02-01T11:34:33Z</time>
      </trkpt>
      <trkpt lat="49.87434" lon="5.36086">
        <ele>625</ele>
        <time>2015-02-01T11:34:38Z</time>
      </trkpt>
      <trkpt lat="49.87432" lon="5.36088">
        <ele>625</ele>
        <time>2015-02-01T11:34:43Z</time>
      </trkpt>
      <trkpt lat="49.87432" lon="5.36091">
        <ele>625</ele>
        <time>2015-02-01T11:34:48Z</time>
      </trkpt>
      <trkpt lat="49.87432" lon="5.36092">
        <ele>624</ele>
        <time>2015-02-01T11:34:54Z</time>
      </trkpt>
      <trkpt lat="49.87433" lon="5.36092">
        <ele>625</ele>
        <time>2015-02-01T11:34:59Z</time>
      </trkpt>
      <trkpt lat="49.87434" lon="5.36092">
        <ele>625</ele>
        <time>2015-02-01T11:35:05Z</time>
      </trkpt>
      <trkpt lat="49.87434" lon="5.36092">
        <ele>625</ele>
        <time>2015-02-01T11:35:10Z</time>
      </trkpt>
      <trkpt lat="49.87434" lon="5.36097">
        <ele>625</ele>
        <time>2015-02-01T11:35:16Z</time>
      </trkpt>
      <trkpt lat="49.87433" lon="5.36103">
        <ele>625</ele>
        <time>2015-02-01T11:35:21Z</time>
      </trkpt>
      <trkpt lat="49.87432" lon="5.36111">
        <ele>625</ele>
        <time>2015-02-01T11:35:27Z</time>
      </trkpt>
      <trkpt lat="49.8743" lon="5.36119">
        <ele>625</ele>
        <time>2015-02-01T11:35:32Z</time>
      </trkpt>
      <trkpt lat="49.87428" lon="5.36128">
        <ele>625</ele>
        <time>2015-02-01T11:35:38Z</time>
      </trkpt>
      <trkpt lat="49.87427" lon="5.36138">
        <ele>625</ele>
        <time>2015-02-01T11:35:44Z</time>
      </trkpt>
      <trkpt lat="49.87426" lon="5.36146">
        <ele>625</ele>
        <time>2015-02-01T11:35:49Z</time>
      </trkpt>
      <trkpt lat="49.87424" lon="5.36156">
        <ele>625</ele>
        <time>2015-02-01T11:35:55Z</time>
      </trkpt>
      <trkpt lat="49.87423" lon="5.36163">
        <ele>624</ele>
        <time>2015-02-01T11:36:00Z</time>
      </trkpt>
      <trkpt lat="49.87421" lon="5.36171">
        <ele>625</ele>
        <time>2015-02-01T11:36:06Z</time>
      </trkpt>
      <trkpt lat="49.8742" lon="5.3618">
        <ele>625</ele>
        <time>2015-02-01T11:36:11Z</time>
      </trkpt>
      <trkpt lat="49.8742" lon="5.3619">
        <ele>625</ele>
        <time>2015-02-01T11:36:16Z</time>
      </trkpt>
      <trkpt lat="49.8742" lon="5.362">
        <ele>625</ele>
        <time>2015-02-01T11:36:22Z</time>
      </trkpt>
      <trkpt lat="49.87421" lon="5.3621">
        <ele>624</ele>
        <time>2015-02-01T11:36:27Z</time>
      </trkpt>
      <trkpt lat="49.87421" lon="5.3622">
        <ele>624</ele>
        <time>2015-02-01T11:36:32Z</time>
      </trkpt>
      <trkpt lat="49.8742" lon="5.36232">
        <ele>624</ele>
        <time>2015-02-01T11:36:38Z</time>
      </trkpt>
      <trkpt lat="49.8742" lon="5.36245">
        <ele>624</ele>
        <time>2015-02-01T11:36:44Z</time>
      </trkpt>
      <trkpt lat="49.8742" lon="5.36256">
        <ele>625</ele>
        <time>2015-02-01T11:36:50Z</time>
      </trkpt>
      <trkpt lat="49.87419" lon="5.36266">
        <ele>624</ele>
        <time>2015-02-01T11:36:55Z</time>
      </trkpt>
      <trkpt lat="49.87417" lon="5.36278">
        <ele>625</ele>
        <time>2015-02-01T11:37:01Z</time>
      </trkpt>
      <trkpt lat="49.87417" lon="5.36288">
        <ele>625</ele>
        <time>2015-02-01T11:37:06Z</time>
      </trkpt>
      <trkpt lat="49.87416" lon="5.363">
        <ele>624</ele>
        <time>2015-02-01T11:37:12Z</time>
      </trkpt>
      <trkpt lat="49.87414" lon="5.3631">
        <ele>625</ele>
        <time>2015-02-01T11:37:17Z</time>
      </trkpt>
      <trkpt lat="49.87412" lon="5.36322">
        <ele>624</ele>
        <time>2015-02-01T11:37:23Z</time>
      </trkpt>
      <trkpt lat="49.8741" lon="5.36334">
        <ele>625</ele>
        <time>2015-02-01T11:37:29Z</time>
      </trkpt>
      <trkpt lat="49.87407" lon="5.36346">
        <ele>624</ele>
        <time>2015-02-01T11:37:35Z</time>
      </trkpt>
      <trkpt lat="49.87406" lon="5.36358">
        <ele>624</ele>
        <time>2015-02-01T11:37:41Z</time>
      </trkpt>
      <trkpt lat="49.87405" lon="5.36368">
        <ele>624</ele>
        <time>2015-02-01T11:37:46Z</time>
      </trkpt>
      <trkpt lat="49.87403" lon="5.36378">
        <ele>624</ele>
        <time>2015-02-01T11:37:51Z</time>
      </trkpt>
      <trkpt lat="49.87402" lon="5.3639">
        <ele>623</ele>
        <time>2015-02-01T11:37:57Z</time>
      </trkpt>
      <trkpt lat="49.87401" lon="5.364">
        <ele>623</ele>
        <time>2015-02-01T11:38:03Z</time>
      </trkpt>
      <trkpt lat="49.87401" lon="5.36411">
        <ele>623</ele>
        <time>2015-02-01T11:38:08Z</time>
      </trkpt>
      <trkpt lat="49.87403" lon="5.36422">
        <ele>623</ele>
        <time>2015-02-01T11:38:14Z</time>
      </trkpt>
      <trkpt lat="49.87405" lon="5.36432">
        <ele>623</ele>
        <time>2015-02-01T11:38:20Z</time>
      </trkpt>
      <trkpt lat="49.87407" lon="5.3644">
        <ele>623</ele>
        <time>2015-02-01T11:38:25Z</time>
      </trkpt>
      <trkpt lat="49.87411" lon="5.3645">
        <ele>623</ele>
        <time>2015-02-01T11:38:31Z</time>
      </trkpt>
      <trkpt lat="49.87413" lon="5.36458">
        <ele>623</ele>
        <time>2015-02-01T11:38:37Z</time>
      </trkpt>
      <trkpt lat="49.87416" lon="5.36465">
        <ele>623</ele>
        <time>2015-02-01T11:38:42Z</time>
      </trkpt>
      <trkpt lat="49.87419" lon="5.36473">
        <ele>623</ele>
        <time>2015-02-01T11:38:47Z</time>
      </trkpt>
      <trkpt lat="49.87421" lon="5.3648">
        <ele>622</ele>
        <time>2015-02-01T11:38:52Z</time>
      </trkpt>
      <trkpt lat="49.87421" lon="5.36491">
        <ele>622</ele>
        <time>2015-02-01T11:38:58Z</time>
      </trkpt>
      <trkpt lat="49.87418" lon="5.36502">
        <ele>622</ele>
        <time>2015-02-01T11:39:04Z</time>
      </trkpt>
      <trkpt lat="49.87414" lon="5.3651">
        <ele>623</ele>
        <time>2015-02-01T11:39:09Z</time>
      </trkpt>
      <trkpt lat="49.8741" lon="5.36519">
        <ele>622</ele>
        <time>2015-02-01T11:39:15Z</time>
      </trkpt>
      <trkpt lat="49.87408" lon="5.36529">
        <ele>623</ele>
        <time>2015-02-01T11:39:21Z</time>
      </trkpt>
      <trkpt lat="49.87404" lon="5.36539">
        <ele>622</ele>
        <time>2015-02-01T11:39:27Z</time>
      </trkpt>
      <trkpt lat="49.874" lon="5.36549">
        <ele>622</ele>
        <time>2015-02-01T11:39:33Z</time>
      </trkpt>
      <trkpt lat="49.87397" lon="5.36558">
        <ele>622</ele>
        <time>2015-02-01T11:39:38Z</time>
      </trkpt>
      <trkpt lat="49.87394" lon="5.36566">
        <ele>622</ele>
        <time>2015-02-01T11:39:43Z</time>
      </trkpt>
      <trkpt lat="49.8739" lon="5.36576">
        <ele>622</ele>
        <time>2015-02-01T11:39:49Z</time>
      </trkpt>
      <trkpt lat="49.87386" lon="5.36581">
        <ele>622</ele>
        <time>2015-02-01T11:39:55Z</time>
      </trkpt>
      <trkpt lat="49.87382" lon="5.36586">
        <ele>622</ele>
        <time>2015-02-01T11:40:00Z</time>
      </trkpt>
      <trkpt lat="49.87377" lon="5.36595">
        <ele>621</ele>
        <time>2015-02-01T11:40:06Z</time>
      </trkpt>
      <trkpt lat="49.87375" lon="5.36603">
        <ele>621</ele>
        <time>2015-02-01T11:40:11Z</time>
      </trkpt>
      <trkpt lat="49.87372" lon="5.36611">
        <ele>621</ele>
        <time>2015-02-01T11:40:16Z</time>
      </trkpt>
      <trkpt lat="49.87368" lon="5.36621">
        <ele>621</ele>
        <time>2015-02-01T11:40:22Z</time>
      </trkpt>
      <trkpt lat="49.87365" lon="5.36628">
        <ele>621</ele>
        <time>2015-02-01T11:40:27Z</time>
      </trkpt>
      <trkpt lat="49.87361" lon="5.36637">
        <ele>621</ele>
        <time>2015-02-01T11:40:32Z</time>
      </trkpt>
      <trkpt lat="49.87356" lon="5.36646">
        <ele>621</ele>
        <time>2015-02-01T11:40:38Z</time>
      </trkpt>
      <trkpt lat="49.87352" lon="5.36654">
        <ele>621</ele>
        <time>2015-02-01T11:40:43Z</time>
      </trkpt>
      <trkpt lat="49.87348" lon="5.36664">
        <ele>620</ele>
        <time>2015-02-01T11:40:49Z</time>
      </trkpt>
      <trkpt lat="49.87344" lon="5.36675">
        <ele>620</ele>
        <time>2015-02-01T11:40:55Z</time>
      </trkpt>
      <trkpt lat="49.87339" lon="5.36682">
        <ele>620</ele>
        <time>2015-02-01T11:41:00Z</time>
      </trkpt>
      <trkpt lat="49.87335" lon="5.3669">
        <ele>620</ele>
        <time>2015-02-01T11:41:06Z</time>
      </trkpt>
      <trkpt lat="49.8733" lon="5.36697">
        <ele>620</ele>
        <time>2015-02-01T11:41:11Z</time>
      </trkpt>
      <trkpt lat="49.87326" lon="5.36703">
        <ele>620</ele>
        <time>2015-02-01T11:41:16Z</time>
      </trkpt>
      <trkpt lat="49.87321" lon="5.36713">
        <ele>619</ele>
        <time>2015-02-01T11:41:22Z</time>
      </trkpt>
      <trkpt lat="49.87317" lon="5.36721">
        <ele>619</ele>
        <time>2015-02-01T11:41:27Z</time>
      </trkpt>
      <trkpt lat="49.87312" lon="5.36732">
        <ele>619</ele>
        <time>2015-02-01T11:41:33Z</time>
      </trkpt>
      <trkpt lat="49.87307" lon="5.36743">
        <ele>619</ele>
        <time>2015-02-01T11:41:39Z</time>
      </trkpt>
      <trkpt lat="49.87302" lon="5.36753">
        <ele>619</ele>
        <time>2015-02-01T11:41:45Z</time>
      </trkpt>
      <trkpt lat="49.87298" lon="5.36762">
        <ele>619</ele>
        <time>2015-02-01T11:41:50Z</time>
      </trkpt>
      <trkpt lat="49.87294" lon="5.36771">
        <ele>619</ele>
        <time>2015-02-01T11:41:55Z</time>
      </trkpt>
      <trkpt lat="49.87289" lon="5.36779">
        <ele>619</ele>
        <time>2015-02-01T11:42:00Z</time>
      </trkpt>
      <trkpt lat="49.87283" lon="5.3679">
        <ele>619</ele>
        <time>2015-02-01T11:42:06Z</time>
      </trkpt>
      <trkpt lat="49.87279" lon="5.36798">
        <ele>619</ele>
        <time>2015-02-01T11:42:11Z</time>
      </trkpt>
      <trkpt lat="49.87273" lon="5.36806">
        <ele>619</ele>
        <time>2015-02-01T11:42:17Z</time>
      </trkpt>
      <trkpt lat="49.87268" lon="5.36812">
        <ele>618</ele>
        <time>2015-02-01T11:42:23Z</time>
      </trkpt>
      <trkpt lat="49.87264" lon="5.36816">
        <ele>618</ele>
        <time>2015-02-01T11:42:29Z</time>
      </trkpt>
      <trkpt lat="49.87259" lon="5.36824">
        <ele>619</ele>
        <time>2015-02-01T11:42:34Z</time>
      </trkpt>
      <trkpt lat="49.87253" lon="5.36832">
        <ele>619</ele>
        <time>2015-02-01T11:42:40Z</time>
      </trkpt>
      <trkpt lat="49.87248" lon="5.36838">
        <ele>619</ele>
        <time>2015-02-01T11:42:45Z</time>
      </trkpt>
      <trkpt lat="49.87243" lon="5.36845">
        <ele>619</ele>
        <time>2015-02-01T11:42:50Z</time>
      </trkpt>
      <trkpt lat="49.87237" lon="5.36851">
        <ele>619</ele>
        <time>2015-02-01T11:42:55Z</time>
      </trkpt>
      <trkpt lat="49.87231" lon="5.36856">
        <ele>619</ele>
        <time>2015-02-01T11:43:00Z</time>
      </trkpt>
      <trkpt lat="49.87226" lon="5.36861">
        <ele>619</ele>
        <time>2015-02-01T11:43:05Z</time>
      </trkpt>
      <trkpt lat="49.87219" lon="5.36867">
        <ele>619</ele>
        <time>2015-02-01T11:43:11Z</time>
      </trkpt>
      <trkpt lat="49.87217" lon="5.36874">
        <ele>619</ele>
        <time>2015-02-01T11:43:17Z</time>
      </trkpt>
      <trkpt lat="49.87216" lon="5.36875">
        <ele>619</ele>
        <time>2015-02-01T11:43:22Z</time>
      </trkpt>
      <trkpt lat="49.87211" lon="5.36877">
        <ele>620</ele>
        <time>2015-02-01T11:43:28Z</time>
      </trkpt>
      <trkpt lat="49.87204" lon="5.36883">
        <ele>620</ele>
        <time>2015-02-01T11:43:34Z</time>
      </trkpt>
      <trkpt lat="49.872" lon="5.36891">
        <ele>620</ele>
        <time>2015-02-01T11:43:40Z</time>
      </trkpt>
      <trkpt lat="49.87201" lon="5.36895">
        <ele>621</ele>
        <time>2015-02-01T11:43:46Z</time>
      </trkpt>
      <trkpt lat="49.87201" lon="5.36896">
        <ele>620</ele>
        <time>2015-02-01T11:43:51Z</time>
      </trkpt>
      <trkpt lat="49.87201" lon="5.36897">
        <ele>620</ele>
        <time>2015-02-01T11:43:56Z</time>
      </trkpt>
      <trkpt lat="49.87201" lon="5.36896">
        <ele>620</ele>
        <time>2015-02-01T11:44:01Z</time>
      </trkpt>
      <trkpt lat="49.87202" lon="5.3689">
        <ele>620</ele>
        <time>2015-02-01T11:44:07Z</time>
      </trkpt>
      <trkpt lat="49.87202" lon="5.36889">
        <ele>620</ele>
        <time>2015-02-01T11:44:12Z</time>
      </trkpt>
      <trkpt lat="49.872" lon="5.36896">
        <ele>621</ele>
        <time>2015-02-01T11:44:18Z</time>
      </trkpt>
      <trkpt lat="49.87197" lon="5.36898">
        <ele>621</ele>
        <time>2015-02-01T11:44:24Z</time>
      </trkpt>
      <trkpt lat="49.872" lon="5.36894">
        <ele>620</ele>
        <time>2015-02-01T11:44:30Z</time>
      </trkpt>
      <trkpt lat="49.872" lon="5.36888">
        <ele>620</ele>
        <time>2015-02-01T11:44:36Z</time>
      </trkpt>
      <trkpt lat="49.87202" lon="5.36885">
        <ele>620</ele>
        <time>2015-02-01T11:44:41Z</time>
      </trkpt>
      <trkpt lat="49.87203" lon="5.36884">
        <ele>620</ele>
        <time>2015-02-01T11:44:46Z</time>
      </trkpt>
      <trkpt lat="49.87203" lon="5.36883">
        <ele>620</ele>
        <time>2015-02-01T11:44:52Z</time>
      </trkpt>
      <trkpt lat="49.87199" lon="5.3688">
        <ele>620</ele>
        <time>2015-02-01T11:44:57Z</time>
      </trkpt>
      <trkpt lat="49.87195" lon="5.36874">
        <ele>620</ele>
        <time>2015-02-01T11:45:03Z</time>
      </trkpt>
      <trkpt lat="49.87194" lon="5.36874">
        <ele>621</ele>
        <time>2015-02-01T11:45:09Z</time>
      </trkpt>
      <trkpt lat="49.87195" lon="5.36876">
        <ele>621</ele>
        <time>2015-02-01T11:45:14Z</time>
      </trkpt>
      <trkpt lat="49.87195" lon="5.36879">
        <ele>620</ele>
        <time>2015-02-01T11:45:19Z</time>
      </trkpt>
      <trkpt lat="49.87194" lon="5.3688">
        <ele>620</ele>
        <time>2015-02-01T11:45:24Z</time>
      </trkpt>
      <trkpt lat="49.87194" lon="5.36881">
        <ele>621</ele>
        <time>2015-02-01T11:45:30Z</time>
      </trkpt>
      <trkpt lat="49.87194" lon="5.36883">
        <ele>621</ele>
        <time>2015-02-01T11:45:36Z</time>
      </trkpt>
      <trkpt lat="49.87197" lon="5.36888">
        <ele>621</ele>
        <time>2015-02-01T11:45:41Z</time>
      </trkpt>
      <trkpt lat="49.87199" lon="5.36893">
        <ele>621</ele>
        <time>2015-02-01T11:45:47Z</time>
      </trkpt>
      <trkpt lat="49.87195" lon="5.36896">
        <ele>621</ele>
        <time>2015-02-01T11:45:52Z</time>
      </trkpt>
      <trkpt lat="49.87191" lon="5.369">
        <ele>621</ele>
        <time>2015-02-01T11:45:58Z</time>
      </trkpt>
      <trkpt lat="49.87189" lon="5.36901">
        <ele>621</ele>
        <time>2015-02-01T11:46:03Z</time>
      </trkpt>
      <trkpt lat="49.87189" lon="5.369">
        <ele>621</ele>
        <time>2015-02-01T11:46:09Z</time>
      </trkpt>
      <trkpt lat="49.87189" lon="5.36899">
        <ele>620</ele>
        <time>2015-02-01T11:46:14Z</time>
      </trkpt>
      <trkpt lat="49.87189" lon="5.36898">
        <ele>620</ele>
        <time>2015-02-01T11:46:19Z</time>
      </trkpt>
      <trkpt lat="49.87189" lon="5.36899">
        <ele>621</ele>
        <time>2015-02-01T11:46:25Z</time>
      </trkpt>
      <trkpt lat="49.87189" lon="5.36899">
        <ele>621</ele>
        <time>2015-02-01T11:46:32Z</time>
      </trkpt>
      <trkpt lat="49.8719" lon="5.36899">
        <ele>622</ele>
        <time>2015-02-01T11:46:37Z</time>
      </trkpt>
      <trkpt lat="49.8719" lon="5.369">
        <ele>621</ele>
        <time>2015-02-01T11:46:44Z</time>
      </trkpt>
      <trkpt lat="49.87194" lon="5.369">
        <ele>621</ele>
        <time>2015-02-01T11:46:50Z</time>
      </trkpt>
      <trkpt lat="49.87197" lon="5.36896">
        <ele>620</ele>
        <time>2015-02-01T11:46:55Z</time>
      </trkpt>
      <trkpt lat="49.872" lon="5.36894">
        <ele>620</ele>
        <time>2015-02-01T11:47:01Z</time>
      </trkpt>
      <trkpt lat="49.87201" lon="5.36893">
        <ele>620</ele>
        <time>2015-02-01T11:47:06Z</time>
      </trkpt>
      <trkpt lat="49.87202" lon="5.36893">
        <ele>619</ele>
        <time>2015-02-01T11:47:12Z</time>
      </trkpt>
      <trkpt lat="49.87203" lon="5.36893">
        <ele>620</ele>
        <time>2015-02-01T11:47:18Z</time>
      </trkpt>
      <trkpt lat="49.87203" lon="5.36895">
        <ele>620</ele>
        <time>2015-02-01T11:47:24Z</time>
      </trkpt>
      <trkpt lat="49.872" lon="5.36895">
        <ele>620</ele>
        <time>2015-02-01T11:47:29Z</time>
      </trkpt>
      <trkpt lat="49.87196" lon="5.36899">
        <ele>620</ele>
        <time>2015-02-01T11:47:34Z</time>
      </trkpt>
      <trkpt lat="49.87193" lon="5.36908">
        <ele>621</ele>
        <time>2015-02-01T11:47:40Z</time>
      </trkpt>
      <trkpt lat="49.87191" lon="5.36919">
        <ele>621</ele>
        <time>2015-02-01T11:47:46Z</time>
      </trkpt>
      <trkpt lat="49.87189" lon="5.36928">
        <ele>620</ele>
        <time>2015-02-01T11:47:51Z</time>
      </trkpt>
      <trkpt lat="49.87187" lon="5.3694">
        <ele>621</ele>
        <time>2015-02-01T11:47:57Z</time>
      </trkpt>
      <trkpt lat="49.87185" lon="5.36951">
        <ele>621</ele>
        <time>2015-02-01T11:48:03Z</time>
      </trkpt>
      <trkpt lat="49.87183" lon="5.36963">
        <ele>620</ele>
        <time>2015-02-01T11:48:09Z</time>
      </trkpt>
      <trkpt lat="49.87182" lon="5.36974">
        <ele>621</ele>
        <time>2015-02-01T11:48:15Z</time>
      </trkpt>
      <trkpt lat="49.8718" lon="5.36985">
        <ele>620</ele>
        <time>2015-02-01T11:48:21Z</time>
      </trkpt>
      <trkpt lat="49.87178" lon="5.36992">
        <ele>620</ele>
        <time>2015-02-01T11:48:26Z</time>
      </trkpt>
      <trkpt lat="49.87174" lon="5.36998">
        <ele>620</ele>
        <time>2015-02-01T11:48:32Z</time>
      </trkpt>
      <trkpt lat="49.87169" lon="5.37004">
        <ele>620</ele>
        <time>2015-02-01T11:48:38Z</time>
      </trkpt>
      <trkpt lat="49.87166" lon="5.37011">
        <ele>619</ele>
        <time>2015-02-01T11:48:43Z</time>
      </trkpt>
      <trkpt lat="49.87166" lon="5.37013">
        <ele>619</ele>
        <time>2015-02-01T11:48:49Z</time>
      </trkpt>
      <trkpt lat="49.87165" lon="5.37013">
        <ele>619</ele>
        <time>2015-02-01T11:48:55Z</time>
      </trkpt>
      <trkpt lat="49.87165" lon="5.37014">
        <ele>620</ele>
        <time>2015-02-01T11:49:02Z</time>
      </trkpt>
      <trkpt lat="49.87164" lon="5.37014">
        <ele>620</ele>
        <time>2015-02-01T11:49:07Z</time>
      </trkpt>
      <trkpt lat="49.87164" lon="5.37013">
        <ele>620</ele>
        <time>2015-02-01T11:49:16Z</time>
      </trkpt>
      <trkpt lat="49.87163" lon="5.37013">
        <ele>619</ele>
        <time>2015-02-01T11:49:22Z</time>
      </trkpt>
      <trkpt lat="49.87164" lon="5.37013">
        <ele>620</ele>
        <time>2015-02-01T11:49:27Z</time>
      </trkpt>
      <trkpt lat="49.87165" lon="5.37013">
        <ele>620</ele>
        <time>2015-02-01T11:49:33Z</time>
      </trkpt>
      <trkpt lat="49.87165" lon="5.37013">
        <ele>620</ele>
        <time>2015-02-01T11:49:38Z</time>
      </trkpt>
      <trkpt lat="49.87165" lon="5.37013">
        <ele>620</ele>
        <time>2015-02-01T11:49:43Z</time>
      </trkpt>
      <trkpt lat="49.87165" lon="5.37012">
        <ele>620</ele>
        <time>2015-02-01T11:49:49Z</time>
      </trkpt>
      <trkpt lat="49.87165" lon="5.37012">
        <ele>620</ele>
        <time>2015-02-01T11:49:54Z</time>
      </trkpt>
      <trkpt lat="49.87166" lon="5.37013">
        <ele>620</ele>
        <time>2015-02-01T11:50:03Z</time>
      </trkpt>
      <trkpt lat="49.87165" lon="5.37014">
        <ele>619</ele>
        <time>2015-02-01T11:50:09Z</time>
      </trkpt>
      <trkpt lat="49.87165" lon="5.37016">
        <ele>619</ele>
        <time>2015-02-01T11:50:14Z</time>
      </trkpt>
      <trkpt lat="49.87164" lon="5.37015">
        <ele>619</ele>
        <time>2015-02-01T11:50:20Z</time>
      </trkpt>
      <trkpt lat="49.87164" lon="5.37013">
        <ele>619</ele>
        <time>2015-02-01T11:50:26Z</time>
      </trkpt>
      <trkpt lat="49.87164" lon="5.37014">
        <ele>619</ele>
        <time>2015-02-01T11:50:33Z</time>
      </trkpt>
      <trkpt lat="49.87164" lon="5.37014">
        <ele>619</ele>
        <time>2015-02-01T11:50:39Z</time>
      </trkpt>
      <trkpt lat="49.87164" lon="5.37014">
        <ele>620</ele>
        <time>2015-02-01T11:50:45Z</time>
      </trkpt>
      <trkpt lat="49.87164" lon="5.37013">
        <ele>620</ele>
        <time>2015-02-01T11:50:50Z</time>
      </trkpt>
      <trkpt lat="49.87162" lon="5.37013">
        <ele>620</ele>
        <time>2015-02-01T11:50:56Z</time>
      </trkpt>
      <trkpt lat="49.87164" lon="5.37019">
        <ele>619</ele>
        <time>2015-02-01T11:51:01Z</time>
      </trkpt>
      <trkpt lat="49.87167" lon="5.37024">
        <ele>619</ele>
        <time>2015-02-01T11:51:07Z</time>
      </trkpt>
      <trkpt lat="49.8717" lon="5.3703">
        <ele>619</ele>
        <time>2015-02-01T11:51:12Z</time>
      </trkpt>
      <trkpt lat="49.87173" lon="5.37035">
        <ele>618</ele>
        <time>2015-02-01T11:51:17Z</time>
      </trkpt>
      <trkpt lat="49.87174" lon="5.37044">
        <ele>618</ele>
        <time>2015-02-01T11:51:23Z</time>
      </trkpt>
      <trkpt lat="49.87175" lon="5.37056">
        <ele>618</ele>
        <time>2015-02-01T11:51:29Z</time>
      </trkpt>
      <trkpt lat="49.87174" lon="5.37066">
        <ele>618</ele>
        <time>2015-02-01T11:51:34Z</time>
      </trkpt>
      <trkpt lat="49.87174" lon="5.37079">
        <ele>617</ele>
        <time>2015-02-01T11:51:40Z</time>
      </trkpt>
      <trkpt lat="49.87174" lon="5.37091">
        <ele>617</ele>
        <time>2015-02-01T11:51:46Z</time>
      </trkpt>
      <trkpt lat="49.87174" lon="5.37101">
        <ele>616</ele>
        <time>2015-02-01T11:51:51Z</time>
      </trkpt>
      <trkpt lat="49.87173" lon="5.37112">
        <ele>616</ele>
        <time>2015-02-01T11:51:57Z</time>
      </trkpt>
      <trkpt lat="49.87172" lon="5.37123">
        <ele>616</ele>
        <time>2015-02-01T11:52:02Z</time>
      </trkpt>
      <trkpt lat="49.87172" lon="5.37136">
        <ele>615</ele>
        <time>2015-02-01T11:52:08Z</time>
      </trkpt>
      <trkpt lat="49.8717" lon="5.37146">
        <ele>615</ele>
        <time>2015-02-01T11:52:13Z</time>
      </trkpt>
      <trkpt lat="49.87168" lon="5.37158">
        <ele>615</ele>
        <time>2015-02-01T11:52:19Z</time>
      </trkpt>
      <trkpt lat="49.87166" lon="5.37168">
        <ele>614</ele>
        <time>2015-02-01T11:52:24Z</time>
      </trkpt>
      <trkpt lat="49.87163" lon="5.3718">
        <ele>614</ele>
        <time>2015-02-01T11:52:30Z</time>
      </trkpt>
      <trkpt lat="49.87161" lon="5.37192">
        <ele>613</ele>
        <time>2015-02-01T11:52:36Z</time>
      </trkpt>
      <trkpt lat="49.87159" lon="5.37202">
        <ele>613</ele>
        <time>2015-02-01T11:52:41Z</time>
      </trkpt>
      <trkpt lat="49.87157" lon="5.37214">
        <ele>613</ele>
        <time>2015-02-01T11:52:47Z</time>
      </trkpt>
      <trkpt lat="49.87155" lon="5.37224">
        <ele>612</ele>
        <time>2015-02-01T11:52:52Z</time>
      </trkpt>
      <trkpt lat="49.87153" lon="5.37234">
        <ele>611</ele>
        <time>2015-02-01T11:52:57Z</time>
      </trkpt>
      <trkpt lat="49.87151" lon="5.37246">
        <ele>612</ele>
        <time>2015-02-01T11:53:03Z</time>
      </trkpt>
      <trkpt lat="49.87149" lon="5.37255">
        <ele>611</ele>
        <time>2015-02-01T11:53:08Z</time>
      </trkpt>
      <trkpt lat="49.87146" lon="5.37266">
        <ele>610</ele>
        <time>2015-02-01T11:53:14Z</time>
      </trkpt>
      <trkpt lat="49.87144" lon="5.37277">
        <ele>610</ele>
        <time>2015-02-01T11:53:19Z</time>
      </trkpt>
      <trkpt lat="49.87143" lon="5.37289">
        <ele>609</ele>
        <time>2015-02-01T11:53:25Z</time>
      </trkpt>
      <trkpt lat="49.87141" lon="5.37299">
        <ele>609</ele>
        <time>2015-02-01T11:53:30Z</time>
      </trkpt>
      <trkpt lat="49.87139" lon="5.37308">
        <ele>609</ele>
        <time>2015-02-01T11:53:35Z</time>
      </trkpt>
      <trkpt lat="49.87137" lon="5.37317">
        <ele>608</ele>
        <time>2015-02-01T11:53:40Z</time>
      </trkpt>
      <trkpt lat="49.87135" lon="5.37327">
        <ele>607</ele>
        <time>2015-02-01T11:53:46Z</time>
      </trkpt>
      <trkpt lat="49.87135" lon="5.37329">
        <ele>607</ele>
        <time>2015-02-01T11:53:51Z</time>
      </trkpt>
      <trkpt lat="49.87133" lon="5.3734">
        <ele>606</ele>
        <time>2015-02-01T11:53:57Z</time>
      </trkpt>
      <trkpt lat="49.87132" lon="5.37349">
        <ele>606</ele>
        <time>2015-02-01T11:54:03Z</time>
      </trkpt>
      <trkpt lat="49.87131" lon="5.37355">
        <ele>605</ele>
        <time>2015-02-01T11:54:08Z</time>
      </trkpt>
      <trkpt lat="49.87129" lon="5.37366">
        <ele>605</ele>
        <time>2015-02-01T11:54:14Z</time>
      </trkpt>
      <trkpt lat="49.87128" lon="5.37375">
        <ele>604</ele>
        <time>2015-02-01T11:54:19Z</time>
      </trkpt>
      <trkpt lat="49.87126" lon="5.37385">
        <ele>604</ele>
        <time>2015-02-01T11:54:24Z</time>
      </trkpt>
      <trkpt lat="49.87124" lon="5.37397">
        <ele>603</ele>
        <time>2015-02-01T11:54:30Z</time>
      </trkpt>
      <trkpt lat="49.87123" lon="5.3741">
        <ele>601</ele>
        <time>2015-02-01T11:54:36Z</time>
      </trkpt>
      <trkpt lat="49.87121" lon="5.3742">
        <ele>601</ele>
        <time>2015-02-01T11:54:41Z</time>
      </trkpt>
      <trkpt lat="49.87119" lon="5.3743">
        <ele>600</ele>
        <time>2015-02-01T11:54:46Z</time>
      </trkpt>
      <trkpt lat="49.87117" lon="5.3744">
        <ele>600</ele>
        <time>2015-02-01T11:54:52Z</time>
      </trkpt>
      <trkpt lat="49.87114" lon="5.37452">
        <ele>599</ele>
        <time>2015-02-01T11:54:58Z</time>
      </trkpt>
      <trkpt lat="49.8711" lon="5.37465">
        <ele>599</ele>
        <time>2015-02-01T11:55:04Z</time>
      </trkpt>
      <trkpt lat="49.87107" lon="5.37475">
        <ele>598</ele>
        <time>2015-02-01T11:55:09Z</time>
      </trkpt>
      <trkpt lat="49.87104" lon="5.37485">
        <ele>598</ele>
        <time>2015-02-01T11:55:14Z</time>
      </trkpt>
      <trkpt lat="49.87102" lon="5.37496">
        <ele>597</ele>
        <time>2015-02-01T11:55:20Z</time>
      </trkpt>
      <trkpt lat="49.87099" lon="5.37506">
        <ele>596</ele>
        <time>2015-02-01T11:55:26Z</time>
      </trkpt>
      <trkpt lat="49.87098" lon="5.37516">
        <ele>596</ele>
        <time>2015-02-01T11:55:31Z</time>
      </trkpt>
      <trkpt lat="49.87096" lon="5.37527">
        <ele>596</ele>
        <time>2015-02-01T11:55:37Z</time>
      </trkpt>
      <trkpt lat="49.87094" lon="5.37539">
        <ele>595</ele>
        <time>2015-02-01T11:55:43Z</time>
      </trkpt>
      <trkpt lat="49.87093" lon="5.37548">
        <ele>595</ele>
        <time>2015-02-01T11:55:48Z</time>
      </trkpt>
      <trkpt lat="49.87092" lon="5.37561">
        <ele>595</ele>
        <time>2015-02-01T11:55:54Z</time>
      </trkpt>
      <trkpt lat="49.87093" lon="5.37573">
        <ele>594</ele>
        <time>2015-02-01T11:56:00Z</time>
      </trkpt>
      <trkpt lat="49.87095" lon="5.37583">
        <ele>594</ele>
        <time>2015-02-01T11:56:06Z</time>
      </trkpt>
      <trkpt lat="49.87096" lon="5.37596">
        <ele>594</ele>
        <time>2015-02-01T11:56:12Z</time>
      </trkpt>
      <trkpt lat="49.87096" lon="5.37605">
        <ele>594</ele>
        <time>2015-02-01T11:56:17Z</time>
      </trkpt>
      <trkpt lat="49.87097" lon="5.37617">
        <ele>594</ele>
        <time>2015-02-01T11:56:23Z</time>
      </trkpt>
      <trkpt lat="49.87099" lon="5.37627">
        <ele>594</ele>
        <time>2015-02-01T11:56:29Z</time>
      </trkpt>
      <trkpt lat="49.87101" lon="5.37634">
        <ele>594</ele>
        <time>2015-02-01T11:56:34Z</time>
      </trkpt>
      <trkpt lat="49.87104" lon="5.37642">
        <ele>594</ele>
        <time>2015-02-01T11:56:39Z</time>
      </trkpt>
      <trkpt lat="49.87107" lon="5.37653">
        <ele>595</ele>
        <time>2015-02-01T11:56:45Z</time>
      </trkpt>
      <trkpt lat="49.87109" lon="5.37662">
        <ele>595</ele>
        <time>2015-02-01T11:56:51Z</time>
      </trkpt>
      <trkpt lat="49.87112" lon="5.3767">
        <ele>595</ele>
        <time>2015-02-01T11:56:56Z</time>
      </trkpt>
      <trkpt lat="49.87116" lon="5.3768">
        <ele>594</ele>
        <time>2015-02-01T11:57:02Z</time>
      </trkpt>
      <trkpt lat="49.87119" lon="5.3769">
        <ele>594</ele>
        <time>2015-02-01T11:57:07Z</time>
      </trkpt>
      <trkpt lat="49.87121" lon="5.37701">
        <ele>594</ele>
        <time>2015-02-01T11:57:13Z</time>
      </trkpt>
      <trkpt lat="49.87123" lon="5.37708">
        <ele>593</ele>
        <time>2015-02-01T11:57:18Z</time>
      </trkpt>
      <trkpt lat="49.87126" lon="5.37719">
        <ele>592</ele>
        <time>2015-02-01T11:57:24Z</time>
      </trkpt>
      <trkpt lat="49.87128" lon="5.37731">
        <ele>592</ele>
        <time>2015-02-01T11:57:30Z</time>
      </trkpt>
      <trkpt lat="49.8713" lon="5.3774">
        <ele>591</ele>
        <time>2015-02-01T11:57:35Z</time>
      </trkpt>
      <trkpt lat="49.87132" lon="5.3775">
        <ele>590</ele>
        <time>2015-02-01T11:57:40Z</time>
      </trkpt>
      <trkpt lat="49.87134" lon="5.37762">
        <ele>590</ele>
        <time>2015-02-01T11:57:46Z</time>
      </trkpt>
      <trkpt lat="49.87136" lon="5.37773">
        <ele>589</ele>
        <time>2015-02-01T11:57:51Z</time>
      </trkpt>
      <trkpt lat="49.87136" lon="5.37785">
        <ele>588</ele>
        <time>2015-02-01T11:57:57Z</time>
      </trkpt>
      <trkpt lat="49.87138" lon="5.37796">
        <ele>587</ele>
        <time>2015-02-01T11:58:02Z</time>
      </trkpt>
      <trkpt lat="49.87139" lon="5.37809">
        <ele>585</ele>
        <time>2015-02-01T11:58:08Z</time>
      </trkpt>
      <trkpt lat="49.87141" lon="5.3782">
        <ele>584</ele>
        <time>2015-02-01T11:58:13Z</time>
      </trkpt>
      <trkpt lat="49.87141" lon="5.37831">
        <ele>583</ele>
        <time>2015-02-01T11:58:18Z</time>
      </trkpt>
      <trkpt lat="49.8714" lon="5.37843">
        <ele>583</ele>
        <time>2015-02-01T11:58:24Z</time>
      </trkpt>
      <trkpt lat="49.87138" lon="5.37855">
        <ele>582</ele>
        <time>2015-02-01T11:58:29Z</time>
      </trkpt>
      <trkpt lat="49.87135" lon="5.37867">
        <ele>580</ele>
        <time>2015-02-01T11:58:35Z</time>
      </trkpt>
      <trkpt lat="49.87129" lon="5.37876">
        <ele>579</ele>
        <time>2015-02-01T11:58:40Z</time>
      </trkpt>
      <trkpt lat="49.87122" lon="5.37884">
        <ele>578</ele>
        <time>2015-02-01T11:58:46Z</time>
      </trkpt>
      <trkpt lat="49.87115" lon="5.37888">
        <ele>577</ele>
        <time>2015-02-01T11:58:51Z</time>
      </trkpt>
      <trkpt lat="49.87106" lon="5.37894">
        <ele>577</ele>
        <time>2015-02-01T11:58:57Z</time>
      </trkpt>
      <trkpt lat="49.87101" lon="5.37898">
        <ele>576</ele>
        <time>2015-02-01T11:59:02Z</time>
      </trkpt>
      <trkpt lat="49.87093" lon="5.37903">
        <ele>575</ele>
        <time>2015-02-01T11:59:08Z</time>
      </trkpt>
      <trkpt lat="49.87087" lon="5.37908">
        <ele>574</ele>
        <time>2015-02-01T11:59:13Z</time>
      </trkpt>
      <trkpt lat="49.87081" lon="5.37911">
        <ele>574</ele>
        <time>2015-02-01T11:59:18Z</time>
      </trkpt>
      <trkpt lat="49.87074" lon="5.37916">
        <ele>573</ele>
        <time>2015-02-01T11:59:24Z</time>
      </trkpt>
      <trkpt lat="49.87068" lon="5.3792">
        <ele>572</ele>
        <time>2015-02-01T11:59:29Z</time>
      </trkpt>
      <trkpt lat="49.87061" lon="5.37925">
        <ele>571</ele>
        <time>2015-02-01T11:59:35Z</time>
      </trkpt>
      <trkpt lat="49.87055" lon="5.3793">
        <ele>570</ele>
        <time>2015-02-01T11:59:40Z</time>
      </trkpt>
      <trkpt lat="49.8705" lon="5.37937">
        <ele>569</ele>
        <time>2015-02-01T11:59:46Z</time>
      </trkpt>
      <trkpt lat="49.87048" lon="5.37942">
        <ele>568</ele>
        <time>2015-02-01T11:59:52Z</time>
      </trkpt>
      <trkpt lat="49.87044" lon="5.37939">
        <ele>568</ele>
        <time>2015-02-01T11:59:57Z</time>
      </trkpt>
      <trkpt lat="49.87043" lon="5.37936">
        <ele>568</ele>
        <time>2015-02-01T12:00:02Z</time>
      </trkpt>
      <trkpt lat="49.87045" lon="5.37939">
        <ele>567</ele>
        <time>2015-02-01T12:00:08Z</time>
      </trkpt>
      <trkpt lat="49.87045" lon="5.37948">
        <ele>567</ele>
        <time>2015-02-01T12:00:13Z</time>
      </trkpt>
      <trkpt lat="49.8704" lon="5.37957">
        <ele>566</ele>
        <time>2015-02-01T12:00:19Z</time>
      </trkpt>
      <trkpt lat="49.87034" lon="5.37966">
        <ele>566</ele>
        <time>2015-02-01T12:00:25Z</time>
      </trkpt>
      <trkpt lat="49.87028" lon="5.37974">
        <ele>565</ele>
        <time>2015-02-01T12:00:31Z</time>
      </trkpt>
      <trkpt lat="49.87023" lon="5.37979">
        <ele>565</ele>
        <time>2015-02-01T12:00:36Z</time>
      </trkpt>
      <trkpt lat="49.87015" lon="5.37984">
        <ele>564</ele>
        <time>2015-02-01T12:00:42Z</time>
      </trkpt>
      <trkpt lat="49.87008" lon="5.37987">
        <ele>565</ele>
        <time>2015-02-01T12:00:47Z</time>
      </trkpt>
      <trkpt lat="49.87002" lon="5.37989">
        <ele>564</ele>
        <time>2015-02-01T12:00:53Z</time>
      </trkpt>
      <trkpt lat="49.86997" lon="5.37989">
        <ele>564</ele>
        <time>2015-02-01T12:00:58Z</time>
      </trkpt>
      <trkpt lat="49.86998" lon="5.37991">
        <ele>564</ele>
        <time>2015-02-01T12:01:03Z</time>
      </trkpt>
      <trkpt lat="49.86997" lon="5.37991">
        <ele>564</ele>
        <time>2015-02-01T12:01:09Z</time>
      </trkpt>
      <trkpt lat="49.86996" lon="5.37991">
        <ele>564</ele>
        <time>2015-02-01T12:01:15Z</time>
      </trkpt>
      <trkpt lat="49.86995" lon="5.3799">
        <ele>564</ele>
        <time>2015-02-01T12:01:20Z</time>
      </trkpt>
      <trkpt lat="49.86993" lon="5.37987">
        <ele>565</ele>
        <time>2015-02-01T12:01:26Z</time>
      </trkpt>
      <trkpt lat="49.86991" lon="5.37983">
        <ele>565</ele>
        <time>2015-02-01T12:01:32Z</time>
      </trkpt>
      <trkpt lat="49.8699" lon="5.37979">
        <ele>565</ele>
        <time>2015-02-01T12:01:37Z</time>
      </trkpt>
      <trkpt lat="49.86988" lon="5.37975">
        <ele>564</ele>
        <time>2015-02-01T12:01:43Z</time>
      </trkpt>
      <trkpt lat="49.86983" lon="5.37973">
        <ele>565</ele>
        <time>2015-02-01T12:01:48Z</time>
      </trkpt>
      <trkpt lat="49.86982" lon="5.37973">
        <ele>564</ele>
        <time>2015-02-01T12:01:54Z</time>
      </trkpt>
      <trkpt lat="49.86981" lon="5.37975">
        <ele>564</ele>
        <time>2015-02-01T12:01:59Z</time>
      </trkpt>
      <trkpt lat="49.86979" lon="5.37978">
        <ele>564</ele>
        <time>2015-02-01T12:02:04Z</time>
      </trkpt>
      <trkpt lat="49.86974" lon="5.37978">
        <ele>565</ele>
        <time>2015-02-01T12:02:10Z</time>
      </trkpt>
      <trkpt lat="49.86972" lon="5.37985">
        <ele>564</ele>
        <time>2015-02-01T12:02:16Z</time>
      </trkpt>
      <trkpt lat="49.86972" lon="5.37991">
        <ele>564</ele>
        <time>2015-02-01T12:02:21Z</time>
      </trkpt>
      <trkpt lat="49.86974" lon="5.37996">
        <ele>563</ele>
        <time>2015-02-01T12:02:27Z</time>
      </trkpt>
      <trkpt lat="49.86974" lon="5.38001">
        <ele>564</ele>
        <time>2015-02-01T12:02:33Z</time>
      </trkpt>
      <trkpt lat="49.86976" lon="5.38003">
        <ele>564</ele>
        <time>2015-02-01T12:02:39Z</time>
      </trkpt>
      <trkpt lat="49.86975" lon="5.38003">
        <ele>564</ele>
        <time>2015-02-01T12:02:45Z</time>
      </trkpt>
      <trkpt lat="49.86973" lon="5.38001">
        <ele>563</ele>
        <time>2015-02-01T12:02:51Z</time>
      </trkpt>
      <trkpt lat="49.86971" lon="5.37994">
        <ele>564</ele>
        <time>2015-02-01T12:02:57Z</time>
      </trkpt>
      <trkpt lat="49.86971" lon="5.3799">
        <ele>564</ele>
        <time>2015-02-01T12:03:02Z</time>
      </trkpt>
      <trkpt lat="49.86971" lon="5.3799">
        <ele>564</ele>
        <time>2015-02-01T12:03:07Z</time>
      </trkpt>
      <trkpt lat="49.86972" lon="5.37985">
        <ele>564</ele>
        <time>2015-02-01T12:03:13Z</time>
      </trkpt>
      <trkpt lat="49.86976" lon="5.37985">
        <ele>564</ele>
        <time>2015-02-01T12:03:19Z</time>
      </trkpt>
      <trkpt lat="49.86977" lon="5.37983">
        <ele>564</ele>
        <time>2015-02-01T12:03:25Z</time>
      </trkpt>
      <trkpt lat="49.86978" lon="5.37981">
        <ele>564</ele>
        <time>2015-02-01T12:03:30Z</time>
      </trkpt>
      <trkpt lat="49.86979" lon="5.37979">
        <ele>564</ele>
        <time>2015-02-01T12:03:35Z</time>
      </trkpt>
      <trkpt lat="49.86983" lon="5.37979">
        <ele>565</ele>
        <time>2015-02-01T12:03:41Z</time>
      </trkpt>
      <trkpt lat="49.86986" lon="5.37981">
        <ele>565</ele>
        <time>2015-02-01T12:03:46Z</time>
      </trkpt>
      <trkpt lat="49.86989" lon="5.37983">
        <ele>564</ele>
        <time>2015-02-01T12:03:51Z</time>
      </trkpt>
      <trkpt lat="49.8699" lon="5.37983">
        <ele>564</ele>
        <time>2015-02-01T12:03:57Z</time>
      </trkpt>
      <trkpt lat="49.86991" lon="5.37985">
        <ele>564</ele>
        <time>2015-02-01T12:04:02Z</time>
      </trkpt>
      <trkpt lat="49.86993" lon="5.37985">
        <ele>563</ele>
        <time>2015-02-01T12:04:08Z</time>
      </trkpt>
      <trkpt lat="49.86993" lon="5.37983">
        <ele>563</ele>
        <time>2015-02-01T12:04:14Z</time>
      </trkpt>
      <trkpt lat="49.86993" lon="5.37983">
        <ele>564</ele>
        <time>2015-02-01T12:04:19Z</time>
      </trkpt>
      <trkpt lat="49.86993" lon="5.37983">
        <ele>564</ele>
        <time>2015-02-01T12:04:25Z</time>
      </trkpt>
      <trkpt lat="49.86993" lon="5.37983">
        <ele>564</ele>
        <time>2015-02-01T12:04:30Z</time>
      </trkpt>
      <trkpt lat="49.86993" lon="5.37986">
        <ele>564</ele>
        <time>2015-02-01T12:04:36Z</time>
      </trkpt>
      <trkpt lat="49.86993" lon="5.37987">
        <ele>564</ele>
        <time>2015-02-01T12:04:42Z</time>
      </trkpt>
      <trkpt lat="49.8699" lon="5.37984">
        <ele>564</ele>
        <time>2015-02-01T12:04:47Z</time>
      </trkpt>
      <trkpt lat="49.86985" lon="5.37981">
        <ele>564</ele>
        <time>2015-02-01T12:04:53Z</time>
      </trkpt>
      <trkpt lat="49.86978" lon="5.37978">
        <ele>564</ele>
        <time>2015-02-01T12:04:59Z</time>
      </trkpt>
      <trkpt lat="49.86972" lon="5.37976">
        <ele>564</ele>
        <time>2015-02-01T12:05:04Z</time>
      </trkpt>
      <trkpt lat="49.86963" lon="5.37969">
        <ele>564</ele>
        <time>2015-02-01T12:05:10Z</time>
      </trkpt>
      <trkpt lat="49.86956" lon="5.37965">
        <ele>564</ele>
        <time>2015-02-01T12:05:15Z</time>
      </trkpt>
      <trkpt lat="49.86946" lon="5.3796">
        <ele>565</ele>
        <time>2015-02-01T12:05:21Z</time>
      </trkpt>
      <trkpt lat="49.86937" lon="5.37958">
        <ele>565</ele>
        <time>2015-02-01T12:05:27Z</time>
      </trkpt>
      <trkpt lat="49.86927" lon="5.37956">
        <ele>565</ele>
        <time>2015-02-01T12:05:33Z</time>
      </trkpt>
      <trkpt lat="49.86917" lon="5.37957">
        <ele>566</ele>
        <time>2015-02-01T12:05:39Z</time>
      </trkpt>
      <trkpt lat="49.86909" lon="5.37963">
        <ele>567</ele>
        <time>2015-02-01T12:05:45Z</time>
      </trkpt>
      <trkpt lat="49.86906" lon="5.37973">
        <ele>567</ele>
        <time>2015-02-01T12:05:50Z</time>
      </trkpt>
      <trkpt lat="49.86905" lon="5.37989">
        <ele>567</ele>
        <time>2015-02-01T12:05:56Z</time>
      </trkpt>
      <trkpt lat="49.86904" lon="5.38004">
        <ele>568</ele>
        <time>2015-02-01T12:06:02Z</time>
      </trkpt>
      <trkpt lat="49.86902" lon="5.38016">
        <ele>569</ele>
        <time>2015-02-01T12:06:07Z</time>
      </trkpt>
      <trkpt lat="49.86899" lon="5.38028">
        <ele>570</ele>
        <time>2015-02-01T12:06:13Z</time>
      </trkpt>
      <trkpt lat="49.86893" lon="5.38038">
        <ele>571</ele>
        <time>2015-02-01T12:06:19Z</time>
      </trkpt>
      <trkpt lat="49.86885" lon="5.38044">
        <ele>571</ele>
        <time>2015-02-01T12:06:25Z</time>
      </trkpt>
      <trkpt lat="49.86877" lon="5.38047">
        <ele>571</ele>
        <time>2015-02-01T12:06:31Z</time>
      </trkpt>
      <trkpt lat="49.86869" lon="5.38049">
        <ele>571</ele>
        <time>2015-02-01T12:06:36Z</time>
      </trkpt>
      <trkpt lat="49.86862" lon="5.38051">
        <ele>571</ele>
        <time>2015-02-01T12:06:41Z</time>
      </trkpt>
      <trkpt lat="49.86855" lon="5.38051">
        <ele>571</ele>
        <time>2015-02-01T12:06:46Z</time>
      </trkpt>
      <trkpt lat="49.86847" lon="5.38052">
        <ele>571</ele>
        <time>2015-02-01T12:06:51Z</time>
      </trkpt>
      <trkpt lat="49.86838" lon="5.38052">
        <ele>570</ele>
        <time>2015-02-01T12:06:57Z</time>
      </trkpt>
      <trkpt lat="49.86831" lon="5.38054">
        <ele>571</ele>
        <time>2015-02-01T12:07:02Z</time>
      </trkpt>
      <trkpt lat="49.86824" lon="5.38055">
        <ele>570</ele>
        <time>2015-02-01T12:07:07Z</time>
      </trkpt>
      <trkpt lat="49.86816" lon="5.38058">
        <ele>570</ele>
        <time>2015-02-01T12:07:13Z</time>
      </trkpt>
      <trkpt lat="49.86809" lon="5.38061">
        <ele>570</ele>
        <time>2015-02-01T12:07:18Z</time>
      </trkpt>
      <trkpt lat="49.86802" lon="5.38064">
        <ele>570</ele>
        <time>2015-02-01T12:07:23Z</time>
      </trkpt>
      <trkpt lat="49.86794" lon="5.3807">
        <ele>570</ele>
        <time>2015-02-01T12:07:29Z</time>
      </trkpt>
      <trkpt lat="49.86788" lon="5.38074">
        <ele>570</ele>
        <time>2015-02-01T12:07:34Z</time>
      </trkpt>
      <trkpt lat="49.86781" lon="5.38079">
        <ele>570</ele>
        <time>2015-02-01T12:07:40Z</time>
      </trkpt>
      <trkpt lat="49.86775" lon="5.38083">
        <ele>570</ele>
        <time>2015-02-01T12:07:45Z</time>
      </trkpt>
      <trkpt lat="49.86769" lon="5.38087">
        <ele>570</ele>
        <time>2015-02-01T12:07:50Z</time>
      </trkpt>
      <trkpt lat="49.86762" lon="5.38092">
        <ele>569</ele>
        <time>2015-02-01T12:07:56Z</time>
      </trkpt>
      <trkpt lat="49.86755" lon="5.38099">
        <ele>569</ele>
        <time>2015-02-01T12:08:02Z</time>
      </trkpt>
      <trkpt lat="49.86749" lon="5.38105">
        <ele>570</ele>
        <time>2015-02-01T12:08:07Z</time>
      </trkpt>
      <trkpt lat="49.86743" lon="5.38111">
        <ele>569</ele>
        <time>2015-02-01T12:08:12Z</time>
      </trkpt>
      <trkpt lat="49.86737" lon="5.38117">
        <ele>569</ele>
        <time>2015-02-01T12:08:17Z</time>
      </trkpt>
      <trkpt lat="49.86731" lon="5.38125">
        <ele>570</ele>
        <time>2015-02-01T12:08:23Z</time>
      </trkpt>
      <trkpt lat="49.86723" lon="5.38132">
        <ele>569</ele>
        <time>2015-02-01T12:08:29Z</time>
      </trkpt>
      <trkpt lat="49.86716" lon="5.38139">
        <ele>570</ele>
        <time>2015-02-01T12:08:35Z</time>
      </trkpt>
      <trkpt lat="49.8671" lon="5.38143">
        <ele>570</ele>
        <time>2015-02-01T12:08:40Z</time>
      </trkpt>
      <trkpt lat="49.86704" lon="5.38148">
        <ele>569</ele>
        <time>2015-02-01T12:08:45Z</time>
      </trkpt>
      <trkpt lat="49.86698" lon="5.38154">
        <ele>569</ele>
        <time>2015-02-01T12:08:50Z</time>
      </trkpt>
      <trkpt lat="49.8669" lon="5.3816">
        <ele>569</ele>
        <time>2015-02-01T12:08:56Z</time>
      </trkpt>
      <trkpt lat="49.86683" lon="5.38166">
        <ele>569</ele>
        <time>2015-02-01T12:09:02Z</time>
      </trkpt>
      <trkpt lat="49.86677" lon="5.38171">
        <ele>570</ele>
        <time>2015-02-01T12:09:07Z</time>
      </trkpt>
      <trkpt lat="49.8667" lon="5.38178">
        <ele>569</ele>
        <time>2015-02-01T12:09:13Z</time>
      </trkpt>
      <trkpt lat="49.86664" lon="5.38184">
        <ele>569</ele>
        <time>2015-02-01T12:09:18Z</time>
      </trkpt>
      <trkpt lat="49.86657" lon="5.38191">
        <ele>569</ele>
        <time>2015-02-01T12:09:24Z</time>
      </trkpt>
      <trkpt lat="49.86652" lon="5.38196">
        <ele>569</ele>
        <time>2015-02-01T12:09:29Z</time>
      </trkpt>
      <trkpt lat="49.86644" lon="5.38202">
        <ele>569</ele>
        <time>2015-02-01T12:09:35Z</time>
      </trkpt>
      <trkpt lat="49.86637" lon="5.38209">
        <ele>568</ele>
        <time>2015-02-01T12:09:41Z</time>
      </trkpt>
      <trkpt lat="49.86635" lon="5.38216">
        <ele>567</ele>
        <time>2015-02-01T12:09:46Z</time>
      </trkpt>
      <trkpt lat="49.86634" lon="5.38225">
        <ele>567</ele>
        <time>2015-02-01T12:09:51Z</time>
      </trkpt>
      <trkpt lat="49.86632" lon="5.38234">
        <ele>568</ele>
        <time>2015-02-01T12:09:57Z</time>
      </trkpt>
      <trkpt lat="49.86629" lon="5.38246">
        <ele>568</ele>
        <time>2015-02-01T12:10:03Z</time>
      </trkpt>
      <trkpt lat="49.86626" lon="5.38259">
        <ele>569</ele>
        <time>2015-02-01T12:10:09Z</time>
      </trkpt>
      <trkpt lat="49.86623" lon="5.38269">
        <ele>570</ele>
        <time>2015-02-01T12:10:14Z</time>
      </trkpt>
      <trkpt lat="49.86621" lon="5.38278">
        <ele>570</ele>
        <time>2015-02-01T12:10:19Z</time>
      </trkpt>
      <trkpt lat="49.86618" lon="5.3829">
        <ele>571</ele>
        <time>2015-02-01T12:10:25Z</time>
      </trkpt>
      <trkpt lat="49.86615" lon="5.38296">
        <ele>571</ele>
        <time>2015-02-01T12:10:30Z</time>
      </trkpt>
      <trkpt lat="49.86613" lon="5.38308">
        <ele>571</ele>
        <time>2015-02-01T12:10:36Z</time>
      </trkpt>
      <trkpt lat="49.86612" lon="5.38319">
        <ele>571</ele>
        <time>2015-02-01T12:10:41Z</time>
      </trkpt>
      <trkpt lat="49.86612" lon="5.38331">
        <ele>571</ele>
        <time>2015-02-01T12:10:47Z</time>
      </trkpt>
      <trkpt lat="49.8661" lon="5.38344">
        <ele>571</ele>
        <time>2015-02-01T12:10:53Z</time>
      </trkpt>
      <trkpt lat="49.8661" lon="5.38357">
        <ele>571</ele>
        <time>2015-02-01T12:10:59Z</time>
      </trkpt>
      <trkpt lat="49.86609" lon="5.38368">
        <ele>571</ele>
        <time>2015-02-01T12:11:04Z</time>
      </trkpt>
      <trkpt lat="49.86608" lon="5.38379">
        <ele>572</ele>
        <time>2015-02-01T12:11:10Z</time>
      </trkpt>
      <trkpt lat="49.86607" lon="5.38389">
        <ele>572</ele>
        <time>2015-02-01T12:11:16Z</time>
      </trkpt>
      <trkpt lat="49.86605" lon="5.38396">
        <ele>572</ele>
        <time>2015-02-01T12:11:21Z</time>
      </trkpt>
      <trkpt lat="49.86604" lon="5.38406">
        <ele>572</ele>
        <time>2015-02-01T12:11:27Z</time>
      </trkpt>
      <trkpt lat="49.86604" lon="5.38417">
        <ele>572</ele>
        <time>2015-02-01T12:11:33Z</time>
      </trkpt>
      <trkpt lat="49.86603" lon="5.38428">
        <ele>573</ele>
        <time>2015-02-01T12:11:39Z</time>
      </trkpt>
      <trkpt lat="49.86603" lon="5.38439">
        <ele>573</ele>
        <time>2015-02-01T12:11:44Z</time>
      </trkpt>
      <trkpt lat="49.86602" lon="5.3845">
        <ele>573</ele>
        <time>2015-02-01T12:11:50Z</time>
      </trkpt>
      <trkpt lat="49.866" lon="5.38461">
        <ele>573</ele>
        <time>2015-02-01T12:11:56Z</time>
      </trkpt>
      <trkpt lat="49.86598" lon="5.38471">
        <ele>573</ele>
        <time>2015-02-01T12:12:02Z</time>
      </trkpt>
      <trkpt lat="49.86596" lon="5.38481">
        <ele>573</ele>
        <time>2015-02-01T12:12:08Z</time>
      </trkpt>
      <trkpt lat="49.86594" lon="5.38483">
        <ele>574</ele>
        <time>2015-02-01T12:12:13Z</time>
      </trkpt>
      <trkpt lat="49.86591" lon="5.38493">
        <ele>574</ele>
        <time>2015-02-01T12:12:19Z</time>
      </trkpt>
      <trkpt lat="49.8659" lon="5.38501">
        <ele>574</ele>
        <time>2015-02-01T12:12:24Z</time>
      </trkpt>
      <trkpt lat="49.86589" lon="5.3851">
        <ele>574</ele>
        <time>2015-02-01T12:12:29Z</time>
      </trkpt>
      <trkpt lat="49.86587" lon="5.3852">
        <ele>574</ele>
        <time>2015-02-01T12:12:35Z</time>
      </trkpt>
      <trkpt lat="49.86584" lon="5.38528">
        <ele>575</ele>
        <time>2015-02-01T12:12:40Z</time>
      </trkpt>
      <trkpt lat="49.86581" lon="5.38539">
        <ele>574</ele>
        <time>2015-02-01T12:12:46Z</time>
      </trkpt>
      <trkpt lat="49.8658" lon="5.38549">
        <ele>574</ele>
        <time>2015-02-01T12:12:52Z</time>
      </trkpt>
      <trkpt lat="49.86578" lon="5.38554">
        <ele>575</ele>
        <time>2015-02-01T12:12:57Z</time>
      </trkpt>
      <trkpt lat="49.86577" lon="5.38559">
        <ele>575</ele>
        <time>2015-02-01T12:13:03Z</time>
      </trkpt>
      <trkpt lat="49.86576" lon="5.38569">
        <ele>576</ele>
        <time>2015-02-01T12:13:08Z</time>
      </trkpt>
      <trkpt lat="49.86575" lon="5.3858">
        <ele>576</ele>
        <time>2015-02-01T12:13:14Z</time>
      </trkpt>
      <trkpt lat="49.86573" lon="5.38588">
        <ele>576</ele>
        <time>2015-02-01T12:13:19Z</time>
      </trkpt>
      <trkpt lat="49.86571" lon="5.38595">
        <ele>576</ele>
        <time>2015-02-01T12:13:24Z</time>
      </trkpt>
      <trkpt lat="49.86568" lon="5.38606">
        <ele>578</ele>
        <time>2015-02-01T12:13:30Z</time>
      </trkpt>
      <trkpt lat="49.86565" lon="5.38615">
        <ele>578</ele>
        <time>2015-02-01T12:13:35Z</time>
      </trkpt>
      <trkpt lat="49.86563" lon="5.38624">
        <ele>579</ele>
        <time>2015-02-01T12:13:40Z</time>
      </trkpt>
      <trkpt lat="49.86562" lon="5.38635">
        <ele>579</ele>
        <time>2015-02-01T12:13:46Z</time>
      </trkpt>
      <trkpt lat="49.8656" lon="5.38644">
        <ele>579</ele>
        <time>2015-02-01T12:13:51Z</time>
      </trkpt>
      <trkpt lat="49.86559" lon="5.38653">
        <ele>579</ele>
        <time>2015-02-01T12:13:56Z</time>
      </trkpt>
      <trkpt lat="49.86557" lon="5.38663">
        <ele>580</ele>
        <time>2015-02-01T12:14:02Z</time>
      </trkpt>
      <trkpt lat="49.86555" lon="5.38669">
        <ele>581</ele>
        <time>2015-02-01T12:14:08Z</time>
      </trkpt>
      <trkpt lat="49.86555" lon="5.38671">
        <ele>580</ele>
        <time>2015-02-01T12:14:13Z</time>
      </trkpt>
      <trkpt lat="49.86553" lon="5.38678">
        <ele>580</ele>
        <time>2015-02-01T12:14:19Z</time>
      </trkpt>
      <trkpt lat="49.86552" lon="5.38683">
        <ele>580</ele>
        <time>2015-02-01T12:14:25Z</time>
      </trkpt>
      <trkpt lat="49.8655" lon="5.3869">
        <ele>580</ele>
        <time>2015-02-01T12:14:31Z</time>
      </trkpt>
      <trkpt lat="49.86549" lon="5.38696">
        <ele>580</ele>
        <time>2015-02-01T12:14:36Z</time>
      </trkpt>
      <trkpt lat="49.86548" lon="5.38705">
        <ele>580</ele>
        <time>2015-02-01T12:14:42Z</time>
      </trkpt>
      <trkpt lat="49.86546" lon="5.38714">
        <ele>581</ele>
        <time>2015-02-01T12:14:47Z</time>
      </trkpt>
      <trkpt lat="49.86543" lon="5.38725">
        <ele>581</ele>
        <time>2015-02-01T12:14:53Z</time>
      </trkpt>
      <trkpt lat="49.86541" lon="5.38729">
        <ele>582</ele>
        <time>2015-02-01T12:14:59Z</time>
      </trkpt>
      <trkpt lat="49.86541" lon="5.38734">
        <ele>582</ele>
        <time>2015-02-01T12:15:04Z</time>
      </trkpt>
      <trkpt lat="49.8654" lon="5.38737">
        <ele>582</ele>
        <time>2015-02-01T12:15:09Z</time>
      </trkpt>
      <trkpt lat="49.86539" lon="5.3874">
        <ele>582</ele>
        <time>2015-02-01T12:15:15Z</time>
      </trkpt>
      <trkpt lat="49.86538" lon="5.3874">
        <ele>582</ele>
        <time>2015-02-01T12:15:20Z</time>
      </trkpt>
      <trkpt lat="49.86537" lon="5.38745">
        <ele>582</ele>
        <time>2015-02-01T12:15:26Z</time>
      </trkpt>
      <trkpt lat="49.86534" lon="5.38753">
        <ele>583</ele>
        <time>2015-02-01T12:15:32Z</time>
      </trkpt>
      <trkpt lat="49.86533" lon="5.38761">
        <ele>583</ele>
        <time>2015-02-01T12:15:37Z</time>
      </trkpt>
      <trkpt lat="49.8653" lon="5.3877">
        <ele>583</ele>
        <time>2015-02-01T12:15:43Z</time>
      </trkpt>
      <trkpt lat="49.86528" lon="5.38779">
        <ele>584</ele>
        <time>2015-02-01T12:15:49Z</time>
      </trkpt>
      <trkpt lat="49.86527" lon="5.38789">
        <ele>585</ele>
        <time>2015-02-01T12:15:55Z</time>
      </trkpt>
      <trkpt lat="49.86526" lon="5.38798">
        <ele>585</ele>
        <time>2015-02-01T12:16:01Z</time>
      </trkpt>
      <trkpt lat="49.86525" lon="5.38807">
        <ele>586</ele>
        <time>2015-02-01T12:16:07Z</time>
      </trkpt>
      <trkpt lat="49.86525" lon="5.38817">
        <ele>587</ele>
        <time>2015-02-01T12:16:13Z</time>
      </trkpt>
      <trkpt lat="49.86525" lon="5.38824">
        <ele>587</ele>
        <time>2015-02-01T12:16:18Z</time>
      </trkpt>
      <trkpt lat="49.86525" lon="5.38833">
        <ele>587</ele>
        <time>2015-02-01T12:16:23Z</time>
      </trkpt>
      <trkpt lat="49.86525" lon="5.38835">
        <ele>587</ele>
        <time>2015-02-01T12:16:28Z</time>
      </trkpt>
      <trkpt lat="49.86524" lon="5.38841">
        <ele>587</ele>
        <time>2015-02-01T12:16:34Z</time>
      </trkpt>
      <trkpt lat="49.86524" lon="5.38849">
        <ele>588</ele>
        <time>2015-02-01T12:16:39Z</time>
      </trkpt>
      <trkpt lat="49.86524" lon="5.38859">
        <ele>588</ele>
        <time>2015-02-01T12:16:45Z</time>
      </trkpt>
      <trkpt lat="49.86524" lon="5.3887">
        <ele>589</ele>
        <time>2015-02-01T12:16:51Z</time>
      </trkpt>
      <trkpt lat="49.86524" lon="5.38877">
        <ele>590</ele>
        <time>2015-02-01T12:16:56Z</time>
      </trkpt>
      <trkpt lat="49.86524" lon="5.38886">
        <ele>591</ele>
        <time>2015-02-01T12:17:02Z</time>
      </trkpt>
      <trkpt lat="49.86525" lon="5.38897">
        <ele>592</ele>
        <time>2015-02-01T12:17:08Z</time>
      </trkpt>
      <trkpt lat="49.86525" lon="5.38907">
        <ele>592</ele>
        <time>2015-02-01T12:17:14Z</time>
      </trkpt>
      <trkpt lat="49.86524" lon="5.3891">
        <ele>592</ele>
        <time>2015-02-01T12:17:19Z</time>
      </trkpt>
      <trkpt lat="49.86523" lon="5.38913">
        <ele>592</ele>
        <time>2015-02-01T12:17:25Z</time>
      </trkpt>
      <trkpt lat="49.86524" lon="5.38923">
        <ele>592</ele>
        <time>2015-02-01T12:17:30Z</time>
      </trkpt>
      <trkpt lat="49.86525" lon="5.38934">
        <ele>593</ele>
        <time>2015-02-01T12:17:36Z</time>
      </trkpt>
      <trkpt lat="49.86526" lon="5.38944">
        <ele>593</ele>
        <time>2015-02-01T12:17:42Z</time>
      </trkpt>
      <trkpt lat="49.86526" lon="5.38952">
        <ele>592</ele>
        <time>2015-02-01T12:17:47Z</time>
      </trkpt>
      <trkpt lat="49.86528" lon="5.38965">
        <ele>592</ele>
        <time>2015-02-01T12:17:53Z</time>
      </trkpt>
      <trkpt lat="49.86529" lon="5.38973">
        <ele>593</ele>
        <time>2015-02-01T12:17:58Z</time>
      </trkpt>
      <trkpt lat="49.8653" lon="5.38983">
        <ele>592</ele>
        <time>2015-02-01T12:18:04Z</time>
      </trkpt>
      <trkpt lat="49.86533" lon="5.38992">
        <ele>592</ele>
        <time>2015-02-01T12:18:10Z</time>
      </trkpt>
      <trkpt lat="49.86535" lon="5.39003">
        <ele>591</ele>
        <time>2015-02-01T12:18:16Z</time>
      </trkpt>
      <trkpt lat="49.86536" lon="5.39011">
        <ele>592</ele>
        <time>2015-02-01T12:18:21Z</time>
      </trkpt>
      <trkpt lat="49.86537" lon="5.39022">
        <ele>592</ele>
        <time>2015-02-01T12:18:27Z</time>
      </trkpt>
      <trkpt lat="49.86539" lon="5.39031">
        <ele>592</ele>
        <time>2015-02-01T12:18:33Z</time>
      </trkpt>
      <trkpt lat="49.8654" lon="5.39036">
        <ele>592</ele>
        <time>2015-02-01T12:18:39Z</time>
      </trkpt>
      <trkpt lat="49.86541" lon="5.39041">
        <ele>592</ele>
        <time>2015-02-01T12:18:44Z</time>
      </trkpt>
      <trkpt lat="49.86545" lon="5.39047">
        <ele>592</ele>
        <time>2015-02-01T12:18:50Z</time>
      </trkpt>
      <trkpt lat="49.86548" lon="5.39053">
        <ele>592</ele>
        <time>2015-02-01T12:18:56Z</time>
      </trkpt>
      <trkpt lat="49.86549" lon="5.39055">
        <ele>592</ele>
        <time>2015-02-01T12:19:01Z</time>
      </trkpt>
      <trkpt lat="49.86551" lon="5.39056">
        <ele>592</ele>
        <time>2015-02-01T12:19:07Z</time>
      </trkpt>
      <trkpt lat="49.86553" lon="5.39058">
        <ele>593</ele>
        <time>2015-02-01T12:19:12Z</time>
      </trkpt>
      <trkpt lat="49.86556" lon="5.39063">
        <ele>593</ele>
        <time>2015-02-01T12:19:18Z</time>
      </trkpt>
      <trkpt lat="49.8656" lon="5.39067">
        <ele>594</ele>
        <time>2015-02-01T12:19:24Z</time>
      </trkpt>
      <trkpt lat="49.86563" lon="5.39072">
        <ele>595</ele>
        <time>2015-02-01T12:19:30Z</time>
      </trkpt>
      <trkpt lat="49.86567" lon="5.39077">
        <ele>596</ele>
        <time>2015-02-01T12:19:36Z</time>
      </trkpt>
      <trkpt lat="49.86571" lon="5.39081">
        <ele>596</ele>
        <time>2015-02-01T12:19:41Z</time>
      </trkpt>
      <trkpt lat="49.86575" lon="5.39086">
        <ele>596</ele>
        <time>2015-02-01T12:19:46Z</time>
      </trkpt>
      <trkpt lat="49.86581" lon="5.39093">
        <ele>598</ele>
        <time>2015-02-01T12:19:52Z</time>
      </trkpt>
      <trkpt lat="49.86584" lon="5.39097">
        <ele>599</ele>
        <time>2015-02-01T12:19:57Z</time>
      </trkpt>
      <trkpt lat="49.86588" lon="5.39103">
        <ele>600</ele>
        <time>2015-02-01T12:20:02Z</time>
      </trkpt>
      <trkpt lat="49.86594" lon="5.39109">
        <ele>600</ele>
        <time>2015-02-01T12:20:07Z</time>
      </trkpt>
      <trkpt lat="49.866" lon="5.39114">
        <ele>600</ele>
        <time>2015-02-01T12:20:13Z</time>
      </trkpt>
      <trkpt lat="49.86604" lon="5.39117">
        <ele>601</ele>
        <time>2015-02-01T12:20:18Z</time>
      </trkpt>
      <trkpt lat="49.86609" lon="5.39124">
        <ele>602</ele>
        <time>2015-02-01T12:20:23Z</time>
      </trkpt>
      <trkpt lat="49.86613" lon="5.39131">
        <ele>603</ele>
        <time>2015-02-01T12:20:29Z</time>
      </trkpt>
      <trkpt lat="49.86617" lon="5.39137">
        <ele>604</ele>
        <time>2015-02-01T12:20:34Z</time>
      </trkpt>
      <trkpt lat="49.86621" lon="5.39142">
        <ele>605</ele>
        <time>2015-02-01T12:20:40Z</time>
      </trkpt>
      <trkpt lat="49.86626" lon="5.39149">
        <ele>604</ele>
        <time>2015-02-01T12:20:45Z</time>
      </trkpt>
      <trkpt lat="49.86632" lon="5.39157">
        <ele>605</ele>
        <time>2015-02-01T12:20:51Z</time>
      </trkpt>
      <trkpt lat="49.86638" lon="5.39167">
        <ele>606</ele>
        <time>2015-02-01T12:20:57Z</time>
      </trkpt>
      <trkpt lat="49.86641" lon="5.39176">
        <ele>605</ele>
        <time>2015-02-01T12:21:03Z</time>
      </trkpt>
      <trkpt lat="49.86642" lon="5.39185">
        <ele>606</ele>
        <time>2015-02-01T12:21:09Z</time>
      </trkpt>
      <trkpt lat="49.86644" lon="5.39194">
        <ele>607</ele>
        <time>2015-02-01T12:21:14Z</time>
      </trkpt>
      <trkpt lat="49.86644" lon="5.39202">
        <ele>607</ele>
        <time>2015-02-01T12:21:19Z</time>
      </trkpt>
      <trkpt lat="49.86642" lon="5.39209">
        <ele>608</ele>
        <time>2015-02-01T12:21:24Z</time>
      </trkpt>
      <trkpt lat="49.8664" lon="5.39216">
        <ele>607</ele>
        <time>2015-02-01T12:21:30Z</time>
      </trkpt>
      <trkpt lat="49.86637" lon="5.39223">
        <ele>607</ele>
        <time>2015-02-01T12:21:36Z</time>
      </trkpt>
      <trkpt lat="49.86632" lon="5.39231">
        <ele>609</ele>
        <time>2015-02-01T12:21:42Z</time>
      </trkpt>
      <trkpt lat="49.86629" lon="5.39236">
        <ele>609</ele>
        <time>2015-02-01T12:21:47Z</time>
      </trkpt>
      <trkpt lat="49.86627" lon="5.39242">
        <ele>609</ele>
        <time>2015-02-01T12:21:52Z</time>
      </trkpt>
      <trkpt lat="49.86625" lon="5.39245">
        <ele>609</ele>
        <time>2015-02-01T12:21:57Z</time>
      </trkpt>
      <trkpt lat="49.86623" lon="5.39249">
        <ele>610</ele>
        <time>2015-02-01T12:22:03Z</time>
      </trkpt>
      <trkpt lat="49.86624" lon="5.39251">
        <ele>610</ele>
        <time>2015-02-01T12:22:08Z</time>
      </trkpt>
      <trkpt lat="49.86623" lon="5.39259">
        <ele>610</ele>
        <time>2015-02-01T12:22:13Z</time>
      </trkpt>
      <trkpt lat="49.86621" lon="5.39268">
        <ele>610</ele>
        <time>2015-02-01T12:22:18Z</time>
      </trkpt>
      <trkpt lat="49.8662" lon="5.39274">
        <ele>611</ele>
        <time>2015-02-01T12:22:24Z</time>
      </trkpt>
      <trkpt lat="49.8662" lon="5.3928">
        <ele>611</ele>
        <time>2015-02-01T12:22:30Z</time>
      </trkpt>
      <trkpt lat="49.86615" lon="5.3929">
        <ele>612</ele>
        <time>2015-02-01T12:22:36Z</time>
      </trkpt>
      <trkpt lat="49.86611" lon="5.39299">
        <ele>612</ele>
        <time>2015-02-01T12:22:41Z</time>
      </trkpt>
      <trkpt lat="49.86609" lon="5.39308">
        <ele>611</ele>
        <time>2015-02-01T12:22:47Z</time>
      </trkpt>
      <trkpt lat="49.86606" lon="5.39318">
        <ele>612</ele>
        <time>2015-02-01T12:22:53Z</time>
      </trkpt>
      <trkpt lat="49.86604" lon="5.39326">
        <ele>613</ele>
        <time>2015-02-01T12:22:58Z</time>
      </trkpt>
      <trkpt lat="49.86601" lon="5.39334">
        <ele>613</ele>
        <time>2015-02-01T12:23:03Z</time>
      </trkpt>
      <trkpt lat="49.86597" lon="5.39344">
        <ele>614</ele>
        <time>2015-02-01T12:23:09Z</time>
      </trkpt>
      <trkpt lat="49.86593" lon="5.39351">
        <ele>614</ele>
        <time>2015-02-01T12:23:15Z</time>
      </trkpt>
      <trkpt lat="49.86589" lon="5.39357">
        <ele>615</ele>
        <time>2015-02-01T12:23:20Z</time>
      </trkpt>
      <trkpt lat="49.86584" lon="5.39362">
        <ele>615</ele>
        <time>2015-02-01T12:23:25Z</time>
      </trkpt>
      <trkpt lat="49.8658" lon="5.39368">
        <ele>615</ele>
        <time>2015-02-01T12:23:30Z</time>
      </trkpt>
      <trkpt lat="49.86576" lon="5.39376">
        <ele>615</ele>
        <time>2015-02-01T12:23:36Z</time>
      </trkpt>
      <trkpt lat="49.86571" lon="5.39383">
        <ele>616</ele>
        <time>2015-02-01T12:23:42Z</time>
      </trkpt>
      <trkpt lat="49.86566" lon="5.39388">
        <ele>617</ele>
        <time>2015-02-01T12:23:48Z</time>
      </trkpt>
      <trkpt lat="49.86561" lon="5.39394">
        <ele>617</ele>
        <time>2015-02-01T12:23:54Z</time>
      </trkpt>
      <trkpt lat="49.86556" lon="5.39399">
        <ele>617</ele>
        <time>2015-02-01T12:23:59Z</time>
      </trkpt>
      <trkpt lat="49.8655" lon="5.39407">
        <ele>617</ele>
        <time>2015-02-01T12:24:05Z</time>
      </trkpt>
      <trkpt lat="49.86546" lon="5.39413">
        <ele>617</ele>
        <time>2015-02-01T12:24:10Z</time>
      </trkpt>
      <trkpt lat="49.86542" lon="5.39418">
        <ele>617</ele>
        <time>2015-02-01T12:24:15Z</time>
      </trkpt>
      <trkpt lat="49.86537" lon="5.39425">
        <ele>618</ele>
        <time>2015-02-01T12:24:21Z</time>
      </trkpt>
      <trkpt lat="49.8653" lon="5.39432">
        <ele>617</ele>
        <time>2015-02-01T12:24:27Z</time>
      </trkpt>
      <trkpt lat="49.86525" lon="5.39439">
        <ele>617</ele>
        <time>2015-02-01T12:24:33Z</time>
      </trkpt>
      <trkpt lat="49.8652" lon="5.39446">
        <ele>617</ele>
        <time>2015-02-01T12:24:38Z</time>
      </trkpt>
      <trkpt lat="49.86517" lon="5.39453">
        <ele>616</ele>
        <time>2015-02-01T12:24:44Z</time>
      </trkpt>
      <trkpt lat="49.86512" lon="5.39459">
        <ele>617</ele>
        <time>2015-02-01T12:24:50Z</time>
      </trkpt>
      <trkpt lat="49.86505" lon="5.39466">
        <ele>617</ele>
        <time>2015-02-01T12:24:56Z</time>
      </trkpt>
      <trkpt lat="49.865" lon="5.3947">
        <ele>617</ele>
        <time>2015-02-01T12:25:01Z</time>
      </trkpt>
      <trkpt lat="49.86494" lon="5.39475">
        <ele>617</ele>
        <time>2015-02-01T12:25:07Z</time>
      </trkpt>
      <trkpt lat="49.86489" lon="5.39479">
        <ele>618</ele>
        <time>2015-02-01T12:25:13Z</time>
      </trkpt>
      <trkpt lat="49.86484" lon="5.39484">
        <ele>618</ele>
        <time>2015-02-01T12:25:18Z</time>
      </trkpt>
      <trkpt lat="49.86478" lon="5.3949">
        <ele>618</ele>
        <time>2015-02-01T12:25:24Z</time>
      </trkpt>
      <trkpt lat="49.86472" lon="5.39494">
        <ele>618</ele>
        <time>2015-02-01T12:25:29Z</time>
      </trkpt>
      <trkpt lat="49.86464" lon="5.39498">
        <ele>618</ele>
        <time>2015-02-01T12:25:34Z</time>
      </trkpt>
      <trkpt lat="49.86458" lon="5.395">
        <ele>618</ele>
        <time>2015-02-01T12:25:40Z</time>
      </trkpt>
      <trkpt lat="49.86451" lon="5.39505">
        <ele>618</ele>
        <time>2015-02-01T12:25:46Z</time>
      </trkpt>
      <trkpt lat="49.86443" lon="5.3951">
        <ele>618</ele>
        <time>2015-02-01T12:25:52Z</time>
      </trkpt>
      <trkpt lat="49.86437" lon="5.39516">
        <ele>619</ele>
        <time>2015-02-01T12:25:58Z</time>
      </trkpt>
      <trkpt lat="49.86432" lon="5.39526">
        <ele>619</ele>
        <time>2015-02-01T12:26:04Z</time>
      </trkpt>
      <trkpt lat="49.8643" lon="5.39538">
        <ele>619</ele>
        <time>2015-02-01T12:26:09Z</time>
      </trkpt>
      <trkpt lat="49.86428" lon="5.39548">
        <ele>619</ele>
        <time>2015-02-01T12:26:15Z</time>
      </trkpt>
      <trkpt lat="49.86425" lon="5.39557">
        <ele>620</ele>
        <time>2015-02-01T12:26:20Z</time>
      </trkpt>
      <trkpt lat="49.86422" lon="5.39566">
        <ele>620</ele>
        <time>2015-02-01T12:26:25Z</time>
      </trkpt>
      <trkpt lat="49.86416" lon="5.3957">
        <ele>620</ele>
        <time>2015-02-01T12:26:31Z</time>
      </trkpt>
      <trkpt lat="49.86414" lon="5.39573">
        <ele>621</ele>
        <time>2015-02-01T12:26:36Z</time>
      </trkpt>
      <trkpt lat="49.86407" lon="5.39573">
        <ele>621</ele>
        <time>2015-02-01T12:26:42Z</time>
      </trkpt>
      <trkpt lat="49.86402" lon="5.39573">
        <ele>621</ele>
        <time>2015-02-01T12:26:48Z</time>
      </trkpt>
      <trkpt lat="49.86398" lon="5.39576">
        <ele>621</ele>
        <time>2015-02-01T12:26:53Z</time>
      </trkpt>
      <trkpt lat="49.86397" lon="5.39578">
        <ele>622</ele>
        <time>2015-02-01T12:26:59Z</time>
      </trkpt>
      <trkpt lat="49.86396" lon="5.39581">
        <ele>621</ele>
        <time>2015-02-01T12:27:04Z</time>
      </trkpt>
      <trkpt lat="49.86395" lon="5.39582">
        <ele>621</ele>
        <time>2015-02-01T12:27:10Z</time>
      </trkpt>
      <trkpt lat="49.86395" lon="5.39584">
        <ele>621</ele>
        <time>2015-02-01T12:27:16Z</time>
      </trkpt>
      <trkpt lat="49.86396" lon="5.39583">
        <ele>621</ele>
        <time>2015-02-01T12:27:22Z</time>
      </trkpt>
      <trkpt lat="49.86395" lon="5.39581">
        <ele>621</ele>
        <time>2015-02-01T12:27:27Z</time>
      </trkpt>
      <trkpt lat="49.86395" lon="5.3958">
        <ele>621</ele>
        <time>2015-02-01T12:27:33Z</time>
      </trkpt>
      <trkpt lat="49.86393" lon="5.39577">
        <ele>621</ele>
        <time>2015-02-01T12:27:39Z</time>
      </trkpt>
      <trkpt lat="49.86388" lon="5.39572">
        <ele>621</ele>
        <time>2015-02-01T12:27:44Z</time>
      </trkpt>
      <trkpt lat="49.86385" lon="5.39567">
        <ele>621</ele>
        <time>2015-02-01T12:27:51Z</time>
      </trkpt>
      <trkpt lat="49.8638" lon="5.3956">
        <ele>621</ele>
        <time>2015-02-01T12:27:56Z</time>
      </trkpt>
      <trkpt lat="49.86375" lon="5.39553">
        <ele>621</ele>
        <time>2015-02-01T12:28:01Z</time>
      </trkpt>
      <trkpt lat="49.86372" lon="5.39545">
        <ele>621</ele>
        <time>2015-02-01T12:28:07Z</time>
      </trkpt>
      <trkpt lat="49.86367" lon="5.39539">
        <ele>621</ele>
        <time>2015-02-01T12:28:12Z</time>
      </trkpt>
      <trkpt lat="49.86363" lon="5.39534">
        <ele>621</ele>
        <time>2015-02-01T12:28:18Z</time>
      </trkpt>
      <trkpt lat="49.86363" lon="5.39531">
        <ele>621</ele>
        <time>2015-02-01T12:28:24Z</time>
      </trkpt>
      <trkpt lat="49.86361" lon="5.39529">
        <ele>621</ele>
        <time>2015-02-01T12:28:29Z</time>
      </trkpt>
      <trkpt lat="49.86359" lon="5.39527">
        <ele>620</ele>
        <time>2015-02-01T12:28:34Z</time>
      </trkpt>
      <trkpt lat="49.86359" lon="5.39526">
        <ele>621</ele>
        <time>2015-02-01T12:28:41Z</time>
      </trkpt>
      <trkpt lat="49.86357" lon="5.39525">
        <ele>621</ele>
        <time>2015-02-01T12:28:47Z</time>
      </trkpt>
      <trkpt lat="49.86357" lon="5.39524">
        <ele>620</ele>
        <time>2015-02-01T12:28:52Z</time>
      </trkpt>
      <trkpt lat="49.86354" lon="5.39521">
        <ele>621</ele>
        <time>2015-02-01T12:28:59Z</time>
      </trkpt>
      <trkpt lat="49.86355" lon="5.39521">
        <ele>620</ele>
        <time>2015-02-01T12:29:04Z</time>
      </trkpt>
      <trkpt lat="49.86352" lon="5.39514">
        <ele>620</ele>
        <time>2015-02-01T12:29:11Z</time>
      </trkpt>
      <trkpt lat="49.86349" lon="5.39506">
        <ele>621</ele>
        <time>2015-02-01T12:29:16Z</time>
      </trkpt>
      <trkpt lat="49.86346" lon="5.39499">
        <ele>621</ele>
        <time>2015-02-01T12:29:22Z</time>
      </trkpt>
      <trkpt lat="49.86341" lon="5.39491">
        <ele>621</ele>
        <time>2015-02-01T12:29:27Z</time>
      </trkpt>
      <trkpt lat="49.86338" lon="5.39483">
        <ele>620</ele>
        <time>2015-02-01T12:29:32Z</time>
      </trkpt>
      <trkpt lat="49.86335" lon="5.39476">
        <ele>620</ele>
        <time>2015-02-01T12:29:38Z</time>
      </trkpt>
      <trkpt lat="49.8633" lon="5.39467">
        <ele>620</ele>
        <time>2015-02-01T12:29:43Z</time>
      </trkpt>
      <trkpt lat="49.86326" lon="5.39461">
        <ele>621</ele>
        <time>2015-02-01T12:29:48Z</time>
      </trkpt>
      <trkpt lat="49.86321" lon="5.39454">
        <ele>621</ele>
        <time>2015-02-01T12:29:53Z</time>
      </trkpt>
      <trkpt lat="49.86316" lon="5.39445">
        <ele>621</ele>
        <time>2015-02-01T12:29:59Z</time>
      </trkpt>
      <trkpt lat="49.86311" lon="5.39438">
        <ele>621</ele>
        <time>2015-02-01T12:30:05Z</time>
      </trkpt>
      <trkpt lat="49.86306" lon="5.39432">
        <ele>621</ele>
        <time>2015-02-01T12:30:10Z</time>
      </trkpt>
      <trkpt lat="49.86302" lon="5.39426">
        <ele>621</ele>
        <time>2015-02-01T12:30:16Z</time>
      </trkpt>
      <trkpt lat="49.86297" lon="5.39419">
        <ele>622</ele>
        <time>2015-02-01T12:30:22Z</time>
      </trkpt>
      <trkpt lat="49.86292" lon="5.39412">
        <ele>622</ele>
        <time>2015-02-01T12:30:27Z</time>
      </trkpt>
      <trkpt lat="49.86288" lon="5.39405">
        <ele>622</ele>
        <time>2015-02-01T12:30:32Z</time>
      </trkpt>
      <trkpt lat="49.86285" lon="5.39398">
        <ele>622</ele>
        <time>2015-02-01T12:30:37Z</time>
      </trkpt>
      <trkpt lat="49.86282" lon="5.39388">
        <ele>621</ele>
        <time>2015-02-01T12:30:43Z</time>
      </trkpt>
      <trkpt lat="49.86277" lon="5.3938">
        <ele>622</ele>
        <time>2015-02-01T12:30:49Z</time>
      </trkpt>
      <trkpt lat="49.86273" lon="5.39373">
        <ele>622</ele>
        <time>2015-02-01T12:30:55Z</time>
      </trkpt>
      <trkpt lat="49.8627" lon="5.39367">
        <ele>622</ele>
        <time>2015-02-01T12:31:00Z</time>
      </trkpt>
      <trkpt lat="49.86266" lon="5.39361">
        <ele>621</ele>
        <time>2015-02-01T12:31:05Z</time>
      </trkpt>
      <trkpt lat="49.86263" lon="5.39355">
        <ele>621</ele>
        <time>2015-02-01T12:31:10Z</time>
      </trkpt>
      <trkpt lat="49.86258" lon="5.39347">
        <ele>622</ele>
        <time>2015-02-01T12:31:15Z</time>
      </trkpt>
      <trkpt lat="49.86254" lon="5.39339">
        <ele>621</ele>
        <time>2015-02-01T12:31:21Z</time>
      </trkpt>
      <trkpt lat="49.86253" lon="5.39337">
        <ele>622</ele>
        <time>2015-02-01T12:31:27Z</time>
      </trkpt>
      <trkpt lat="49.86248" lon="5.3933">
        <ele>621</ele>
        <time>2015-02-01T12:31:33Z</time>
      </trkpt>
      <trkpt lat="49.86244" lon="5.39323">
        <ele>621</ele>
        <time>2015-02-01T12:31:39Z</time>
      </trkpt>
      <trkpt lat="49.8624" lon="5.39315">
        <ele>621</ele>
        <time>2015-02-01T12:31:44Z</time>
      </trkpt>
      <trkpt lat="49.86235" lon="5.39308">
        <ele>621</ele>
        <time>2015-02-01T12:31:49Z</time>
      </trkpt>
      <trkpt lat="49.86231" lon="5.39298">
        <ele>621</ele>
        <time>2015-02-01T12:31:55Z</time>
      </trkpt>
      <trkpt lat="49.86226" lon="5.39288">
        <ele>621</ele>
        <time>2015-02-01T12:32:01Z</time>
      </trkpt>
      <trkpt lat="49.86221" lon="5.39278">
        <ele>620</ele>
        <time>2015-02-01T12:32:08Z</time>
      </trkpt>
      <trkpt lat="49.86217" lon="5.39268">
        <ele>620</ele>
        <time>2015-02-01T12:32:13Z</time>
      </trkpt>
      <trkpt lat="49.86212" lon="5.39259">
        <ele>619</ele>
        <time>2015-02-01T12:32:19Z</time>
      </trkpt>
      <trkpt lat="49.86208" lon="5.39251">
        <ele>619</ele>
        <time>2015-02-01T12:32:25Z</time>
      </trkpt>
      <trkpt lat="49.86204" lon="5.39242">
        <ele>619</ele>
        <time>2015-02-01T12:32:31Z</time>
      </trkpt>
      <trkpt lat="49.86201" lon="5.39235">
        <ele>618</ele>
        <time>2015-02-01T12:32:37Z</time>
      </trkpt>
      <trkpt lat="49.86199" lon="5.39228">
        <ele>618</ele>
        <time>2015-02-01T12:32:42Z</time>
      </trkpt>
      <trkpt lat="49.86196" lon="5.39221">
        <ele>617</ele>
        <time>2015-02-01T12:32:48Z</time>
      </trkpt>
      <trkpt lat="49.86193" lon="5.39214">
        <ele>617</ele>
        <time>2015-02-01T12:32:53Z</time>
      </trkpt>
      <trkpt lat="49.86189" lon="5.39202">
        <ele>617</ele>
        <time>2015-02-01T12:32:59Z</time>
      </trkpt>
      <trkpt lat="49.86185" lon="5.39193">
        <ele>617</ele>
        <time>2015-02-01T12:33:04Z</time>
      </trkpt>
      <trkpt lat="49.86181" lon="5.39183">
        <ele>616</ele>
        <time>2015-02-01T12:33:10Z</time>
      </trkpt>
      <trkpt lat="49.86177" lon="5.39173">
        <ele>616</ele>
        <time>2015-02-01T12:33:16Z</time>
      </trkpt>
      <trkpt lat="49.86173" lon="5.39163">
        <ele>615</ele>
        <time>2015-02-01T12:33:22Z</time>
      </trkpt>
      <trkpt lat="49.8617" lon="5.39153">
        <ele>614</ele>
        <time>2015-02-01T12:33:28Z</time>
      </trkpt>
      <trkpt lat="49.86168" lon="5.39145">
        <ele>614</ele>
        <time>2015-02-01T12:33:34Z</time>
      </trkpt>
      <trkpt lat="49.86166" lon="5.39135">
        <ele>614</ele>
        <time>2015-02-01T12:33:39Z</time>
      </trkpt>
      <trkpt lat="49.86164" lon="5.39127">
        <ele>614</ele>
        <time>2015-02-01T12:33:44Z</time>
      </trkpt>
      <trkpt lat="49.86162" lon="5.39117">
        <ele>614</ele>
        <time>2015-02-01T12:33:50Z</time>
      </trkpt>
      <trkpt lat="49.8616" lon="5.39106">
        <ele>613</ele>
        <time>2015-02-01T12:33:55Z</time>
      </trkpt>
      <trkpt lat="49.86158" lon="5.39095">
        <ele>612</ele>
        <time>2015-02-01T12:34:01Z</time>
      </trkpt>
      <trkpt lat="49.86157" lon="5.39087">
        <ele>612</ele>
        <time>2015-02-01T12:34:06Z</time>
      </trkpt>
      <trkpt lat="49.86155" lon="5.39077">
        <ele>611</ele>
        <time>2015-02-01T12:34:12Z</time>
      </trkpt>
      <trkpt lat="49.86154" lon="5.39066">
        <ele>610</ele>
        <time>2015-02-01T12:34:17Z</time>
      </trkpt>
      <trkpt lat="49.86152" lon="5.39057">
        <ele>610</ele>
        <time>2015-02-01T12:34:22Z</time>
      </trkpt>
      <trkpt lat="49.8615" lon="5.39048">
        <ele>610</ele>
        <time>2015-02-01T12:34:28Z</time>
      </trkpt>
      <trkpt lat="49.86146" lon="5.39037">
        <ele>609</ele>
        <time>2015-02-01T12:34:33Z</time>
      </trkpt>
      <trkpt lat="49.86143" lon="5.39028">
        <ele>609</ele>
        <time>2015-02-01T12:34:39Z</time>
      </trkpt>
      <trkpt lat="49.86141" lon="5.39019">
        <ele>608</ele>
        <time>2015-02-01T12:34:44Z</time>
      </trkpt>
      <trkpt lat="49.86136" lon="5.39008">
        <ele>608</ele>
        <time>2015-02-01T12:34:50Z</time>
      </trkpt>
      <trkpt lat="49.86132" lon="5.38998">
        <ele>608</ele>
        <time>2015-02-01T12:34:55Z</time>
      </trkpt>
      <trkpt lat="49.86129" lon="5.3899">
        <ele>607</ele>
        <time>2015-02-01T12:35:01Z</time>
      </trkpt>
      <trkpt lat="49.86127" lon="5.38982">
        <ele>607</ele>
        <time>2015-02-01T12:35:06Z</time>
      </trkpt>
      <trkpt lat="49.86125" lon="5.38974">
        <ele>607</ele>
        <time>2015-02-01T12:35:11Z</time>
      </trkpt>
      <trkpt lat="49.86123" lon="5.38965">
        <ele>606</ele>
        <time>2015-02-01T12:35:16Z</time>
      </trkpt>
      <trkpt lat="49.86121" lon="5.38958">
        <ele>606</ele>
        <time>2015-02-01T12:35:22Z</time>
      </trkpt>
      <trkpt lat="49.86119" lon="5.38951">
        <ele>606</ele>
        <time>2015-02-01T12:35:27Z</time>
      </trkpt>
      <trkpt lat="49.86116" lon="5.38944">
        <ele>606</ele>
        <time>2015-02-01T12:35:33Z</time>
      </trkpt>
      <trkpt lat="49.86112" lon="5.38935">
        <ele>606</ele>
        <time>2015-02-01T12:35:38Z</time>
      </trkpt>
      <trkpt lat="49.86108" lon="5.38925">
        <ele>605</ele>
        <time>2015-02-01T12:35:45Z</time>
      </trkpt>
      <trkpt lat="49.86103" lon="5.38915">
        <ele>605</ele>
        <time>2015-02-01T12:35:50Z</time>
      </trkpt>
      <trkpt lat="49.86099" lon="5.38906">
        <ele>605</ele>
        <time>2015-02-01T12:35:55Z</time>
      </trkpt>
      <trkpt lat="49.86094" lon="5.38897">
        <ele>605</ele>
        <time>2015-02-01T12:36:01Z</time>
      </trkpt>
      <trkpt lat="49.86089" lon="5.38886">
        <ele>604</ele>
        <time>2015-02-01T12:36:06Z</time>
      </trkpt>
      <trkpt lat="49.86084" lon="5.38877">
        <ele>604</ele>
        <time>2015-02-01T12:36:12Z</time>
      </trkpt>
      <trkpt lat="49.8608" lon="5.3887">
        <ele>603</ele>
        <time>2015-02-01T12:36:17Z</time>
      </trkpt>
      <trkpt lat="49.86078" lon="5.38867">
        <ele>603</ele>
        <time>2015-02-01T12:36:22Z</time>
      </trkpt>
      <trkpt lat="49.86074" lon="5.38861">
        <ele>603</ele>
        <time>2015-02-01T12:36:28Z</time>
      </trkpt>
      <trkpt lat="49.86074" lon="5.38862">
        <ele>603</ele>
        <time>2015-02-01T12:36:33Z</time>
      </trkpt>
      <trkpt lat="49.86074" lon="5.38861">
        <ele>603</ele>
        <time>2015-02-01T12:36:38Z</time>
      </trkpt>
      <trkpt lat="49.86073" lon="5.38861">
        <ele>603</ele>
        <time>2015-02-01T12:36:44Z</time>
      </trkpt>
      <trkpt lat="49.86072" lon="5.38862">
        <ele>603</ele>
        <time>2015-02-01T12:36:52Z</time>
      </trkpt>
      <trkpt lat="49.86071" lon="5.3886">
        <ele>604</ele>
        <time>2015-02-01T12:36:58Z</time>
      </trkpt>
      <trkpt lat="49.86071" lon="5.38859">
        <ele>604</ele>
        <time>2015-02-01T12:37:04Z</time>
      </trkpt>
      <trkpt lat="49.8607" lon="5.38859">
        <ele>604</ele>
        <time>2015-02-01T12:37:10Z</time>
      </trkpt>
      <trkpt lat="49.8607" lon="5.38859">
        <ele>604</ele>
        <time>2015-02-01T12:37:15Z</time>
      </trkpt>
      <trkpt lat="49.86069" lon="5.3886">
        <ele>604</ele>
        <time>2015-02-01T12:37:26Z</time>
      </trkpt>
      <trkpt lat="49.86069" lon="5.38859">
        <ele>603</ele>
        <time>2015-02-01T12:37:32Z</time>
      </trkpt>
      <trkpt lat="49.86069" lon="5.38858">
        <ele>603</ele>
        <time>2015-02-01T12:37:38Z</time>
      </trkpt>
      <trkpt lat="49.86069" lon="5.38854">
        <ele>603</ele>
        <time>2015-02-01T12:37:43Z</time>
      </trkpt>
      <trkpt lat="49.86068" lon="5.38853">
        <ele>604</ele>
        <time>2015-02-01T12:37:49Z</time>
      </trkpt>
      <trkpt lat="49.86069" lon="5.38854">
        <ele>603</ele>
        <time>2015-02-01T12:37:54Z</time>
      </trkpt>
      <trkpt lat="49.86072" lon="5.38858">
        <ele>603</ele>
        <time>2015-02-01T12:38:02Z</time>
      </trkpt>
      <trkpt lat="49.86072" lon="5.38859">
        <ele>603</ele>
        <time>2015-02-01T12:38:08Z</time>
      </trkpt>
      <trkpt lat="49.86072" lon="5.3886">
        <ele>603</ele>
        <time>2015-02-01T12:38:13Z</time>
      </trkpt>
      <trkpt lat="49.86072" lon="5.3886">
        <ele>603</ele>
        <time>2015-02-01T12:38:19Z</time>
      </trkpt>
      <trkpt lat="49.86072" lon="5.38859">
        <ele>603</ele>
        <time>2015-02-01T12:38:25Z</time>
      </trkpt>
      <trkpt lat="49.86069" lon="5.38854">
        <ele>604</ele>
        <time>2015-02-01T12:38:30Z</time>
      </trkpt>
      <trkpt lat="49.86066" lon="5.3885">
        <ele>603</ele>
        <time>2015-02-01T12:38:36Z</time>
      </trkpt>
      <trkpt lat="49.86063" lon="5.38843">
        <ele>603</ele>
        <time>2015-02-01T12:38:41Z</time>
      </trkpt>
      <trkpt lat="49.86058" lon="5.38836">
        <ele>603</ele>
        <time>2015-02-01T12:38:46Z</time>
      </trkpt>
      <trkpt lat="49.86052" lon="5.38827">
        <ele>602</ele>
        <time>2015-02-01T12:38:52Z</time>
      </trkpt>
      <trkpt lat="49.86047" lon="5.3882">
        <ele>602</ele>
        <time>2015-02-01T12:38:58Z</time>
      </trkpt>
      <trkpt lat="49.86046" lon="5.38817">
        <ele>602</ele>
        <time>2015-02-01T12:39:03Z</time>
      </trkpt>
      <trkpt lat="49.86043" lon="5.38813">
        <ele>601</ele>
        <time>2015-02-01T12:39:09Z</time>
      </trkpt>
      <trkpt lat="49.86038" lon="5.38806">
        <ele>601</ele>
        <time>2015-02-01T12:39:14Z</time>
      </trkpt>
      <trkpt lat="49.86034" lon="5.38801">
        <ele>601</ele>
        <time>2015-02-01T12:39:20Z</time>
      </trkpt>
      <trkpt lat="49.86029" lon="5.38794">
        <ele>601</ele>
        <time>2015-02-01T12:39:26Z</time>
      </trkpt>
      <trkpt lat="49.86025" lon="5.38789">
        <ele>600</ele>
        <time>2015-02-01T12:39:31Z</time>
      </trkpt>
      <trkpt lat="49.86019" lon="5.38782">
        <ele>600</ele>
        <time>2015-02-01T12:39:37Z</time>
      </trkpt>
      <trkpt lat="49.86014" lon="5.38776">
        <ele>600</ele>
        <time>2015-02-01T12:39:42Z</time>
      </trkpt>
      <trkpt lat="49.86009" lon="5.38769">
        <ele>599</ele>
        <time>2015-02-01T12:39:48Z</time>
      </trkpt>
      <trkpt lat="49.86004" lon="5.38762">
        <ele>599</ele>
        <time>2015-02-01T12:39:54Z</time>
      </trkpt>
      <trkpt lat="49.85999" lon="5.38754">
        <ele>598</ele>
        <time>2015-02-01T12:39:59Z</time>
      </trkpt>
      <trkpt lat="49.85994" lon="5.38748">
        <ele>598</ele>
        <time>2015-02-01T12:40:04Z</time>
      </trkpt>
      <trkpt lat="49.85989" lon="5.3874">
        <ele>597</ele>
        <time>2015-02-01T12:40:10Z</time>
      </trkpt>
      <trkpt lat="49.85983" lon="5.38733">
        <ele>597</ele>
        <time>2015-02-01T12:40:15Z</time>
      </trkpt>
      <trkpt lat="49.85977" lon="5.38724">
        <ele>596</ele>
        <time>2015-02-01T12:40:21Z</time>
      </trkpt>
      <trkpt lat="49.85971" lon="5.38715">
        <ele>595</ele>
        <time>2015-02-01T12:40:27Z</time>
      </trkpt>
      <trkpt lat="49.85968" lon="5.38706">
        <ele>595</ele>
        <time>2015-02-01T12:40:32Z</time>
      </trkpt>
      <trkpt lat="49.85963" lon="5.387">
        <ele>594</ele>
        <time>2015-02-01T12:40:37Z</time>
      </trkpt>
      <trkpt lat="49.85958" lon="5.38691">
        <ele>594</ele>
        <time>2015-02-01T12:40:43Z</time>
      </trkpt>
      <trkpt lat="49.85954" lon="5.38684">
        <ele>593</ele>
        <time>2015-02-01T12:40:48Z</time>
      </trkpt>
      <trkpt lat="49.85948" lon="5.38676">
        <ele>593</ele>
        <time>2015-02-01T12:40:54Z</time>
      </trkpt>
      <trkpt lat="49.85942" lon="5.38669">
        <ele>592</ele>
        <time>2015-02-01T12:41:00Z</time>
      </trkpt>
      <trkpt lat="49.85936" lon="5.38661">
        <ele>592</ele>
        <time>2015-02-01T12:41:06Z</time>
      </trkpt>
      <trkpt lat="49.85931" lon="5.38654">
        <ele>592</ele>
        <time>2015-02-01T12:41:12Z</time>
      </trkpt>
      <trkpt lat="49.85926" lon="5.38647">
        <ele>591</ele>
        <time>2015-02-01T12:41:17Z</time>
      </trkpt>
      <trkpt lat="49.85919" lon="5.3864">
        <ele>591</ele>
        <time>2015-02-01T12:41:23Z</time>
      </trkpt>
      <trkpt lat="49.85914" lon="5.38633">
        <ele>590</ele>
        <time>2015-02-01T12:41:28Z</time>
      </trkpt>
      <trkpt lat="49.85909" lon="5.38625">
        <ele>590</ele>
        <time>2015-02-01T12:41:34Z</time>
      </trkpt>
      <trkpt lat="49.85904" lon="5.38616">
        <ele>589</ele>
        <time>2015-02-01T12:41:40Z</time>
      </trkpt>
      <trkpt lat="49.85899" lon="5.38607">
        <ele>589</ele>
        <time>2015-02-01T12:41:46Z</time>
      </trkpt>
      <trkpt lat="49.85894" lon="5.38598">
        <ele>588</ele>
        <time>2015-02-01T12:41:52Z</time>
      </trkpt>
      <trkpt lat="49.85889" lon="5.38589">
        <ele>588</ele>
        <time>2015-02-01T12:41:58Z</time>
      </trkpt>
      <trkpt lat="49.85885" lon="5.38579">
        <ele>588</ele>
        <time>2015-02-01T12:42:04Z</time>
      </trkpt>
      <trkpt lat="49.8588" lon="5.38569">
        <ele>588</ele>
        <time>2015-02-01T12:42:10Z</time>
      </trkpt>
      <trkpt lat="49.85876" lon="5.38557">
        <ele>587</ele>
        <time>2015-02-01T12:42:16Z</time>
      </trkpt>
      <trkpt lat="49.85872" lon="5.38549">
        <ele>587</ele>
        <time>2015-02-01T12:42:21Z</time>
      </trkpt>
      <trkpt lat="49.85868" lon="5.38538">
        <ele>587</ele>
        <time>2015-02-01T12:42:27Z</time>
      </trkpt>
      <trkpt lat="49.85865" lon="5.3853">
        <ele>587</ele>
        <time>2015-02-01T12:42:32Z</time>
      </trkpt>
      <trkpt lat="49.8586" lon="5.38519">
        <ele>586</ele>
        <time>2015-02-01T12:42:38Z</time>
      </trkpt>
      <trkpt lat="49.85856" lon="5.38511">
        <ele>586</ele>
        <time>2015-02-01T12:42:44Z</time>
      </trkpt>
      <trkpt lat="49.85854" lon="5.38506">
        <ele>585</ele>
        <time>2015-02-01T12:42:50Z</time>
      </trkpt>
      <trkpt lat="49.85851" lon="5.38499">
        <ele>585</ele>
        <time>2015-02-01T12:42:55Z</time>
      </trkpt>
      <trkpt lat="49.85847" lon="5.3849">
        <ele>585</ele>
        <time>2015-02-01T12:43:01Z</time>
      </trkpt>
      <trkpt lat="49.85843" lon="5.38482">
        <ele>585</ele>
        <time>2015-02-01T12:43:07Z</time>
      </trkpt>
      <trkpt lat="49.85839" lon="5.38473">
        <ele>584</ele>
        <time>2015-02-01T12:43:13Z</time>
      </trkpt>
      <trkpt lat="49.85834" lon="5.38464">
        <ele>584</ele>
        <time>2015-02-01T12:43:19Z</time>
      </trkpt>
      <trkpt lat="49.8583" lon="5.38456">
        <ele>584</ele>
        <time>2015-02-01T12:43:24Z</time>
      </trkpt>
      <trkpt lat="49.85826" lon="5.38447">
        <ele>584</ele>
        <time>2015-02-01T12:43:30Z</time>
      </trkpt>
      <trkpt lat="49.85823" lon="5.38438">
        <ele>583</ele>
        <time>2015-02-01T12:43:35Z</time>
      </trkpt>
      <trkpt lat="49.8582" lon="5.38431">
        <ele>583</ele>
        <time>2015-02-01T12:43:41Z</time>
      </trkpt>
      <trkpt lat="49.85815" lon="5.38423">
        <ele>583</ele>
        <time>2015-02-01T12:43:46Z</time>
      </trkpt>
      <trkpt lat="49.85812" lon="5.38415">
        <ele>584</ele>
        <time>2015-02-01T12:43:52Z</time>
      </trkpt>
      <trkpt lat="49.85809" lon="5.38408">
        <ele>583</ele>
        <time>2015-02-01T12:43:58Z</time>
      </trkpt>
      <trkpt lat="49.85807" lon="5.384">
        <ele>583</ele>
        <time>2015-02-01T12:44:03Z</time>
      </trkpt>
      <trkpt lat="49.85804" lon="5.38394">
        <ele>582</ele>
        <time>2015-02-01T12:44:08Z</time>
      </trkpt>
      <trkpt lat="49.85801" lon="5.38385">
        <ele>583</ele>
        <time>2015-02-01T12:44:14Z</time>
      </trkpt>
      <trkpt lat="49.85798" lon="5.38376">
        <ele>583</ele>
        <time>2015-02-01T12:44:20Z</time>
      </trkpt>
      <trkpt lat="49.85794" lon="5.38368">
        <ele>583</ele>
        <time>2015-02-01T12:44:26Z</time>
      </trkpt>
      <trkpt lat="49.85791" lon="5.3836">
        <ele>582</ele>
        <time>2015-02-01T12:44:32Z</time>
      </trkpt>
      <trkpt lat="49.85789" lon="5.38358">
        <ele>582</ele>
        <time>2015-02-01T12:44:37Z</time>
      </trkpt>
      <trkpt lat="49.85788" lon="5.38356">
        <ele>582</ele>
        <time>2015-02-01T12:44:43Z</time>
      </trkpt>
      <trkpt lat="49.85786" lon="5.38354">
        <ele>582</ele>
        <time>2015-02-01T12:44:48Z</time>
      </trkpt>
      <trkpt lat="49.85783" lon="5.38348">
        <ele>582</ele>
        <time>2015-02-01T12:44:53Z</time>
      </trkpt>
      <trkpt lat="49.8578" lon="5.38339">
        <ele>582</ele>
        <time>2015-02-01T12:44:59Z</time>
      </trkpt>
      <trkpt lat="49.85776" lon="5.38331">
        <ele>581</ele>
        <time>2015-02-01T12:45:05Z</time>
      </trkpt>
      <trkpt lat="49.85772" lon="5.38323">
        <ele>581</ele>
        <time>2015-02-01T12:45:10Z</time>
      </trkpt>
      <trkpt lat="49.85769" lon="5.38316">
        <ele>581</ele>
        <time>2015-02-01T12:45:16Z</time>
      </trkpt>
      <trkpt lat="49.85764" lon="5.38309">
        <ele>581</ele>
        <time>2015-02-01T12:45:21Z</time>
      </trkpt>
      <trkpt lat="49.8576" lon="5.38302">
        <ele>582</ele>
        <time>2015-02-01T12:45:26Z</time>
      </trkpt>
      <trkpt lat="49.85754" lon="5.38295">
        <ele>581</ele>
        <time>2015-02-01T12:45:32Z</time>
      </trkpt>
      <trkpt lat="49.85747" lon="5.38287">
        <ele>581</ele>
        <time>2015-02-01T12:45:38Z</time>
      </trkpt>
      <trkpt lat="49.85741" lon="5.3828">
        <ele>581</ele>
        <time>2015-02-01T12:45:44Z</time>
      </trkpt>
      <trkpt lat="49.85735" lon="5.38273">
        <ele>582</ele>
        <time>2015-02-01T12:45:50Z</time>
      </trkpt>
      <trkpt lat="49.85728" lon="5.38266">
        <ele>581</ele>
        <time>2015-02-01T12:45:56Z</time>
      </trkpt>
      <trkpt lat="49.85722" lon="5.3826">
        <ele>581</ele>
        <time>2015-02-01T12:46:02Z</time>
      </trkpt>
      <trkpt lat="49.85717" lon="5.38254">
        <ele>581</ele>
        <time>2015-02-01T12:46:08Z</time>
      </trkpt>
      <trkpt lat="49.85711" lon="5.38249">
        <ele>581</ele>
        <time>2015-02-01T12:46:13Z</time>
      </trkpt>
      <trkpt lat="49.85706" lon="5.38244">
        <ele>581</ele>
        <time>2015-02-01T12:46:18Z</time>
      </trkpt>
      <trkpt lat="49.857" lon="5.3824">
        <ele>581</ele>
        <time>2015-02-01T12:46:24Z</time>
      </trkpt>
      <trkpt lat="49.85695" lon="5.38237">
        <ele>580</ele>
        <time>2015-02-01T12:46:30Z</time>
      </trkpt>
      <trkpt lat="49.85689" lon="5.38234">
        <ele>580</ele>
        <time>2015-02-01T12:46:35Z</time>
      </trkpt>
      <trkpt lat="49.85687" lon="5.38233">
        <ele>580</ele>
        <time>2015-02-01T12:46:42Z</time>
      </trkpt>
      <trkpt lat="49.85687" lon="5.38232">
        <ele>580</ele>
        <time>2015-02-01T12:46:47Z</time>
      </trkpt>
      <trkpt lat="49.85681" lon="5.38229">
        <ele>580</ele>
        <time>2015-02-01T12:46:53Z</time>
      </trkpt>
      <trkpt lat="49.85675" lon="5.38225">
        <ele>580</ele>
        <time>2015-02-01T12:46:58Z</time>
      </trkpt>
      <trkpt lat="49.8567" lon="5.38222">
        <ele>579</ele>
        <time>2015-02-01T12:47:03Z</time>
      </trkpt>
      <trkpt lat="49.85664" lon="5.38217">
        <ele>578</ele>
        <time>2015-02-01T12:47:08Z</time>
      </trkpt>
      <trkpt lat="49.85658" lon="5.38212">
        <ele>578</ele>
        <time>2015-02-01T12:47:14Z</time>
      </trkpt>
      <trkpt lat="49.85652" lon="5.38208">
        <ele>578</ele>
        <time>2015-02-01T12:47:19Z</time>
      </trkpt>
      <trkpt lat="49.85646" lon="5.38203">
        <ele>578</ele>
        <time>2015-02-01T12:47:24Z</time>
      </trkpt>
      <trkpt lat="49.85641" lon="5.38202">
        <ele>578</ele>
        <time>2015-02-01T12:47:29Z</time>
      </trkpt>
      <trkpt lat="49.85641" lon="5.38201">
        <ele>579</ele>
        <time>2015-02-01T12:47:36Z</time>
      </trkpt>
      <trkpt lat="49.85641" lon="5.38201">
        <ele>578</ele>
        <time>2015-02-01T12:47:41Z</time>
      </trkpt>
      <trkpt lat="49.85636" lon="5.38198">
        <ele>578</ele>
        <time>2015-02-01T12:47:46Z</time>
      </trkpt>
      <trkpt lat="49.8563" lon="5.38196">
        <ele>577</ele>
        <time>2015-02-01T12:47:51Z</time>
      </trkpt>
      <trkpt lat="49.85625" lon="5.38193">
        <ele>577</ele>
        <time>2015-02-01T12:47:56Z</time>
      </trkpt>
      <trkpt lat="49.85619" lon="5.38188">
        <ele>576</ele>
        <time>2015-02-01T12:48:02Z</time>
      </trkpt>
      <trkpt lat="49.85614" lon="5.38183">
        <ele>576</ele>
        <time>2015-02-01T12:48:08Z</time>
      </trkpt>
      <trkpt lat="49.85609" lon="5.38176">
        <ele>576</ele>
        <time>2015-02-01T12:48:14Z</time>
      </trkpt>
      <trkpt lat="49.85604" lon="5.38169">
        <ele>575</ele>
        <time>2015-02-01T12:48:19Z</time>
      </trkpt>
      <trkpt lat="49.85599" lon="5.38164">
        <ele>575</ele>
        <time>2015-02-01T12:48:25Z</time>
      </trkpt>
      <trkpt lat="49.85596" lon="5.38157">
        <ele>574</ele>
        <time>2015-02-01T12:48:31Z</time>
      </trkpt>
      <trkpt lat="49.85591" lon="5.38147">
        <ele>574</ele>
        <time>2015-02-01T12:48:36Z</time>
      </trkpt>
      <trkpt lat="49.85586" lon="5.38138">
        <ele>573</ele>
        <time>2015-02-01T12:48:41Z</time>
      </trkpt>
      <trkpt lat="49.85582" lon="5.3813">
        <ele>572</ele>
        <time>2015-02-01T12:48:47Z</time>
      </trkpt>
      <trkpt lat="49.85579" lon="5.38125">
        <ele>572</ele>
        <time>2015-02-01T12:48:52Z</time>
      </trkpt>
      <trkpt lat="49.85575" lon="5.38116">
        <ele>571</ele>
        <time>2015-02-01T12:48:57Z</time>
      </trkpt>
      <trkpt lat="49.85572" lon="5.38108">
        <ele>571</ele>
        <time>2015-02-01T12:49:03Z</time>
      </trkpt>
      <trkpt lat="49.85569" lon="5.381">
        <ele>570</ele>
        <time>2015-02-01T12:49:09Z</time>
      </trkpt>
      <trkpt lat="49.85564" lon="5.38091">
        <ele>569</ele>
        <time>2015-02-01T12:49:14Z</time>
      </trkpt>
      <trkpt lat="49.8556" lon="5.38081">
        <ele>568</ele>
        <time>2015-02-01T12:49:20Z</time>
      </trkpt>
      <trkpt lat="49.85557" lon="5.38072">
        <ele>567</ele>
        <time>2015-02-01T12:49:25Z</time>
      </trkpt>
      <trkpt lat="49.85553" lon="5.38063">
        <ele>567</ele>
        <time>2015-02-01T12:49:31Z</time>
      </trkpt>
      <trkpt lat="49.85549" lon="5.38053">
        <ele>566</ele>
        <time>2015-02-01T12:49:37Z</time>
      </trkpt>
      <trkpt lat="49.85546" lon="5.38046">
        <ele>565</ele>
        <time>2015-02-01T12:49:43Z</time>
      </trkpt>
      <trkpt lat="49.85543" lon="5.38035">
        <ele>564</ele>
        <time>2015-02-01T12:49:48Z</time>
      </trkpt>
      <trkpt lat="49.8554" lon="5.38026">
        <ele>563</ele>
        <time>2015-02-01T12:49:53Z</time>
      </trkpt>
      <trkpt lat="49.85538" lon="5.38017">
        <ele>562</ele>
        <time>2015-02-01T12:49:58Z</time>
      </trkpt>
      <trkpt lat="49.85536" lon="5.38007">
        <ele>562</ele>
        <time>2015-02-01T12:50:04Z</time>
      </trkpt>
      <trkpt lat="49.85535" lon="5.37998">
        <ele>561</ele>
        <time>2015-02-01T12:50:09Z</time>
      </trkpt>
      <trkpt lat="49.85533" lon="5.37988">
        <ele>561</ele>
        <time>2015-02-01T12:50:14Z</time>
      </trkpt>
      <trkpt lat="49.85531" lon="5.37977">
        <ele>560</ele>
        <time>2015-02-01T12:50:20Z</time>
      </trkpt>
      <trkpt lat="49.85532" lon="5.37973">
        <ele>560</ele>
        <time>2015-02-01T12:50:25Z</time>
      </trkpt>
      <trkpt lat="49.85533" lon="5.37978">
        <ele>560</ele>
        <time>2015-02-01T12:50:31Z</time>
      </trkpt>
      <trkpt lat="49.85535" lon="5.37983">
        <ele>561</ele>
        <time>2015-02-01T12:50:37Z</time>
      </trkpt>
      <trkpt lat="49.85537" lon="5.3799">
        <ele>562</ele>
        <time>2015-02-01T12:50:43Z</time>
      </trkpt>
      <trkpt lat="49.85539" lon="5.37987">
        <ele>562</ele>
        <time>2015-02-01T12:50:48Z</time>
      </trkpt>
      <trkpt lat="49.85539" lon="5.37986">
        <ele>563</ele>
        <time>2015-02-01T12:50:53Z</time>
      </trkpt>
      <trkpt lat="49.85538" lon="5.37986">
        <ele>563</ele>
        <time>2015-02-01T12:50:58Z</time>
      </trkpt>
      <trkpt lat="49.85537" lon="5.37984">
        <ele>563</ele>
        <time>2015-02-01T12:51:04Z</time>
      </trkpt>
      <trkpt lat="49.85537" lon="5.37983">
        <ele>563</ele>
        <time>2015-02-01T12:51:09Z</time>
      </trkpt>
      <trkpt lat="49.85536" lon="5.37981">
        <ele>563</ele>
        <time>2015-02-01T12:51:14Z</time>
      </trkpt>
      <trkpt lat="49.85535" lon="5.3798">
        <ele>563</ele>
        <time>2015-02-01T12:51:20Z</time>
      </trkpt>
      <trkpt lat="49.85535" lon="5.37979">
        <ele>563</ele>
        <time>2015-02-01T12:51:26Z</time>
      </trkpt>
      <trkpt lat="49.85534" lon="5.37978">
        <ele>563</ele>
        <time>2015-02-01T12:51:32Z</time>
      </trkpt>
      <trkpt lat="49.85534" lon="5.37978">
        <ele>563</ele>
        <time>2015-02-01T12:51:37Z</time>
      </trkpt>
      <trkpt lat="49.85535" lon="5.37979">
        <ele>563</ele>
        <time>2015-02-01T12:51:42Z</time>
      </trkpt>
      <trkpt lat="49.85535" lon="5.3798">
        <ele>563</ele>
        <time>2015-02-01T12:51:48Z</time>
      </trkpt>
      <trkpt lat="49.85535" lon="5.37983">
        <ele>563</ele>
        <time>2015-02-01T12:51:53Z</time>
      </trkpt>
      <trkpt lat="49.85533" lon="5.37984">
        <ele>563</ele>
        <time>2015-02-01T12:51:58Z</time>
      </trkpt>
      <trkpt lat="49.85531" lon="5.37975">
        <ele>562</ele>
        <time>2015-02-01T12:52:04Z</time>
      </trkpt>
      <trkpt lat="49.85529" lon="5.37967">
        <ele>561</ele>
        <time>2015-02-01T12:52:09Z</time>
      </trkpt>
      <trkpt lat="49.85526" lon="5.37959">
        <ele>560</ele>
        <time>2015-02-01T12:52:15Z</time>
      </trkpt>
      <trkpt lat="49.85522" lon="5.3795">
        <ele>559</ele>
        <time>2015-02-01T12:52:21Z</time>
      </trkpt>
      <trkpt lat="49.85519" lon="5.37942">
        <ele>558</ele>
        <time>2015-02-01T12:52:27Z</time>
      </trkpt>
      <trkpt lat="49.85517" lon="5.37935">
        <ele>557</ele>
        <time>2015-02-01T12:52:32Z</time>
      </trkpt>
      <trkpt lat="49.85518" lon="5.37928">
        <ele>556</ele>
        <time>2015-02-01T12:52:37Z</time>
      </trkpt>
      <trkpt lat="49.85517" lon="5.37921">
        <ele>555</ele>
        <time>2015-02-01T12:52:43Z</time>
      </trkpt>
      <trkpt lat="49.85514" lon="5.37913">
        <ele>554</ele>
        <time>2015-02-01T12:52:49Z</time>
      </trkpt>
      <trkpt lat="49.85514" lon="5.37905">
        <ele>554</ele>
        <time>2015-02-01T12:52:54Z</time>
      </trkpt>
      <trkpt lat="49.85514" lon="5.37895">
        <ele>554</ele>
        <time>2015-02-01T12:52:59Z</time>
      </trkpt>
      <trkpt lat="49.85513" lon="5.37886">
        <ele>554</ele>
        <time>2015-02-01T12:53:04Z</time>
      </trkpt>
      <trkpt lat="49.85512" lon="5.37877">
        <ele>553</ele>
        <time>2015-02-01T12:53:09Z</time>
      </trkpt>
      <trkpt lat="49.85511" lon="5.37866">
        <ele>553</ele>
        <time>2015-02-01T12:53:14Z</time>
      </trkpt>
      <trkpt lat="49.85509" lon="5.37853">
        <ele>553</ele>
        <time>2015-02-01T12:53:20Z</time>
      </trkpt>
      <trkpt lat="49.85508" lon="5.37843">
        <ele>552</ele>
        <time>2015-02-01T12:53:25Z</time>
      </trkpt>
      <trkpt lat="49.85506" lon="5.37832">
        <ele>552</ele>
        <time>2015-02-01T12:53:31Z</time>
      </trkpt>
      <trkpt lat="49.85504" lon="5.37823">
        <ele>551</ele>
        <time>2015-02-01T12:53:36Z</time>
      </trkpt>
      <trkpt lat="49.85504" lon="5.37814">
        <ele>551</ele>
        <time>2015-02-01T12:53:41Z</time>
      </trkpt>
      <trkpt lat="49.85505" lon="5.37803">
        <ele>550</ele>
        <time>2015-02-01T12:53:47Z</time>
      </trkpt>
      <trkpt lat="49.85507" lon="5.37791">
        <ele>551</ele>
        <time>2015-02-01T12:53:52Z</time>
      </trkpt>
      <trkpt lat="49.85509" lon="5.37781">
        <ele>551</ele>
        <time>2015-02-01T12:53:57Z</time>
      </trkpt>
      <trkpt lat="49.85511" lon="5.3777">
        <ele>550</ele>
        <time>2015-02-01T12:54:02Z</time>
      </trkpt>
      <trkpt lat="49.85513" lon="5.37756">
        <ele>549</ele>
        <time>2015-02-01T12:54:08Z</time>
      </trkpt>
      <trkpt lat="49.85516" lon="5.37747">
        <ele>549</ele>
        <time>2015-02-01T12:54:13Z</time>
      </trkpt>
      <trkpt lat="49.85521" lon="5.37736">
        <ele>549</ele>
        <time>2015-02-01T12:54:19Z</time>
      </trkpt>
      <trkpt lat="49.85526" lon="5.37727">
        <ele>549</ele>
        <time>2015-02-01T12:54:25Z</time>
      </trkpt>
      <trkpt lat="49.85527" lon="5.37725">
        <ele>549</ele>
        <time>2015-02-01T12:54:32Z</time>
      </trkpt>
      <trkpt lat="49.85527" lon="5.37725">
        <ele>549</ele>
        <time>2015-02-01T12:54:37Z</time>
      </trkpt>
      <trkpt lat="49.85527" lon="5.37725">
        <ele>548</ele>
        <time>2015-02-01T12:54:42Z</time>
      </trkpt>
      <trkpt lat="49.85528" lon="5.37724">
        <ele>549</ele>
        <time>2015-02-01T12:54:48Z</time>
      </trkpt>
      <trkpt lat="49.85529" lon="5.37722">
        <ele>549</ele>
        <time>2015-02-01T12:54:54Z</time>
      </trkpt>
      <trkpt lat="49.8553" lon="5.37719">
        <ele>549</ele>
        <time>2015-02-01T12:54:59Z</time>
      </trkpt>
      <trkpt lat="49.85536" lon="5.37718">
        <ele>549</ele>
        <time>2015-02-01T12:55:04Z</time>
      </trkpt>
      <trkpt lat="49.85542" lon="5.37712">
        <ele>549</ele>
        <time>2015-02-01T12:55:10Z</time>
      </trkpt>
      <trkpt lat="49.85548" lon="5.37707">
        <ele>548</ele>
        <time>2015-02-01T12:55:16Z</time>
      </trkpt>
      <trkpt lat="49.85552" lon="5.37703">
        <ele>548</ele>
        <time>2015-02-01T12:55:21Z</time>
      </trkpt>
      <trkpt lat="49.85556" lon="5.37696">
        <ele>548</ele>
        <time>2015-02-01T12:55:27Z</time>
      </trkpt>
      <trkpt lat="49.85561" lon="5.37689">
        <ele>549</ele>
        <time>2015-02-01T12:55:33Z</time>
      </trkpt>
      <trkpt lat="49.85562" lon="5.37688">
        <ele>548</ele>
        <time>2015-02-01T12:55:38Z</time>
      </trkpt>
      <trkpt lat="49.85567" lon="5.37682">
        <ele>548</ele>
        <time>2015-02-01T12:55:44Z</time>
      </trkpt>
      <trkpt lat="49.85575" lon="5.37677">
        <ele>548</ele>
        <time>2015-02-01T12:55:50Z</time>
      </trkpt>
      <trkpt lat="49.85582" lon="5.37672">
        <ele>548</ele>
        <time>2015-02-01T12:55:56Z</time>
      </trkpt>
      <trkpt lat="49.85587" lon="5.37668">
        <ele>548</ele>
        <time>2015-02-01T12:56:01Z</time>
      </trkpt>
      <trkpt lat="49.85592" lon="5.37663">
        <ele>549</ele>
        <time>2015-02-01T12:56:06Z</time>
      </trkpt>
      <trkpt lat="49.85599" lon="5.37657">
        <ele>548</ele>
        <time>2015-02-01T12:56:12Z</time>
      </trkpt>
      <trkpt lat="49.85605" lon="5.37651">
        <ele>549</ele>
        <time>2015-02-01T12:56:18Z</time>
      </trkpt>
      <trkpt lat="49.85613" lon="5.37645">
        <ele>548</ele>
        <time>2015-02-01T12:56:23Z</time>
      </trkpt>
      <trkpt lat="49.85619" lon="5.3764">
        <ele>548</ele>
        <time>2015-02-01T12:56:28Z</time>
      </trkpt>
      <trkpt lat="49.85626" lon="5.37632">
        <ele>549</ele>
        <time>2015-02-01T12:56:34Z</time>
      </trkpt>
      <trkpt lat="49.85632" lon="5.37628">
        <ele>548</ele>
        <time>2015-02-01T12:56:39Z</time>
      </trkpt>
      <trkpt lat="49.85636" lon="5.37623">
        <ele>548</ele>
        <time>2015-02-01T12:56:44Z</time>
      </trkpt>
      <trkpt lat="49.85643" lon="5.37616">
        <ele>549</ele>
        <time>2015-02-01T12:56:50Z</time>
      </trkpt>
      <trkpt lat="49.85649" lon="5.3761">
        <ele>549</ele>
        <time>2015-02-01T12:56:56Z</time>
      </trkpt>
      <trkpt lat="49.85656" lon="5.37606">
        <ele>549</ele>
        <time>2015-02-01T12:57:01Z</time>
      </trkpt>
      <trkpt lat="49.85663" lon="5.37601">
        <ele>548</ele>
        <time>2015-02-01T12:57:07Z</time>
      </trkpt>
      <trkpt lat="49.85669" lon="5.37596">
        <ele>549</ele>
        <time>2015-02-01T12:57:12Z</time>
      </trkpt>
      <trkpt lat="49.85675" lon="5.37587">
        <ele>549</ele>
        <time>2015-02-01T12:57:18Z</time>
      </trkpt>
      <trkpt lat="49.8568" lon="5.37577">
        <ele>549</ele>
        <time>2015-02-01T12:57:24Z</time>
      </trkpt>
      <trkpt lat="49.85685" lon="5.37569">
        <ele>549</ele>
        <time>2015-02-01T12:57:29Z</time>
      </trkpt>
      <trkpt lat="49.85688" lon="5.37566">
        <ele>549</ele>
        <time>2015-02-01T12:57:34Z</time>
      </trkpt>
      <trkpt lat="49.85693" lon="5.37569">
        <ele>549</ele>
        <time>2015-02-01T12:57:39Z</time>
      </trkpt>
      <trkpt lat="49.85695" lon="5.37564">
        <ele>549</ele>
        <time>2015-02-01T12:57:45Z</time>
      </trkpt>
      <trkpt lat="49.85695" lon="5.37563">
        <ele>549</ele>
        <time>2015-02-01T12:57:50Z</time>
      </trkpt>
      <trkpt lat="49.85695" lon="5.37562">
        <ele>549</ele>
        <time>2015-02-01T12:57:56Z</time>
      </trkpt>
      <trkpt lat="49.85695" lon="5.37562">
        <ele>549</ele>
        <time>2015-02-01T12:58:01Z</time>
      </trkpt>
      <trkpt lat="49.85695" lon="5.37565">
        <ele>548</ele>
        <time>2015-02-01T12:58:06Z</time>
      </trkpt>
      <trkpt lat="49.85694" lon="5.37568">
        <ele>549</ele>
        <time>2015-02-01T12:58:12Z</time>
      </trkpt>
      <trkpt lat="49.85692" lon="5.3757">
        <ele>549</ele>
        <time>2015-02-01T12:58:17Z</time>
      </trkpt>
      <trkpt lat="49.85692" lon="5.3757">
        <ele>549</ele>
        <time>2015-02-01T12:58:22Z</time>
      </trkpt>
      <trkpt lat="49.85692" lon="5.3757">
        <ele>549</ele>
        <time>2015-02-01T12:58:27Z</time>
      </trkpt>
      <trkpt lat="49.85692" lon="5.37564">
        <ele>549</ele>
        <time>2015-02-01T12:58:32Z</time>
      </trkpt>
      <trkpt lat="49.85693" lon="5.37563">
        <ele>549</ele>
        <time>2015-02-01T12:58:37Z</time>
      </trkpt>
      <trkpt lat="49.85694" lon="5.3756">
        <ele>549</ele>
        <time>2015-02-01T12:58:42Z</time>
      </trkpt>
      <trkpt lat="49.85693" lon="5.3756">
        <ele>548</ele>
        <time>2015-02-01T12:58:48Z</time>
      </trkpt>
      <trkpt lat="49.8569" lon="5.37559">
        <ele>549</ele>
        <time>2015-02-01T12:58:53Z</time>
      </trkpt>
      <trkpt lat="49.85691" lon="5.37564">
        <ele>549</ele>
        <time>2015-02-01T12:58:59Z</time>
      </trkpt>
      <trkpt lat="49.85693" lon="5.37569">
        <ele>549</ele>
        <time>2015-02-01T12:59:05Z</time>
      </trkpt>
      <trkpt lat="49.85693" lon="5.3757">
        <ele>549</ele>
        <time>2015-02-01T12:59:10Z</time>
      </trkpt>
      <trkpt lat="49.85693" lon="5.3757">
        <ele>548</ele>
        <time>2015-02-01T12:59:15Z</time>
      </trkpt>
      <trkpt lat="49.85692" lon="5.37572">
        <ele>549</ele>
        <time>2015-02-01T12:59:21Z</time>
      </trkpt>
      <trkpt lat="49.85691" lon="5.3757">
        <ele>549</ele>
        <time>2015-02-01T12:59:26Z</time>
      </trkpt>
      <trkpt lat="49.85691" lon="5.3757">
        <ele>549</ele>
        <time>2015-02-01T12:59:31Z</time>
      </trkpt>
      <trkpt lat="49.85688" lon="5.37568">
        <ele>548</ele>
        <time>2015-02-01T12:59:37Z</time>
      </trkpt>
      <trkpt lat="49.85686" lon="5.37561">
        <ele>548</ele>
        <time>2015-02-01T12:59:42Z</time>
      </trkpt>
      <trkpt lat="49.85687" lon="5.3756">
        <ele>548</ele>
        <time>2015-02-01T12:59:48Z</time>
      </trkpt>
      <trkpt lat="49.85688" lon="5.37558">
        <ele>548</ele>
        <time>2015-02-01T12:59:53Z</time>
      </trkpt>
      <trkpt lat="49.85687" lon="5.37554">
        <ele>549</ele>
        <time>2015-02-01T12:59:58Z</time>
      </trkpt>
      <trkpt lat="49.85684" lon="5.37547">
        <ele>549</ele>
        <time>2015-02-01T13:00:04Z</time>
      </trkpt>
      <trkpt lat="49.85683" lon="5.37548">
        <ele>549</ele>
        <time>2015-02-01T13:00:09Z</time>
      </trkpt>
      <trkpt lat="49.85686" lon="5.37549">
        <ele>549</ele>
        <time>2015-02-01T13:00:15Z</time>
      </trkpt>
      <trkpt lat="49.85688" lon="5.37552">
        <ele>549</ele>
        <time>2015-02-01T13:00:21Z</time>
      </trkpt>
      <trkpt lat="49.85691" lon="5.37556">
        <ele>549</ele>
        <time>2015-02-01T13:00:27Z</time>
      </trkpt>
      <trkpt lat="49.85691" lon="5.37559">
        <ele>548</ele>
        <time>2015-02-01T13:00:32Z</time>
      </trkpt>
      <trkpt lat="49.85688" lon="5.37558">
        <ele>548</ele>
        <time>2015-02-01T13:00:38Z</time>
      </trkpt>
      <trkpt lat="49.85687" lon="5.37558">
        <ele>549</ele>
        <time>2015-02-01T13:00:43Z</time>
      </trkpt>
      <trkpt lat="49.85686" lon="5.37555">
        <ele>549</ele>
        <time>2015-02-01T13:00:48Z</time>
      </trkpt>
      <trkpt lat="49.85686" lon="5.3755">
        <ele>549</ele>
        <time>2015-02-01T13:00:54Z</time>
      </trkpt>
      <trkpt lat="49.85683" lon="5.37544">
        <ele>549</ele>
        <time>2015-02-01T13:00:59Z</time>
      </trkpt>
      <trkpt lat="49.85684" lon="5.37535">
        <ele>549</ele>
        <time>2015-02-01T13:01:05Z</time>
      </trkpt>
      <trkpt lat="49.85687" lon="5.37527">
        <ele>549</ele>
        <time>2015-02-01T13:01:10Z</time>
      </trkpt>
      <trkpt lat="49.8569" lon="5.37517">
        <ele>549</ele>
        <time>2015-02-01T13:01:16Z</time>
      </trkpt>
      <trkpt lat="49.85694" lon="5.37509">
        <ele>550</ele>
        <time>2015-02-01T13:01:21Z</time>
      </trkpt>
      <trkpt lat="49.85697" lon="5.37501">
        <ele>549</ele>
        <time>2015-02-01T13:01:26Z</time>
      </trkpt>
      <trkpt lat="49.85702" lon="5.37492">
        <ele>550</ele>
        <time>2015-02-01T13:01:32Z</time>
      </trkpt>
      <trkpt lat="49.85706" lon="5.37484">
        <ele>549</ele>
        <time>2015-02-01T13:01:37Z</time>
      </trkpt>
      <trkpt lat="49.85712" lon="5.37476">
        <ele>549</ele>
        <time>2015-02-01T13:01:43Z</time>
      </trkpt>
      <trkpt lat="49.85716" lon="5.3747">
        <ele>550</ele>
        <time>2015-02-01T13:01:49Z</time>
      </trkpt>
      <trkpt lat="49.85722" lon="5.37465">
        <ele>550</ele>
        <time>2015-02-01T13:01:54Z</time>
      </trkpt>
      <trkpt lat="49.85727" lon="5.37461">
        <ele>550</ele>
        <time>2015-02-01T13:01:59Z</time>
      </trkpt>
      <trkpt lat="49.85734" lon="5.37458">
        <ele>550</ele>
        <time>2015-02-01T13:02:05Z</time>
      </trkpt>
      <trkpt lat="49.85741" lon="5.37455">
        <ele>550</ele>
        <time>2015-02-01T13:02:11Z</time>
      </trkpt>
      <trkpt lat="49.85749" lon="5.37453">
        <ele>550</ele>
        <time>2015-02-01T13:02:17Z</time>
      </trkpt>
      <trkpt lat="49.85755" lon="5.37451">
        <ele>551</ele>
        <time>2015-02-01T13:02:22Z</time>
      </trkpt>
      <trkpt lat="49.85762" lon="5.37448">
        <ele>551</ele>
        <time>2015-02-01T13:02:27Z</time>
      </trkpt>
      <trkpt lat="49.85769" lon="5.37444">
        <ele>551</ele>
        <time>2015-02-01T13:02:33Z</time>
      </trkpt>
      <trkpt lat="49.8577" lon="5.37444">
        <ele>551</ele>
        <time>2015-02-01T13:02:38Z</time>
      </trkpt>
      <trkpt lat="49.8577" lon="5.37443">
        <ele>551</ele>
        <time>2015-02-01T13:02:45Z</time>
      </trkpt>
      <trkpt lat="49.8577" lon="5.37441">
        <ele>551</ele>
        <time>2015-02-01T13:02:50Z</time>
      </trkpt>
      <trkpt lat="49.8577" lon="5.3744">
        <ele>551</ele>
        <time>2015-02-01T13:02:55Z</time>
      </trkpt>
      <trkpt lat="49.8577" lon="5.37439">
        <ele>551</ele>
        <time>2015-02-01T13:03:01Z</time>
      </trkpt>
      <trkpt lat="49.8577" lon="5.37438">
        <ele>551</ele>
        <time>2015-02-01T13:03:06Z</time>
      </trkpt>
      <trkpt lat="49.85771" lon="5.37439">
        <ele>551</ele>
        <time>2015-02-01T13:03:11Z</time>
      </trkpt>
      <trkpt lat="49.85771" lon="5.37439">
        <ele>551</ele>
        <time>2015-02-01T13:03:17Z</time>
      </trkpt>
      <trkpt lat="49.85772" lon="5.37439">
        <ele>551</ele>
        <time>2015-02-01T13:03:23Z</time>
      </trkpt>
      <trkpt lat="49.85772" lon="5.37439">
        <ele>551</ele>
        <time>2015-02-01T13:03:29Z</time>
      </trkpt>
      <trkpt lat="49.85772" lon="5.37439">
        <ele>552</ele>
        <time>2015-02-01T13:03:34Z</time>
      </trkpt>
      <trkpt lat="49.85772" lon="5.37439">
        <ele>551</ele>
        <time>2015-02-01T13:03:42Z</time>
      </trkpt>
      <trkpt lat="49.85773" lon="5.3744">
        <ele>551</ele>
        <time>2015-02-01T13:03:49Z</time>
      </trkpt>
      <trkpt lat="49.85773" lon="5.37438">
        <ele>551</ele>
        <time>2015-02-01T13:03:55Z</time>
      </trkpt>
      <trkpt lat="49.85772" lon="5.37438">
        <ele>552</ele>
        <time>2015-02-01T13:04:00Z</time>
      </trkpt>
      <trkpt lat="49.85773" lon="5.37439">
        <ele>551</ele>
        <time>2015-02-01T13:04:06Z</time>
      </trkpt>
      <trkpt lat="49.85773" lon="5.37439">
        <ele>551</ele>
        <time>2015-02-01T13:04:12Z</time>
      </trkpt>
      <trkpt lat="49.85773" lon="5.3744">
        <ele>551</ele>
        <time>2015-02-01T13:04:18Z</time>
      </trkpt>
      <trkpt lat="49.85773" lon="5.3744">
        <ele>551</ele>
        <time>2015-02-01T13:04:23Z</time>
      </trkpt>
      <trkpt lat="49.85773" lon="5.37439">
        <ele>551</ele>
        <time>2015-02-01T13:04:28Z</time>
      </trkpt>
      <trkpt lat="49.85773" lon="5.37441">
        <ele>551</ele>
        <time>2015-02-01T13:04:34Z</time>
      </trkpt>
      <trkpt lat="49.85772" lon="5.37442">
        <ele>551</ele>
        <time>2015-02-01T13:04:39Z</time>
      </trkpt>
      <trkpt lat="49.85772" lon="5.37442">
        <ele>550</ele>
        <time>2015-02-01T13:04:44Z</time>
      </trkpt>
      <trkpt lat="49.85773" lon="5.37441">
        <ele>551</ele>
        <time>2015-02-01T13:04:49Z</time>
      </trkpt>
      <trkpt lat="49.85776" lon="5.37441">
        <ele>552</ele>
        <time>2015-02-01T13:04:55Z</time>
      </trkpt>
      <trkpt lat="49.85775" lon="5.3744">
        <ele>552</ele>
        <time>2015-02-01T13:05:01Z</time>
      </trkpt>
      <trkpt lat="49.85773" lon="5.37441">
        <ele>551</ele>
        <time>2015-02-01T13:05:07Z</time>
      </trkpt>
      <trkpt lat="49.85773" lon="5.37441">
        <ele>551</ele>
        <time>2015-02-01T13:05:12Z</time>
      </trkpt>
      <trkpt lat="49.85772" lon="5.37441">
        <ele>551</ele>
        <time>2015-02-01T13:05:17Z</time>
      </trkpt>
      <trkpt lat="49.85772" lon="5.3744">
        <ele>551</ele>
        <time>2015-02-01T13:05:23Z</time>
      </trkpt>
      <trkpt lat="49.85771" lon="5.37439">
        <ele>551</ele>
        <time>2015-02-01T13:05:29Z</time>
      </trkpt>
      <trkpt lat="49.85771" lon="5.37439">
        <ele>551</ele>
        <time>2015-02-01T13:05:35Z</time>
      </trkpt>
      <trkpt lat="49.85772" lon="5.37438">
        <ele>551</ele>
        <time>2015-02-01T13:05:40Z</time>
      </trkpt>
      <trkpt lat="49.85774" lon="5.37437">
        <ele>551</ele>
        <time>2015-02-01T13:05:46Z</time>
      </trkpt>
      <trkpt lat="49.85774" lon="5.37438">
        <ele>551</ele>
        <time>2015-02-01T13:05:51Z</time>
      </trkpt>
      <trkpt lat="49.85775" lon="5.37437">
        <ele>551</ele>
        <time>2015-02-01T13:05:56Z</time>
      </trkpt>
      <trkpt lat="49.85775" lon="5.37438">
        <ele>551</ele>
        <time>2015-02-01T13:06:02Z</time>
      </trkpt>
      <trkpt lat="49.85773" lon="5.37438">
        <ele>551</ele>
        <time>2015-02-01T13:06:07Z</time>
      </trkpt>
      <trkpt lat="49.8577" lon="5.3744">
        <ele>551</ele>
        <time>2015-02-01T13:06:13Z</time>
      </trkpt>
      <trkpt lat="49.8577" lon="5.3744">
        <ele>551</ele>
        <time>2015-02-01T13:06:18Z</time>
      </trkpt>
      <trkpt lat="49.8577" lon="5.3744">
        <ele>551</ele>
        <time>2015-02-01T13:06:23Z</time>
      </trkpt>
      <trkpt lat="49.8577" lon="5.3744">
        <ele>551</ele>
        <time>2015-02-01T13:06:29Z</time>
      </trkpt>
      <trkpt lat="49.85771" lon="5.37441">
        <ele>551</ele>
        <time>2015-02-01T13:06:35Z</time>
      </trkpt>
      <trkpt lat="49.85771" lon="5.37441">
        <ele>551</ele>
        <time>2015-02-01T13:06:40Z</time>
      </trkpt>
      <trkpt lat="49.85771" lon="5.3744">
        <ele>551</ele>
        <time>2015-02-01T13:06:47Z</time>
      </trkpt>
      <trkpt lat="49.85771" lon="5.3744">
        <ele>551</ele>
        <time>2015-02-01T13:06:52Z</time>
      </trkpt>
      <trkpt lat="49.85772" lon="5.37442">
        <ele>551</ele>
        <time>2015-02-01T13:06:57Z</time>
      </trkpt>
      <trkpt lat="49.85772" lon="5.37444">
        <ele>551</ele>
        <time>2015-02-01T13:07:03Z</time>
      </trkpt>
      <trkpt lat="49.85772" lon="5.37444">
        <ele>551</ele>
        <time>2015-02-01T13:07:08Z</time>
      </trkpt>
      <trkpt lat="49.85771" lon="5.37444">
        <ele>551</ele>
        <time>2015-02-01T13:07:15Z</time>
      </trkpt>
      <trkpt lat="49.85771" lon="5.37443">
        <ele>551</ele>
        <time>2015-02-01T13:07:23Z</time>
      </trkpt>
      <trkpt lat="49.85773" lon="5.37442">
        <ele>552</ele>
        <time>2015-02-01T13:07:29Z</time>
      </trkpt>
      <trkpt lat="49.85779" lon="5.3744">
        <ele>551</ele>
        <time>2015-02-01T13:07:35Z</time>
      </trkpt>
      <trkpt lat="49.8578" lon="5.3744">
        <ele>552</ele>
        <time>2015-02-01T13:07:40Z</time>
      </trkpt>
      <trkpt lat="49.85775" lon="5.3744">
        <ele>551</ele>
        <time>2015-02-01T13:07:45Z</time>
      </trkpt>
      <trkpt lat="49.8577" lon="5.37442">
        <ele>552</ele>
        <time>2015-02-01T13:07:51Z</time>
      </trkpt>
      <trkpt lat="49.85771" lon="5.37441">
        <ele>551</ele>
        <time>2015-02-01T13:07:57Z</time>
      </trkpt>
      <trkpt lat="49.85771" lon="5.3744">
        <ele>551</ele>
        <time>2015-02-01T13:08:02Z</time>
      </trkpt>
      <trkpt lat="49.8577" lon="5.37439">
        <ele>551</ele>
        <time>2015-02-01T13:08:09Z</time>
      </trkpt>
      <trkpt lat="49.8577" lon="5.3744">
        <ele>551</ele>
        <time>2015-02-01T13:08:14Z</time>
      </trkpt>
      <trkpt lat="49.8577" lon="5.37439">
        <ele>551</ele>
        <time>2015-02-01T13:08:19Z</time>
      </trkpt>
      <trkpt lat="49.85775" lon="5.37437">
        <ele>551</ele>
        <time>2015-02-01T13:08:24Z</time>
      </trkpt>
      <trkpt lat="49.8578" lon="5.37434">
        <ele>551</ele>
        <time>2015-02-01T13:08:29Z</time>
      </trkpt>
      <trkpt lat="49.85787" lon="5.37432">
        <ele>551</ele>
        <time>2015-02-01T13:08:35Z</time>
      </trkpt>
      <trkpt lat="49.85794" lon="5.37429">
        <ele>551</ele>
        <time>2015-02-01T13:08:41Z</time>
      </trkpt>
      <trkpt lat="49.85799" lon="5.37423">
        <ele>551</ele>
        <time>2015-02-01T13:08:46Z</time>
      </trkpt>
      <trkpt lat="49.85804" lon="5.37412">
        <ele>551</ele>
        <time>2015-02-01T13:08:52Z</time>
      </trkpt>
      <trkpt lat="49.85809" lon="5.37401">
        <ele>551</ele>
        <time>2015-02-01T13:08:58Z</time>
      </trkpt>
      <trkpt lat="49.85812" lon="5.37391">
        <ele>551</ele>
        <time>2015-02-01T13:09:04Z</time>
      </trkpt>
      <trkpt lat="49.85816" lon="5.37379">
        <ele>551</ele>
        <time>2015-02-01T13:09:10Z</time>
      </trkpt>
      <trkpt lat="49.85819" lon="5.37367">
        <ele>551</ele>
        <time>2015-02-01T13:09:16Z</time>
      </trkpt>
      <trkpt lat="49.85822" lon="5.37355">
        <ele>551</ele>
        <time>2015-02-01T13:09:22Z</time>
      </trkpt>
      <trkpt lat="49.85823" lon="5.37345">
        <ele>551</ele>
        <time>2015-02-01T13:09:27Z</time>
      </trkpt>
      <trkpt lat="49.85825" lon="5.37335">
        <ele>551</ele>
        <time>2015-02-01T13:09:32Z</time>
      </trkpt>
      <trkpt lat="49.85828" lon="5.37323">
        <ele>552</ele>
        <time>2015-02-01T13:09:38Z</time>
      </trkpt>
      <trkpt lat="49.8583" lon="5.37315">
        <ele>550</ele>
        <time>2015-02-01T13:09:43Z</time>
      </trkpt>
      <trkpt lat="49.85831" lon="5.37311">
        <ele>551</ele>
        <time>2015-02-01T13:09:49Z</time>
      </trkpt>
      <trkpt lat="49.85832" lon="5.37309">
        <ele>551</ele>
        <time>2015-02-01T13:09:54Z</time>
      </trkpt>
      <trkpt lat="49.85835" lon="5.373">
        <ele>551</ele>
        <time>2015-02-01T13:09:59Z</time>
      </trkpt>
      <trkpt lat="49.85838" lon="5.37289">
        <ele>551</ele>
        <time>2015-02-01T13:10:05Z</time>
      </trkpt>
      <trkpt lat="49.85838" lon="5.37281">
        <ele>551</ele>
        <time>2015-02-01T13:10:10Z</time>
      </trkpt>
      <trkpt lat="49.85841" lon="5.37271">
        <ele>552</ele>
        <time>2015-02-01T13:10:16Z</time>
      </trkpt>
      <trkpt lat="49.85844" lon="5.37265">
        <ele>552</ele>
        <time>2015-02-01T13:10:21Z</time>
      </trkpt>
      <trkpt lat="49.8585" lon="5.37259">
        <ele>553</ele>
        <time>2015-02-01T13:10:27Z</time>
      </trkpt>
      <trkpt lat="49.85856" lon="5.37255">
        <ele>554</ele>
        <time>2015-02-01T13:10:33Z</time>
      </trkpt>
      <trkpt lat="49.85856" lon="5.37256">
        <ele>554</ele>
        <time>2015-02-01T13:10:38Z</time>
      </trkpt>
      <trkpt lat="49.85856" lon="5.37256">
        <ele>554</ele>
        <time>2015-02-01T13:10:39Z</time>
      </trkpt>
    </trkseg>
  </trk>
</gpx>